GFSCGP_925_temp_000.txt.gz
Temp
32 30 29 30 30 32 32 32 32 33 33 30 30 29 30 30 30 29 29 28 28 28 28 28 28 28 28 27 27 26 26 26 25 24 24 23 23 23 23 23 23 22 22 22
30 29 30 32 33 32 33 33 32 34 33 31 29 29 30 30 30 30 29 28 28 27 27 27 27 27 27 27 27 26 26 26 25 25 24 23 23 23 23 23 23 22 22 22
28 31 33 33 33 33 32 32 32 33 34 31 30 29 28 30 31 30 30 30 29 27 27 27 27 26 27 27 27 26 26 26 25 25 24 23 23 23 23 24 22 22 22 22
30 32 33 33 33 32 30 33 35 34 34 29 30 27 27 30 29 30 29 29 29 27 27 27 27 26 26 27 27 26 26 25 25 25 24 24 24 23 23 24 23 22 23 23
30 32 32 32 34 33 33 33 33 33 33 30 31 27 30 27 26 27 29 30 30 28 27 27 27 27 27 27 27 26 26 26 25 25 25 24 24 24 24 23 23 23 22 23
31 33 32 33 35 34 36 36 31 29 27 27 29 28 26 27 30 30 29 30 31 29 28 27 27 27 27 26 26 26 26 26 26 25 25 24 24 23 23 22 22 23 23 23
31 33 34 34 33 33 35 29 28 29 27 27 26 29 30 29 32 31 30 30 31 29 28 27 27 26 26 25 26 26 26 26 25 25 25 25 25 24 23 23 23 22 22 22
29 30 33 34 33 32 31 29 26 29 28 29 28 30 33 30 32 31 32 31 31 29 29 28 27 27 26 26 25 25 26 26 25 25 26 25 24 24 23 23 23 23 22 22
26 28 33 34 35 33 33 30 29 28 28 28 28 31 32 31 31 31 31 30 30 29 29 28 28 27 26 26 25 25 26 26 25 25 25 25 24 24 23 23 22 22 22 21
29 29 31 35 34 33 34 31 30 25 29 30 28 31 28 29 29 30 30 29 29 30 28 28 28 27 27 26 26 25 25 25 26 25 25 25 24 24 23 22 22 22 21 21
30 28 32 33 32 32 32 31 28 27 26 27 27 27 28 30 29 28 29 30 28 28 29 28 28 28 26 27 26 25 24 24 25 25 25 25 24 23 23 23 22 22 22 21
28 26 30 31 32 33 31 30 28 27 29 25 25 27 30 29 28 30 30 30 27 29 29 28 28 28 26 26 25 24 24 24 24 25 25 24 24 23 23 23 22 22 21 21
31 26 29 29 30 32 33 31 28 25 24 26 27 27 30 30 29 29 28 28 27 27 27 29 29 28 27 26 25 24 24 23 24 24 24 24 24 24 23 23 23 22 22 21
31 26 29 30 28 31 32 32 30 28 26 26 27 30 31 30 29 29 28 27 26 26 27 28 28 28 27 27 26 24 24 23 24 24 24 24 24 24 24 23 22 22 22 21
31 28 27 29 33 32 34 34 30 30 29 30 30 29 28 27 28 28 28 28 28 27 25 27 28 27 27 27 26 25 24 23 24 24 23 24 24 24 24 23 23 22 22 21
26 28 28 32 32 34 35 34 33 33 31 32 30 29 28 28 29 28 29 29 28 28 26 26 28 27 27 27 26 24 24 23 23 23 23 24 24 24 24 23 23 22 22 22
26 26 26 29 31 32 32 34 34 34 32 33 29 30 28 29 28 27 28 28 28 28 29 25 25 24 28 27 26 24 24 23 23 23 23 24 24 23 23 23 23 22 22 22
26 25 24 27 29 30 30 33 32 29 30 28 31 29 28 28 27 27 27 27 28 28 28 26 24 25 27 28 26 24 23 22 22 22 23 23 24 23 23 23 23 23 23 22
24 24 22 25 26 29 32 29 30 30 29 28 29 29 28 28 28 30 27 28 27 28 27 27 29 28 26 27 25 24 21 22 22 21 22 24 24 23 23 23 23 23 23 22
25 22 24 22 27 28 28 26 28 27 25 27 27 27 28 29 26 26 28 27 27 26 28 29 30 29 26 25 24 22 21 21 20 21 23 25 25 24 24 24 24 23 23 22
23 23 22 21 23 24 26 25 28 25 25 25 27 26 26 27 25 26 27 29 27 27 29 32 30 28 26 24 22 21 21 21 22 23 25 25 24 25 25 24 24 23 22 19
22 23 21 21 24 25 24 26 25 24 25 25 25 25 25 24 25 25 25 27 28 30 29 29 27 26 24 24 22 20 21 21 21 21 22 21 20 19 21 24 23 23 20 19
23 21 21 20 20 19 20 22 20 21 23 24 24 25 25 26 26 26 26 26 25 25 27 29 25 21 23 24 21 19 19 21 21 20 20 21 21 20 17 19 23 20 19 19
23 22 20 20 22 20 21 22 22 21 21 22 22 22 23 25 26 27 24 24 22 20 22 22 19 17 16 20 22 22 21 20 20 19 19 19 20 20 20 19 20 20 20 18
21 21 20 20 21 21 22 22 23 23 22 23 22 23 23 23 23 23 22 20 18 18 18 19 18 17 16 18 19 20 21 22 22 22 21 19 20 21 18 19 20 19 17 17
21 21 19 19 19 18 19 19 21 21 22 23 23 24 23 24 23 22 22 20 18 18 19 17 17 17 17 19 19 19 20 21 22 20 22 21 19 20 18 18 14 14 15 15

GFSCGP_925_temp_003.txt.gz
Temp
30 29 27 28 29 30 31 31 30 31 31 29 28 27 27 27 27 26 26 26 26 26 27 26 26 26 26 26 26 25 25 25 24 24 23 23 23 23 22 23 23 22 22 22
29 27 29 30 30 31 32 32 30 32 30 29 27 27 28 28 27 27 27 27 27 27 26 26 26 25 26 26 26 25 25 25 25 24 24 23 23 22 23 23 22 22 22 22
26 29 30 31 31 31 30 30 31 31 30 29 28 27 27 28 28 28 28 28 28 27 26 26 26 25 25 25 26 26 26 26 25 25 24 23 22 22 22 22 22 22 22 22
28 30 31 31 32 31 30 30 32 31 30 28 29 26 25 27 28 28 28 27 28 26 27 26 26 25 25 26 27 27 26 26 25 25 24 23 23 22 23 23 23 22 21 21
28 30 30 31 31 31 31 31 31 31 30 27 28 26 26 26 26 27 28 28 28 27 27 26 26 25 25 27 27 26 26 26 25 25 24 23 23 23 23 23 22 21 22 22
29 31 31 31 32 32 33 33 27 25 25 26 27 27 26 27 28 29 29 28 28 27 27 26 27 26 25 26 26 26 26 25 25 25 24 23 23 23 23 22 21 22 22 22
31 31 32 33 32 31 31 27 26 27 26 26 26 27 28 27 30 30 29 29 28 28 27 26 26 25 25 25 26 26 26 25 25 25 24 24 23 24 24 22 22 22 22 22
26 28 30 32 31 30 29 27 25 27 25 27 25 27 30 31 30 31 30 30 29 29 27 27 26 26 26 25 25 25 25 25 25 25 24 24 24 24 23 22 22 22 22 22
24 26 30 31 32 31 31 27 28 26 25 25 25 28 31 29 28 30 30 29 28 29 27 27 26 26 26 26 25 25 24 24 25 25 24 24 25 24 23 23 22 22 22 22
27 28 29 32 32 31 32 29 29 24 27 28 27 30 28 30 27 28 29 29 29 29 27 26 26 26 26 26 25 25 24 24 25 25 25 25 25 24 24 23 23 22 22 21
25 26 28 31 29 30 29 29 26 25 24 26 26 26 25 30 26 27 28 29 29 28 27 27 26 27 26 26 26 25 24 23 23 24 24 25 25 24 23 23 23 22 22 21
26 25 28 28 29 31 30 29 29 30 27 23 25 27 29 28 26 27 28 28 26 27 26 27 27 27 26 26 26 25 24 23 23 24 24 24 25 24 23 23 23 22 22 22
26 24 25 27 29 29 30 28 26 24 23 24 26 27 28 27 26 26 26 26 26 26 25 26 26 26 27 26 26 25 24 23 23 23 24 24 24 24 23 23 23 22 22 21
29 22 30 29 29 29 31 29 27 27 25 24 25 30 31 28 28 26 25 25 26 26 26 26 26 26 27 26 26 25 24 24 23 23 23 24 24 24 23 23 22 22 22 21
30 27 25 31 31 30 31 31 28 29 29 30 28 28 28 27 27 27 27 25 25 25 25 26 26 26 26 26 25 24 24 23 22 22 22 23 24 24 24 23 23 23 22 22
25 27 26 28 29 30 31 31 30 31 27 30 27 28 27 30 26 27 27 27 26 24 25 26 27 26 26 26 25 24 24 23 22 22 22 21 24 23 23 23 23 23 23 22
24 28 24 30 29 29 29 30 30 30 30 30 29 29 27 27 27 27 27 27 27 25 23 23 24 24 25 26 25 25 24 23 21 21 20 22 23 23 23 24 23 23 23 22
25 25 23 30 28 29 30 29 30 28 29 27 28 29 27 28 29 28 27 26 25 26 25 23 23 24 26 26 26 25 24 23 21 20 20 20 21 21 23 23 23 23 22 22
21 22 22 24 25 29 28 28 29 31 29 27 26 27 27 26 27 27 27 26 25 25 24 23 26 26 27 26 27 26 23 21 20 20 19 20 19 23 22 22 23 23 22 22
22 20 24 20 26 27 27 26 25 25 27 26 26 25 26 27 27 24 24 28 27 26 25 25 27 27 26 27 26 24 20 20 20 20 21 21 21 22 21 23 24 22 21 23
21 21 22 22 22 25 23 22 24 27 25 24 24 24 24 23 22 23 23 23 25 25 27 27 28 28 28 25 25 21 19 19 20 20 21 22 21 21 20 20 20 20 17 18
21 23 21 21 22 24 23 23 26 23 22 23 23 22 22 22 23 23 23 24 25 24 25 26 25 24 23 24 23 19 19 20 20 20 20 20 21 21 21 21 20 21 18 15
22 22 20 20 20 20 18 20 20 21 23 22 22 21 23 23 23 23 22 23 23 23 22 23 24 22 23 22 22 19 20 20 20 20 20 19 19 20 21 22 22 23 21 15
23 21 19 20 22 20 20 20 20 21 20 21 21 22 22 22 24 23 22 22 20 19 18 20 19 18 19 20 19 20 20 20 20 19 19 20 20 20 20 19 20 19 17 17
20 22 19 20 21 21 21 18 20 20 21 22 22 21 20 22 22 23 23 22 20 18 18 19 17 17 17 17 17 18 19 21 19 19 19 19 20 20 20 18 17 16 17 17
16 19 19 18 19 18 19 20 20 21 21 20 21 21 20 20 19 20 20 18 17 17 17 17 16 17 17 17 17 18 18 19 19 18 19 21 19 19 20 17 14 16 16 16

GFSCGP_925_temp_006.txt.gz
Temp
27 27 25 27 28 29 29 28 30 30 30 28 26 25 25 26 25 25 25 25 25 25 25 25 24 24 24 24 24 24 24 24 24 24 23 23 23 23 23 22 23 22 22 22
26 26 27 28 29 29 29 28 29 30 29 29 27 27 26 26 26 26 25 25 25 25 24 24 24 24 24 25 25 24 24 25 25 24 24 23 23 22 22 22 22 22 22 22
25 28 28 29 28 29 28 28 28 30 28 28 27 26 25 25 26 26 26 26 25 25 25 24 24 24 24 24 25 25 25 25 25 24 23 22 22 22 22 22 22 22 22 21
26 29 29 28 29 28 27 29 30 29 28 26 27 25 24 26 25 26 26 26 26 26 26 25 24 24 24 25 26 26 26 25 25 24 23 23 23 22 22 22 22 22 22 21
27 28 29 29 29 29 30 29 29 28 27 26 27 26 26 25 24 26 27 27 27 26 26 25 25 25 25 25 26 26 26 26 25 24 24 23 23 23 22 23 22 22 21 21
27 29 29 29 31 31 29 28 25 23 23 25 26 27 26 23 27 28 28 28 27 27 26 26 26 25 25 25 26 26 26 26 25 25 24 24 23 23 22 22 22 21 21 21
28 29 31 31 30 30 27 26 25 26 24 24 24 25 29 27 28 30 28 28 28 28 26 25 24 25 24 24 26 26 26 26 25 25 24 24 23 23 23 23 23 21 21 22
25 27 28 30 29 28 27 26 24 27 25 26 24 25 28 31 30 29 28 29 28 28 27 26 25 25 25 24 25 25 25 25 25 25 24 24 23 23 23 23 22 22 22 22
23 25 28 30 30 30 28 26 26 23 23 25 24 25 29 30 29 27 28 27 27 27 27 26 26 25 25 25 25 25 24 25 25 25 25 24 23 23 23 24 22 22 22 22
25 26 27 30 31 30 28 26 27 22 25 26 25 27 27 29 29 27 26 27 27 27 27 26 26 26 25 25 25 25 25 25 25 25 25 25 24 23 24 24 22 22 22 22
24 24 27 28 28 29 27 26 23 23 22 24 25 24 24 28 28 28 26 28 27 27 27 26 26 26 26 26 26 24 24 24 24 25 25 24 24 23 24 24 23 23 22 22
24 25 26 26 28 29 29 27 26 28 25 21 23 26 28 27 28 26 26 28 26 26 26 26 26 26 26 26 26 25 24 23 24 23 23 23 24 24 24 23 23 22 22 22
24 22 26 26 26 28 28 26 23 22 21 22 26 26 27 25 25 24 24 24 24 24 23 25 25 25 25 25 25 25 24 24 23 22 23 22 23 24 24 24 23 23 22 22
27 22 26 28 28 27 28 27 25 26 23 23 24 29 30 27 26 24 24 24 23 24 24 23 24 24 25 25 25 25 25 24 23 22 22 21 23 24 24 24 23 23 22 22
24 26 25 29 27 27 28 28 25 26 26 28 29 26 28 27 26 25 25 24 23 23 22 23 24 24 24 25 24 24 24 24 23 22 21 22 23 23 23 23 23 22 22 22
22 25 23 29 29 28 29 28 27 27 28 27 28 26 26 28 26 25 25 24 24 24 24 24 23 23 22 24 24 24 24 24 22 22 21 21 21 21 23 22 22 22 22 22
22 24 22 27 26 26 26 30 28 28 27 27 27 28 26 26 26 26 24 24 26 25 24 22 23 22 23 24 24 23 24 23 22 21 20 20 19 19 19 18 18 21 22 22
21 22 20 27 25 25 28 27 30 30 27 27 28 27 25 27 27 26 25 26 25 23 23 22 21 22 25 26 26 25 24 23 22 21 20 19 19 18 21 20 19 20 22 22
18 20 22 23 22 27 28 26 27 29 28 26 26 27 27 26 26 26 23 25 24 24 23 23 24 26 26 26 26 25 24 22 21 20 20 19 19 18 19 20 22 19 20 20
21 19 20 20 24 25 25 23 23 23 27 24 24 24 23 24 26 23 21 24 22 22 23 23 25 25 26 27 26 25 23 21 20 20 19 20 20 18 19 19 18 19 19 19
20 20 22 20 22 23 22 21 22 28 26 21 22 24 24 23 23 23 22 22 21 22 23 26 26 25 25 24 24 23 22 20 20 19 19 18 19 19 18 18 18 19 19 19
22 20 20 19 22 25 20 22 25 23 20 21 22 20 21 20 21 21 21 21 21 21 22 25 25 25 25 26 25 22 21 19 20 19 18 18 18 18 18 19 18 19 20 20
22 21 19 19 19 18 17 18 19 21 23 22 20 20 21 21 21 21 21 20 19 19 20 20 21 21 21 22 21 20 19 19 18 18 18 18 19 19 18 18 17 18 20 19
21 19 20 19 20 18 17 18 18 19 19 19 19 19 19 19 19 19 20 19 19 18 18 19 19 18 17 18 18 19 18 19 18 17 17 17 17 17 17 18 18 20 21 22
18 20 19 18 18 19 19 17 17 18 19 19 19 18 18 19 18 18 18 17 17 17 17 17 17 16 16 17 17 18 18 19 18 18 18 18 18 18 18 18 18 19 19 19
14 16 19 18 18 19 17 17 18 18 18 18 18 18 17 17 17 17 17 16 16 16 17 16 16 17 17 18 18 18 19 20 20 18 18 18 17 16 16 17 16 17 17 16

GFSCGP_925_temp_009.txt.gz
Temp
30 31 32 33 34 36 35 34 34 33 32 32 32 32 29 29 29 29 28 28 28 28 28 27 26 25 25 24 24 23 23 23 24 23 23 23 23 22 22 23 23 22 22 22
29 31 32 33 34 33 34 34 34 33 32 33 31 32 31 29 29 29 29 28 28 28 28 27 26 26 25 25 24 23 23 23 23 23 22 23 23 22 22 22 22 22 22 22
30 32 31 31 33 33 34 34 34 34 32 31 32 33 30 29 29 29 29 30 29 29 28 28 27 26 26 25 24 23 23 24 23 22 22 22 22 22 22 22 22 21 22 22
30 32 31 31 33 34 34 34 34 33 33 33 33 33 32 31 29 29 29 29 29 29 29 29 27 26 26 25 24 24 24 24 23 22 22 22 23 24 23 22 22 21 22 21
30 30 30 32 33 33 35 34 34 34 34 31 30 32 35 30 30 30 30 30 30 30 30 29 28 27 27 26 25 24 24 24 23 22 23 22 23 23 23 22 21 21 21 21
31 31 33 33 33 33 32 32 31 31 33 31 33 32 35 31 31 33 32 31 30 30 30 30 29 28 27 26 25 24 24 25 24 23 22 22 23 23 22 22 22 22 21 21
30 31 32 33 33 33 33 33 31 31 30 32 31 31 34 35 33 34 34 32 31 31 30 30 29 28 27 26 25 25 24 24 22 22 22 22 22 22 22 22 22 22 21 20
29 29 31 33 34 32 32 34 33 30 31 32 28 31 34 35 36 33 34 33 32 32 31 30 29 28 27 26 25 25 24 24 23 23 23 23 23 23 22 22 22 22 22 21
29 29 31 32 33 34 32 31 36 34 29 32 33 32 33 34 34 33 34 33 32 32 32 31 30 29 27 26 25 25 25 24 24 23 23 22 22 22 22 22 23 21 22 21
30 29 32 33 33 32 33 34 32 32 31 30 32 31 35 35 36 35 32 33 33 32 31 31 31 29 28 27 27 26 25 25 25 23 23 23 22 23 23 23 23 22 21 22
31 31 31 30 32 33 32 32 30 34 33 33 32 33 34 35 36 36 34 34 33 32 31 31 30 29 28 28 28 26 26 25 25 24 23 23 22 22 23 23 23 24 22 22
30 30 30 31 32 32 34 33 33 33 31 31 33 34 35 34 36 36 36 34 33 31 31 31 30 29 29 28 28 27 27 26 25 25 23 23 22 25 25 25 22 23 24 22
28 29 29 29 32 32 31 33 33 33 33 32 32 34 34 32 31 32 32 33 30 30 30 30 30 30 29 28 28 28 27 27 27 25 24 23 22 23 24 23 24 24 24 22
28 29 29 30 31 32 31 31 32 32 33 33 32 34 35 35 33 34 32 31 30 29 29 29 29 29 28 28 27 27 27 27 27 26 24 22 22 23 24 22 24 23 23 23
29 28 29 31 33 32 32 32 32 31 33 33 34 33 35 35 35 35 34 31 29 28 28 28 28 28 27 27 26 26 27 26 26 25 24 23 22 21 21 19 19 20 20 18
27 28 27 28 30 32 32 33 33 32 33 32 35 33 35 36 34 32 32 30 29 29 29 28 28 28 27 27 26 26 26 26 25 25 24 23 22 21 20 18 17 20 18 19
27 27 27 29 30 30 30 32 33 33 33 33 33 34 36 33 32 33 33 31 30 30 29 29 28 28 27 27 26 26 25 25 24 23 23 22 21 20 19 18 17 19 19 20
25 24 24 28 28 27 31 34 34 33 33 33 34 34 34 34 34 31 30 32 31 31 31 29 29 28 26 27 27 26 25 24 24 23 23 22 21 20 19 18 18 18 18 20
26 24 23 25 28 30 31 30 32 32 32 33 32 33 32 31 30 29 27 29 30 29 28 28 28 27 26 26 25 24 24 24 24 23 22 22 21 20 19 18 17 18 17 17
24 23 25 24 25 27 27 25 25 26 31 28 28 30 31 30 33 32 26 28 28 29 29 28 26 26 26 25 25 24 25 24 24 23 22 21 20 20 19 18 17 17 17 16
23 22 24 24 24 28 23 23 24 29 32 26 27 28 28 29 28 25 26 26 26 26 26 26 27 27 26 24 25 25 24 24 24 23 21 20 19 19 19 18 17 17 17 18
24 22 20 22 24 26 22 23 27 25 25 26 26 26 25 25 25 26 26 26 26 26 26 27 26 25 24 24 25 24 23 21 21 21 20 19 19 18 17 17 18 17 18 17
23 22 20 21 21 21 21 20 22 25 25 26 25 26 25 25 25 25 24 24 24 24 24 24 25 23 22 22 23 22 21 20 20 20 19 18 18 17 18 18 16 16 15 17
22 24 23 20 18 19 20 21 22 22 22 22 23 23 24 24 24 24 24 23 23 23 23 23 23 23 20 20 20 20 18 19 19 19 18 18 18 17 17 17 17 16 16 17
18 19 21 22 19 20 20 19 20 21 22 22 22 22 21 22 22 23 22 22 22 21 21 21 22 21 19 19 19 19 18 18 18 18 18 18 18 18 17 16 16 17 16 17
15 16 21 23 19 20 19 19 19 19 19 21 21 21 20 21 21 21 20 20 20 20 20 20 20 19 18 19 18 18 18 18 18 18 18 18 18 18 18 16 14 16 16 17

GFSCGP_925_temp_012.txt.gz
Temp
34 33 34 36 37 38 39 38 38 39 38 36 37 36 36 34 35 35 34 33 33 33 32 31 30 29 28 28 27 26 25 25 24 25 25 26 26 25 25 25 24 23 23 23
33 33 36 37 37 37 38 38 38 39 37 37 37 36 37 36 34 35 35 34 33 33 33 31 30 30 29 28 27 26 25 25 24 25 25 26 26 27 26 26 23 23 23 23
34 35 36 36 36 36 37 38 38 38 36 37 37 36 36 37 36 35 35 35 34 34 33 33 31 30 30 29 27 26 25 25 25 25 25 24 24 24 25 25 25 24 23 23
34 36 35 35 35 37 37 39 39 38 37 35 37 36 38 38 36 35 35 35 35 34 34 33 32 31 30 29 28 27 26 25 25 25 26 25 26 27 28 27 26 25 24 23
33 34 34 34 35 37 37 39 38 38 37 37 36 36 37 38 37 37 36 36 35 35 34 33 33 31 30 30 29 27 26 25 25 25 25 26 25 27 27 26 25 24 24 23
34 35 35 35 36 37 38 38 38 38 38 36 37 36 37 38 37 39 38 37 36 36 35 34 33 32 31 30 29 28 27 25 25 25 24 25 26 26 27 26 25 25 25 24
33 34 35 36 35 37 37 36 34 34 35 35 37 37 37 39 40 40 40 39 37 36 36 35 33 32 31 30 29 28 27 26 25 25 25 24 25 25 25 25 25 26 26 25
32 32 34 35 36 36 36 37 35 33 34 35 37 35 37 39 40 40 40 40 38 37 37 35 34 33 31 30 29 29 28 26 26 25 25 25 24 25 25 25 27 26 26 25
33 33 35 35 36 37 36 36 38 37 37 37 37 36 38 39 39 39 40 39 39 38 37 36 35 33 32 31 30 29 28 27 26 26 25 24 24 25 26 26 25 25 25 26
34 32 35 35 36 37 37 37 35 37 34 34 36 37 37 38 39 40 39 39 39 38 37 37 36 34 33 32 31 29 28 28 27 27 26 25 25 25 25 25 24 25 25 24
34 33 34 35 34 35 35 35 36 37 36 35 35 36 39 38 39 40 41 40 40 39 37 37 37 35 33 33 32 30 29 28 28 27 26 26 26 25 25 25 24 23 23 23
34 34 32 33 36 36 37 35 36 35 34 36 36 37 41 40 40 40 41 42 41 40 38 37 37 36 34 33 33 32 31 30 29 28 27 26 26 26 25 24 24 23 22 22
34 33 31 32 35 35 35 36 36 36 37 36 35 36 40 40 39 39 39 40 39 38 37 37 37 36 35 34 33 33 32 31 31 29 28 27 27 26 26 24 24 22 22 21
31 33 32 33 33 35 33 34 35 36 36 35 36 37 38 39 38 39 40 40 39 36 35 35 36 35 34 34 33 32 32 32 32 31 29 28 27 26 26 24 23 21 22 21
32 30 33 33 34 35 35 35 34 34 35 35 36 36 38 38 39 39 40 40 39 36 34 34 34 34 33 32 32 31 32 32 32 31 30 29 27 26 25 24 22 21 20 21
32 30 31 32 34 34 34 35 35 35 35 35 36 36 39 39 39 39 39 40 39 36 35 34 34 33 32 32 31 31 30 31 30 30 30 29 27 25 24 24 21 19 19 21
30 30 30 30 33 34 32 34 35 36 36 36 35 36 38 38 38 39 39 39 39 37 35 34 34 33 33 31 30 30 29 29 29 28 28 28 27 25 23 23 21 19 19 18
29 29 31 31 31 29 34 36 36 35 36 37 36 37 37 38 38 39 40 40 40 37 36 35 35 34 32 32 31 30 29 28 28 27 27 26 25 25 23 21 20 20 19 17
30 29 30 30 30 32 33 33 33 34 34 37 36 37 37 38 38 37 35 36 37 37 36 35 35 33 31 31 31 29 29 28 27 27 26 26 25 24 23 20 19 19 19 17
30 29 30 29 29 29 29 28 28 29 31 36 37 36 37 37 35 37 34 34 35 35 34 33 33 31 30 30 30 29 29 28 27 27 26 26 25 24 23 21 20 19 18 17
28 29 30 29 29 30 26 26 29 28 31 29 37 37 37 36 35 32 31 32 33 33 32 31 30 30 29 29 29 29 29 29 28 28 26 25 24 23 22 21 19 18 18 18
27 28 29 30 27 28 24 27 27 26 28 30 32 34 34 32 30 30 30 30 30 30 31 30 30 29 28 28 28 29 28 28 27 26 26 24 22 22 20 19 18 18 18 19
28 30 29 28 28 23 24 22 24 26 28 29 30 31 30 30 29 29 29 30 30 31 31 30 29 27 27 28 28 28 25 25 25 24 24 21 20 20 19 18 17 17 18 19
27 28 28 25 22 23 23 23 24 25 26 28 29 30 30 29 29 29 29 29 29 29 29 29 28 27 26 25 25 24 23 23 23 21 20 19 18 18 18 17 17 18 18 19
22 24 26 23 21 22 21 22 24 24 25 25 26 26 26 27 27 26 26 27 27 27 27 27 27 26 25 24 23 22 22 22 22 20 20 20 19 19 19 18 19 19 19 19
15 19 26 25 21 22 18 19 21 23 24 24 24 24 25 25 24 24 24 24 25 25 25 25 24 24 24 23 22 22 22 22 22 21 22 23 22 21 20 19 17 17 18 18

GFSCGP_925_temp_015.txt.gz
Temp
35 35 35 37 38 39 40 40 40 41 41 39 39 39 39 38 38 38 37 36 36 35 35 34 33 32 31 30 29 28 27 27 26 25 25 26 27 27 28 28 27 25 23 24
35 35 37 38 39 39 39 40 40 41 40 40 39 39 40 39 38 38 38 37 37 36 36 35 33 32 32 31 29 28 27 26 26 26 26 27 28 29 28 27 27 26 26 25
36 37 38 38 38 38 39 39 40 40 40 40 40 38 39 40 39 38 39 38 38 37 37 35 34 33 32 31 30 28 27 27 26 26 26 26 26 27 27 28 27 25 25 25
36 39 38 38 38 39 38 40 40 41 38 37 40 38 39 40 40 39 39 39 38 38 37 37 35 33 33 32 30 29 27 27 26 26 27 27 27 28 29 29 29 28 26 26
36 37 37 37 38 39 38 41 40 40 40 37 39 38 40 40 40 40 40 39 39 39 38 37 36 34 33 32 31 29 28 27 27 26 26 27 26 29 29 29 28 26 25 25
37 39 38 38 39 39 40 39 40 40 40 38 39 38 39 38 40 41 41 40 39 39 39 38 36 35 33 33 32 30 28 27 26 26 26 26 28 28 29 28 27 27 26 25
36 37 38 39 37 38 38 38 36 37 37 37 40 39 37 42 42 41 41 42 41 40 39 38 37 36 34 33 32 31 29 27 26 26 26 26 26 27 27 27 27 28 28 27
34 34 37 38 37 37 37 38 37 34 37 38 40 38 40 42 42 42 42 43 42 41 40 39 37 36 35 33 32 31 29 27 26 26 26 26 26 27 27 27 28 27 28 28
36 35 38 38 38 38 38 38 40 38 39 38 39 40 41 42 42 42 42 42 42 41 40 39 38 36 35 33 32 31 30 28 27 27 26 26 25 26 28 28 26 27 27 28
36 35 37 38 38 38 38 40 38 40 36 36 38 39 39 40 40 41 41 42 42 42 41 40 39 37 35 34 32 31 30 29 28 28 27 26 26 26 26 27 27 27 27 26
36 36 36 37 36 36 36 38 39 39 39 37 37 39 42 40 40 40 41 42 42 42 41 40 40 38 36 35 33 32 31 30 28 28 28 27 27 26 26 26 26 26 26 26
36 36 34 36 38 38 38 37 38 38 36 38 39 39 43 42 41 41 41 42 43 42 41 41 40 39 37 35 34 33 32 31 29 29 28 27 27 27 27 26 26 25 25 25
36 34 34 34 37 37 36 37 38 39 39 37 37 38 42 42 42 42 41 41 42 42 42 41 41 40 38 36 35 35 33 33 31 30 29 28 27 27 27 26 26 25 24 24
34 35 34 35 35 37 35 36 37 38 38 37 37 38 40 41 40 41 41 41 42 42 39 40 40 40 39 37 35 35 35 34 33 32 31 30 28 28 27 27 26 25 24 23
34 33 35 35 36 37 37 37 37 37 37 37 38 38 39 40 40 41 41 41 41 41 40 38 39 39 38 37 35 35 35 34 34 33 32 31 29 28 28 27 27 25 24 23
34 32 34 34 36 36 36 37 37 37 37 37 38 38 40 41 41 41 41 40 40 41 41 39 38 38 37 36 35 35 34 35 34 33 33 32 30 28 28 27 26 25 23 22
33 33 32 31 34 35 34 36 36 37 38 37 36 37 39 39 40 40 41 41 40 40 41 41 38 37 37 35 35 35 33 33 33 33 33 32 30 28 27 27 26 24 23 22
32 32 32 32 33 30 35 37 37 36 37 38 38 38 38 39 40 40 41 41 40 41 41 41 39 37 36 35 35 34 33 32 32 31 31 31 30 29 27 26 25 23 22 21
33 32 31 31 32 33 33 34 34 33 34 38 38 38 39 39 39 39 40 41 41 41 42 42 39 38 36 35 35 33 32 31 31 30 29 29 29 28 27 25 25 22 20 20
31 31 31 31 30 31 33 32 33 33 32 36 36 36 38 39 37 39 40 41 41 40 41 41 38 37 35 34 34 32 32 31 30 30 29 28 28 27 26 25 24 22 21 20
29 30 29 30 31 33 31 31 32 30 32 31 33 33 34 37 39 39 39 40 40 39 38 38 37 36 33 33 34 32 32 30 30 30 29 28 27 26 26 24 22 21 21 20
29 30 30 31 30 30 30 32 31 29 29 32 33 33 34 36 39 37 35 35 36 36 36 35 35 33 32 32 32 31 31 30 30 29 28 27 26 26 25 22 21 20 19 18
31 32 31 31 30 27 28 28 28 29 30 31 32 34 35 36 35 34 33 33 33 33 33 33 33 31 31 30 30 30 29 29 29 28 27 26 24 23 21 21 20 19 18 18
24 32 33 29 27 27 27 27 28 29 29 29 31 32 33 33 32 32 32 32 32 32 31 31 30 30 30 29 29 28 26 27 26 26 23 22 21 20 20 20 19 19 18 19
17 19 29 27 26 26 26 26 27 27 28 27 25 26 27 29 29 29 29 30 30 30 30 29 28 28 27 26 26 25 25 25 24 22 20 20 20 20 18 17 18 18 18 18
16 17 20 23 26 25 23 24 26 25 25 26 25 24 23 25 25 26 26 27 28 28 27 27 27 26 26 25 24 24 24 24 23 21 21 22 21 19 19 17 17 18 18 18

GFSCGP_925_temp_018.txt.gz
Temp
35 34 34 36 36 38 39 39 39 40 40 40 34 27 27 32 38 38 37 37 36 36 36 35 34 33 32 31 30 29 28 28 27 27 26 26 26 27 27 27 27 26 25 25
35 33 36 37 38 37 38 38 39 41 38 39 39 33 33 35 39 39 38 37 37 37 36 35 34 34 32 31 30 28 28 28 27 27 26 25 26 27 27 27 27 26 25 25
34 36 37 38 37 37 38 38 39 40 40 40 40 39 39 39 39 39 39 39 38 37 37 35 34 34 33 31 29 28 27 27 26 27 26 26 26 27 27 27 28 26 26 25
36 37 38 37 37 38 37 39 40 40 39 37 39 36 37 39 39 39 39 39 38 38 37 36 35 34 33 32 30 28 27 27 26 26 26 26 26 26 28 28 28 27 26 25
35 37 37 37 37 39 38 40 40 40 39 38 38 37 39 39 38 39 39 39 40 39 38 37 35 34 34 33 30 29 27 27 26 26 26 26 26 27 28 28 28 27 26 26
37 39 38 39 39 39 40 39 40 40 40 37 38 37 38 39 37 38 40 40 40 40 39 38 37 35 34 33 31 30 27 27 26 26 26 26 26 27 28 29 27 27 25 25
36 37 39 39 38 39 39 38 36 36 37 37 40 37 37 39 39 39 35 40 40 40 40 38 37 35 34 33 32 30 28 27 26 26 25 26 26 27 27 28 28 27 26 25
34 34 37 39 38 38 38 38 37 34 36 37 40 39 40 41 39 39 37 41 41 41 40 39 37 36 34 33 32 31 28 27 26 26 26 25 26 26 27 27 28 28 28 27
35 35 39 38 39 39 38 37 39 37 38 38 40 40 42 42 40 40 41 42 42 41 40 39 38 36 35 33 32 31 29 27 26 26 26 26 26 26 27 27 27 27 28 28
36 35 38 39 39 39 38 39 36 37 34 35 38 38 39 40 39 40 39 42 42 43 41 40 39 37 36 34 33 32 30 28 27 26 26 26 25 26 26 27 27 27 27 28
37 36 37 38 37 37 37 37 37 38 38 37 36 39 42 40 40 40 41 42 42 42 41 41 40 38 36 35 33 32 31 29 27 27 26 26 26 26 26 26 27 27 27 27
37 36 35 37 39 39 38 37 37 36 35 37 38 39 43 42 41 42 42 42 42 41 41 41 40 39 37 35 34 32 31 30 28 27 27 26 26 26 26 26 26 27 27 27
38 35 34 35 37 39 38 38 38 37 37 36 36 38 42 39 38 39 41 41 41 41 40 40 41 38 37 36 34 33 32 31 29 28 27 27 27 26 26 26 26 26 26 26
36 36 34 35 35 37 36 37 38 37 36 36 38 38 39 38 38 38 39 40 41 40 39 40 40 38 37 36 34 33 33 32 31 29 28 28 27 27 26 26 26 26 26 25
36 33 35 36 36 37 37 37 37 37 37 36 38 38 39 40 39 39 41 40 40 40 39 39 39 37 35 35 34 34 33 33 32 31 29 28 28 27 27 27 26 26 26 24
35 32 33 34 36 36 36 37 38 37 37 37 38 38 41 41 41 40 37 39 39 39 40 38 37 37 36 35 34 34 34 33 33 32 30 30 28 28 27 27 27 26 26 25
33 33 32 32 34 35 34 36 37 38 38 37 36 38 39 39 38 39 40 39 39 39 40 39 37 37 37 37 35 34 33 34 33 32 31 30 29 28 27 27 27 26 26 25
32 31 32 32 33 31 35 38 38 37 38 39 38 38 38 38 38 38 39 38 37 39 39 38 40 37 36 37 37 35 34 33 33 32 31 31 30 28 27 27 27 26 26 24
34 31 31 31 32 33 35 36 37 36 36 38 37 37 39 39 39 38 39 39 39 39 39 38 40 40 36 36 37 35 34 33 33 32 32 31 31 29 28 27 27 26 25 24
33 31 31 31 30 31 34 37 35 35 33 35 35 35 36 36 34 37 39 40 40 40 40 39 40 40 35 35 36 34 34 32 32 32 31 31 30 29 28 27 26 25 24 22
28 29 30 30 30 32 33 34 35 31 32 32 33 34 34 34 34 35 36 38 38 38 38 39 39 36 35 35 35 33 33 32 31 32 30 30 29 29 28 26 25 24 22 21
27 27 28 30 29 29 33 31 30 31 32 33 32 33 33 34 35 35 35 37 37 37 39 37 36 35 34 34 34 32 31 31 30 30 29 28 28 27 27 25 24 23 21 20
26 29 29 30 31 29 31 31 30 31 31 30 30 32 34 34 35 36 35 35 35 36 36 37 34 32 32 32 32 30 30 30 29 29 28 27 26 26 24 22 22 21 20 19
27 23 27 29 29 29 29 30 30 31 29 28 29 29 30 33 34 34 33 33 33 33 33 33 31 31 30 30 30 29 29 29 28 27 25 23 23 21 21 21 20 19 19 19
19 19 22 29 28 28 28 29 29 28 27 26 25 25 25 24 23 29 28 29 30 29 28 28 28 29 28 27 27 27 27 27 24 23 22 20 20 20 20 19 19 19 19 19
15 18 19 22 19 24 25 27 27 26 26 25 24 23 23 21 20 22 22 24 27 27 26 26 26 25 25 25 25 26 24 23 22 22 21 21 19 19 19 18 17 18 18 19

GFSCGP_925_temp_021.txt.gz
Temp
31 29 29 30 32 33 33 33 34 36 38 31 32 33 33 33 31 30 32 32 32 32 32 32 32 32 31 30 30 29 29 27 26 26 26 26 25 26 26 27 27 26 25 25
30 30 31 33 34 34 34 33 34 36 38 33 31 32 32 32 33 31 33 32 32 32 32 31 32 32 30 30 29 29 29 28 26 26 26 26 26 26 26 27 26 26 26 25
30 32 34 34 33 34 33 33 34 34 37 35 31 30 29 32 34 33 34 34 33 32 32 31 31 31 30 29 28 29 29 28 27 26 26 26 26 26 26 26 26 26 26 26
31 33 34 33 33 34 32 35 36 36 35 33 33 31 29 32 34 34 34 34 34 33 33 32 31 31 31 29 29 28 28 28 27 26 26 26 26 25 26 26 26 27 26 25
31 33 33 33 34 35 34 35 36 36 35 34 35 33 31 32 33 33 35 35 35 34 33 32 31 32 31 29 28 28 28 28 28 27 26 26 26 26 26 27 27 26 25 25
32 34 34 34 35 36 36 35 35 35 34 32 33 34 31 33 34 35 36 35 35 35 34 33 33 32 31 29 28 27 26 27 27 27 26 26 25 26 26 27 27 27 26 25
32 33 35 36 34 34 35 31 31 31 31 30 32 33 31 35 35 36 36 36 36 36 35 34 32 31 31 30 28 26 26 25 26 26 26 26 26 26 27 27 27 25 25 25
29 30 33 35 34 33 33 33 31 28 30 31 32 32 34 37 37 38 38 36 37 37 36 34 32 32 31 30 28 27 25 25 25 25 25 26 26 26 27 27 26 26 26 25
30 30 35 36 36 35 32 32 34 30 31 30 33 34 36 36 37 37 36 37 37 36 36 35 33 33 31 31 28 28 25 25 25 25 25 26 26 26 26 27 27 27 27 27
31 29 33 35 36 36 34 35 31 33 30 30 33 32 33 34 36 34 34 34 36 35 37 35 34 33 31 31 30 28 26 25 25 25 25 25 26 26 26 26 27 27 27 27
32 31 32 34 34 33 33 33 32 31 32 31 30 32 34 34 35 34 36 37 35 37 37 36 35 34 32 31 30 29 27 26 25 25 25 25 25 25 25 26 26 27 27 27
33 31 30 32 34 36 35 33 31 30 28 29 31 32 35 36 35 37 37 36 34 34 37 36 35 34 32 31 31 29 27 26 26 25 25 25 25 25 25 25 26 27 27 27
34 32 29 30 32 34 34 34 33 33 28 28 27 32 36 36 36 37 36 34 35 34 33 36 35 34 32 32 31 30 28 26 26 25 25 25 25 24 24 25 25 26 27 27
29 33 32 30 31 32 32 34 34 33 31 31 31 32 33 36 34 36 35 35 37 34 32 34 35 34 33 32 31 31 29 28 27 26 25 25 25 25 25 24 24 25 26 26
28 30 32 33 33 33 34 34 35 33 33 31 32 32 32 33 32 32 34 33 35 36 32 31 34 33 32 32 31 31 30 30 28 27 26 26 25 25 25 25 24 24 25 25
21 26 29 31 34 34 34 35 35 35 35 33 33 32 33 33 32 33 33 35 35 34 33 32 32 33 32 32 31 31 30 30 30 28 27 26 26 25 25 25 24 24 24 24
20 23 26 28 31 31 31 33 34 34 35 34 32 34 33 33 34 34 34 34 35 34 33 32 30 32 32 32 32 31 30 30 30 29 27 27 26 26 25 25 25 25 24 24
22 22 24 27 29 27 31 33 35 34 34 34 33 32 31 31 31 32 34 35 36 34 33 33 32 30 31 33 32 31 31 30 30 29 28 27 26 26 26 25 25 25 25 24
25 24 25 25 27 29 32 32 34 33 33 35 33 33 34 31 33 33 32 32 32 35 35 32 33 33 33 33 32 31 30 29 29 29 28 27 27 26 26 25 25 25 25 24
26 26 25 25 26 27 30 33 34 33 29 31 30 30 30 30 29 28 29 32 32 32 33 35 36 34 32 33 32 31 30 30 29 29 29 28 27 27 26 25 25 25 25 24
24 25 26 26 26 28 30 33 33 29 27 29 29 29 29 29 28 29 29 30 31 31 29 34 34 30 33 34 32 31 31 30 31 30 29 28 28 27 26 25 25 25 25 24
19 16 21 25 26 26 30 30 30 26 28 28 29 30 31 31 30 30 29 29 29 33 32 30 29 29 34 32 31 30 30 31 31 30 29 29 28 26 26 25 25 26 23 22
19 19 18 24 25 25 26 26 27 26 26 25 25 25 27 26 24 24 26 27 27 28 28 28 26 26 28 31 31 28 28 30 30 29 28 28 27 25 25 25 22 21 22 20
19 18 19 21 24 26 26 27 25 24 23 23 24 24 23 21 22 22 22 24 25 24 25 26 26 25 24 28 28 28 28 29 28 26 25 24 24 23 22 21 21 20 19 19
16 17 18 20 20 19 24 24 23 23 23 22 21 21 21 20 20 20 19 20 22 22 23 24 24 24 24 25 26 26 26 26 23 22 21 21 20 20 20 20 19 20 20 20
15 16 17 18 16 16 19 20 22 22 22 22 21 20 19 19 18 19 18 19 20 21 21 21 23 23 24 23 22 22 22 23 22 20 20 19 19 18 18 18 17 19 19 19

GFSCGP_925_temp_024.txt.gz
Temp
28 27 27 27 27 29 30 30 29 32 34 31 31 31 31 31 30 30 29 29 29 30 30 30 28 28 27 26 26 26 25 26 26 26 26 26 26 26 26 25 26 26 26 25
27 27 27 29 29 30 30 30 30 31 33 31 30 32 32 31 31 30 30 30 30 30 30 30 28 28 27 26 26 25 26 26 26 26 26 26 26 26 27 26 26 26 26 25
27 28 30 30 30 30 30 30 31 30 32 31 30 30 31 31 31 31 31 31 30 30 30 29 30 28 28 26 26 25 26 26 26 26 26 25 26 26 25 26 26 26 26 25
27 30 30 30 30 30 26 32 32 32 31 29 31 28 29 30 29 30 31 31 31 31 31 30 30 29 28 27 26 26 25 26 26 26 25 25 25 25 25 26 26 26 26 25
28 29 30 30 31 31 30 31 31 32 31 30 31 28 28 30 30 30 30 32 31 31 31 30 30 30 29 28 27 26 26 27 26 26 25 25 25 26 26 26 26 25 25 25
29 31 30 31 32 32 32 31 30 31 30 27 30 31 28 29 31 32 32 32 32 32 31 31 31 31 30 28 27 26 26 26 27 26 26 26 25 26 26 26 25 25 25 25
30 30 31 32 29 30 30 28 27 28 28 28 29 28 31 31 32 34 34 33 33 32 32 31 30 30 30 28 27 26 26 25 25 26 26 26 26 26 26 26 25 25 25 25
27 27 30 31 30 30 28 29 28 26 26 27 28 28 32 33 34 34 36 34 34 33 33 32 31 30 30 29 27 26 25 25 25 25 25 26 26 26 26 26 25 26 26 25
24 28 31 32 32 32 29 28 29 26 26 26 28 30 31 32 33 34 34 34 34 34 34 33 32 31 30 29 27 26 25 25 25 25 25 25 26 26 25 26 26 26 26 26
28 26 29 32 32 32 30 29 29 24 28 28 28 29 31 31 31 32 34 35 34 34 34 34 32 31 30 30 27 26 25 26 25 25 25 25 25 25 26 26 25 25 26 26
30 27 29 30 30 30 30 30 28 28 28 29 26 30 30 31 30 30 33 35 35 34 34 34 33 32 31 30 28 26 25 26 25 24 24 24 25 25 25 26 26 26 26 26
28 28 28 29 30 32 32 30 28 29 26 26 31 31 34 32 31 31 32 35 36 35 34 34 34 32 31 30 28 27 25 25 25 24 24 24 24 24 24 25 26 26 26 26
22 25 27 26 27 28 30 31 31 24 24 29 26 29 31 31 32 32 33 34 33 32 31 32 33 32 31 30 29 28 26 26 25 25 24 24 24 24 24 25 25 25 26 26
19 22 26 28 29 30 29 31 31 31 31 29 30 30 31 31 32 30 31 32 32 31 31 34 33 32 31 30 30 28 27 26 25 25 25 24 24 24 24 25 25 24 25 26
15 17 24 25 28 32 31 31 32 30 32 31 32 27 28 29 29 31 32 30 31 32 29 33 32 32 30 30 30 29 28 26 26 25 25 24 24 24 24 24 24 24 24 25
14 16 18 23 28 32 31 32 32 32 32 32 29 29 29 30 27 30 31 33 31 36 36 32 34 33 31 30 30 29 28 27 26 25 25 25 24 24 24 24 23 23 23 24
13 15 17 19 27 31 30 32 31 31 32 32 30 30 28 30 30 29 31 29 29 30 31 29 32 32 32 31 30 29 29 27 26 26 25 25 24 24 24 24 23 23 23 23
16 17 17 19 22 27 31 33 33 30 31 31 32 31 29 31 31 29 29 29 31 30 31 28 32 32 32 32 31 30 29 28 27 26 26 25 24 24 24 23 23 23 23 23
18 18 19 19 21 27 31 30 31 29 30 30 29 30 30 30 28 29 31 31 31 32 30 28 30 32 32 32 31 30 29 28 28 27 26 25 25 24 24 23 23 23 23 22
22 21 20 21 22 24 29 32 30 30 28 29 28 27 29 28 26 25 27 32 33 33 29 29 29 30 31 31 31 30 29 28 28 28 27 26 25 25 24 24 24 23 23 23
18 19 19 21 22 23 27 30 31 29 27 28 27 27 27 26 25 27 28 30 31 31 30 29 31 28 31 31 31 29 29 28 28 28 28 27 26 25 25 24 24 24 23 23
17 17 18 21 21 24 22 25 29 26 25 26 27 27 25 23 23 23 24 26 27 28 30 32 26 27 31 31 30 29 29 29 29 28 28 26 25 25 25 24 24 24 23 22
16 17 18 18 18 19 20 20 22 23 22 23 22 23 23 22 21 22 21 22 22 22 22 23 26 27 29 29 30 29 29 29 29 28 27 26 25 25 25 24 23 22 22 21
17 17 17 18 18 17 16 17 20 20 20 20 20 20 21 20 20 20 20 20 21 21 21 22 22 22 23 27 29 30 30 29 28 26 26 25 25 24 23 23 22 21 21 20
16 17 17 17 17 17 17 16 17 19 20 19 19 18 18 18 17 18 18 18 19 20 20 21 21 21 22 22 26 27 26 27 26 23 23 23 22 22 20 20 20 20 20 20
14 16 17 17 16 15 15 17 19 19 19 19 19 18 17 17 16 17 16 16 17 18 20 20 21 20 20 21 21 23 24 24 22 22 20 19 18 17 16 15 17 18 20 20

GFSCGP_925_temp_027.txt.gz
Temp
25 25 23 25 25 27 29 29 28 30 32 30 29 28 29 29 29 28 27 27 27 27 27 27 27 26 26 25 24 24 23 24 24 23 24 24 24 25 25 25 25 26 25 25
25 25 26 27 26 27 28 28 28 29 31 30 29 29 29 29 29 29 28 28 27 27 27 27 27 27 26 25 25 24 24 24 24 24 25 24 25 25 26 26 26 25 25 25
26 26 27 28 27 27 27 27 29 29 30 30 28 28 28 29 29 29 29 29 29 28 28 27 27 27 27 25 25 24 24 25 25 25 25 24 25 25 25 25 25 25 25 25
25 27 28 27 27 27 25 28 30 30 29 28 29 26 27 28 28 29 28 28 29 29 29 29 27 27 27 26 25 25 24 24 25 25 24 24 24 24 25 25 26 26 25 25
26 26 28 27 29 27 28 30 29 30 28 28 29 27 26 28 28 28 29 29 29 29 29 29 28 27 27 26 25 25 24 24 25 25 24 24 24 25 26 26 25 26 26 26
28 28 29 28 29 29 30 30 28 28 25 25 29 27 29 27 29 30 29 30 30 30 29 29 30 28 27 27 25 25 24 24 24 25 24 24 24 25 25 25 25 25 25 25
27 28 28 29 28 28 28 25 24 24 24 27 27 26 30 29 31 32 31 30 31 30 30 30 29 29 28 27 26 25 24 23 23 24 24 24 24 25 25 25 25 25 25 25
25 25 28 28 28 27 25 26 21 24 23 27 26 26 28 32 31 32 33 33 32 31 31 30 30 29 29 27 26 25 24 24 23 23 23 24 25 25 25 26 26 26 26 25
24 25 28 30 29 30 27 26 27 25 24 24 25 27 29 30 30 30 30 32 31 31 31 31 30 30 30 28 27 26 24 24 23 23 24 23 24 24 24 25 26 26 26 26
25 25 26 29 29 28 29 26 28 20 25 25 25 26 28 28 31 28 30 30 32 32 31 32 31 31 30 29 27 26 25 25 24 24 24 24 25 25 25 26 26 26 26 25
24 24 27 27 27 28 27 27 26 24 23 27 25 28 29 29 29 28 28 31 32 31 32 32 32 32 31 30 28 26 26 25 25 24 24 24 24 24 24 25 26 26 25 25
20 20 26 27 27 30 29 29 24 24 25 24 29 28 31 29 30 28 29 29 31 33 32 33 33 32 31 30 28 26 26 25 25 25 24 24 24 23 24 25 26 26 26 25
17 17 22 24 26 27 27 28 29 27 24 28 27 27 27 29 29 29 29 29 28 31 32 32 32 31 30 30 29 27 26 25 25 25 24 24 24 23 23 25 24 25 25 25
15 15 19 22 24 26 26 28 28 28 27 29 29 29 30 29 28 28 29 29 29 29 29 29 29 30 30 30 29 27 26 26 26 25 24 24 24 23 23 24 24 24 25 25
13 13 17 20 20 23 25 27 29 27 29 29 30 26 28 27 27 27 28 28 28 28 29 30 31 30 29 30 29 27 27 26 26 25 24 24 24 24 23 24 24 24 23 24
12 14 14 18 22 24 25 27 28 30 30 28 29 26 27 29 28 29 29 29 29 27 29 30 31 30 29 30 28 28 27 25 25 25 24 24 24 24 23 23 23 23 23 23
12 13 14 15 19 21 24 27 29 29 30 30 29 29 27 28 27 27 27 27 28 28 28 29 31 31 31 30 30 28 27 26 25 25 25 24 24 24 23 23 23 22 22 22
12 13 14 14 17 21 27 29 30 30 30 28 29 28 27 28 30 28 27 28 27 28 27 28 28 28 31 31 30 29 28 26 25 25 25 24 24 24 23 23 23 22 22 22
14 14 14 16 16 20 26 28 29 28 28 28 29 28 28 27 29 29 27 26 26 27 27 29 29 30 31 31 30 29 28 26 25 25 25 24 24 24 23 23 23 22 22 22
14 15 17 16 17 20 24 21 22 23 29 28 27 27 27 26 26 29 28 28 28 27 27 28 28 29 29 30 30 29 28 27 25 25 25 25 24 24 23 23 23 23 22 22
13 14 15 16 18 19 19 19 21 24 29 26 26 27 24 26 27 26 26 28 29 27 26 29 27 25 28 30 29 28 28 27 27 26 26 25 25 24 24 23 23 22 22 22
15 16 15 16 18 17 18 19 19 18 18 23 24 24 24 23 23 24 25 24 24 24 24 24 24 24 28 29 29 28 27 28 28 27 26 25 25 24 24 23 23 22 22 22
14 15 15 18 18 17 18 18 17 17 17 19 23 22 23 22 22 22 21 21 21 21 21 21 21 20 22 25 27 28 28 28 28 27 27 26 25 24 24 23 22 22 22 22
14 14 16 18 18 17 18 18 17 17 17 17 18 19 21 21 20 19 20 20 20 20 20 21 21 21 21 21 24 25 27 28 27 26 26 26 25 24 24 23 22 22 22 22
14 15 16 17 17 18 17 17 17 17 18 18 17 17 16 17 16 17 17 17 18 19 19 20 19 19 20 21 20 21 22 24 26 26 26 26 24 24 23 21 22 22 22 22
14 15 16 17 15 15 15 15 16 17 17 17 17 17 16 16 16 16 16 16 17 18 18 19 19 20 20 20 21 22 23 23 21 23 24 23 21 18 16 17 17 20 20 20

GFSCGP_925_temp_030.txt.gz
Temp
23 22 22 23 24 26 26 27 28 29 31 29 28 28 26 27 27 26 25 25 25 25 25 25 25 25 24 23 23 23 23 23 23 22 22 22 23 23 24 25 26 26 26 25
22 23 24 24 24 25 26 26 26 28 29 30 29 28 26 27 27 27 26 26 25 26 25 25 25 25 24 24 23 23 24 24 24 24 24 23 24 24 24 25 25 25 25 25
25 24 25 26 24 25 24 25 26 28 30 29 28 26 26 27 27 28 27 27 26 26 26 25 25 25 25 24 23 23 24 24 24 24 23 22 23 24 24 24 25 25 25 25
23 26 26 24 25 25 22 25 28 28 27 26 28 25 26 26 27 27 27 27 27 27 27 26 26 26 25 25 24 24 23 23 24 24 23 23 23 22 23 24 25 25 25 25
24 24 26 26 26 25 27 27 27 28 27 27 27 26 25 25 25 27 27 27 28 28 27 27 26 26 26 26 24 24 24 24 24 24 24 23 23 24 24 24 25 25 25 25
25 25 27 26 27 26 27 28 24 23 22 24 26 26 24 24 27 27 28 28 28 28 28 28 28 27 27 26 25 24 23 23 23 23 24 23 23 23 24 24 25 25 25 25
26 26 27 27 26 26 27 23 22 23 23 25 24 25 29 26 28 29 29 29 29 29 28 28 27 26 26 26 25 24 23 23 23 23 23 23 24 24 24 25 25 25 25 25
24 24 26 26 26 25 24 23 20 22 22 25 23 25 26 29 28 30 30 30 30 29 29 29 28 28 26 26 25 24 23 23 23 23 23 24 24 24 24 25 25 26 26 26
22 24 27 28 27 28 23 25 24 22 22 22 23 25 28 29 28 28 30 30 30 30 30 29 29 29 28 27 26 24 24 23 23 23 23 23 23 23 23 24 25 26 26 26
25 24 25 28 28 27 25 24 25 19 24 23 23 25 26 26 29 28 27 29 30 30 30 30 29 29 29 28 26 25 25 24 23 23 23 23 23 24 24 24 25 26 26 25
18 23 26 25 26 27 25 24 23 23 20 23 22 25 24 27 27 30 29 29 30 29 30 30 30 30 29 29 27 26 25 24 24 23 23 23 23 23 23 23 25 26 26 25
17 17 22 24 27 28 29 27 23 24 23 20 21 26 28 27 28 27 28 27 27 28 29 30 30 30 30 29 28 26 25 25 24 24 23 23 23 23 23 23 24 26 26 25
16 16 20 23 25 26 25 26 24 27 21 25 25 26 31 28 28 28 27 26 26 26 27 28 28 29 29 29 28 27 26 25 25 24 23 23 23 22 23 23 24 25 26 25
15 14 17 19 21 20 21 25 25 26 26 27 26 26 28 28 27 28 26 26 26 26 26 26 27 29 29 29 28 27 26 26 25 25 24 23 23 23 23 23 23 24 26 25
13 15 16 17 18 19 21 22 23 24 27 27 28 28 27 26 25 27 27 25 27 27 26 25 26 27 26 28 28 27 26 26 25 25 24 24 23 23 23 23 23 23 24 25
11 15 14 16 19 20 20 22 24 25 25 25 27 26 25 27 25 26 26 26 26 26 26 26 26 27 26 27 27 27 26 25 25 25 24 24 24 23 23 23 23 23 23 23
11 12 14 15 17 18 20 24 24 24 25 26 25 26 27 26 25 26 27 26 26 26 25 25 25 27 27 28 28 27 26 26 25 25 24 24 24 23 23 23 22 23 22 23
11 11 12 13 16 18 23 22 24 26 27 26 26 27 27 28 29 28 28 29 27 26 25 24 26 27 29 29 29 28 27 26 25 25 24 24 23 23 23 22 22 22 22 22
12 11 12 14 14 19 21 21 20 19 21 26 27 27 26 27 26 27 25 24 26 26 24 24 26 28 28 30 30 29 27 26 25 24 24 24 23 23 23 22 22 22 22 22
12 13 13 12 15 17 21 19 20 20 19 21 22 27 28 24 25 28 26 25 24 25 24 24 26 27 28 29 29 28 26 25 24 24 24 24 23 23 23 23 23 22 22 22
10 11 11 13 15 16 19 18 19 22 23 18 18 18 24 26 29 29 25 26 25 25 26 25 25 23 24 27 28 26 26 25 25 25 24 24 24 23 23 23 23 23 22 22
10 11 10 11 13 15 19 19 21 18 17 18 18 18 19 22 23 25 24 23 23 22 22 21 20 19 24 26 27 25 24 26 26 25 24 24 24 23 23 23 23 22 22 22
11 12 13 14 15 15 17 17 17 16 18 18 17 17 19 22 22 22 21 20 20 20 20 20 20 21 21 23 25 24 23 26 27 26 25 24 24 23 24 23 22 22 22 22
12 12 13 14 16 17 17 16 16 17 17 17 17 17 19 20 19 20 20 20 20 19 20 20 21 20 19 20 21 21 23 25 26 26 26 25 24 24 23 23 22 22 22 22
10 10 12 13 16 16 16 16 15 17 17 17 17 16 16 18 17 18 18 18 18 18 18 19 18 17 17 20 21 22 22 23 22 23 24 24 25 24 23 23 22 22 22 22
9 10 10 12 15 16 15 14 15 16 16 16 16 17 16 16 16 17 16 17 18 17 17 18 18 18 17 18 18 18 20 21 22 20 21 23 23 22 20 18 19 21 22 22

GFSCGP_925_temp_033.txt.gz
Temp
26 26 27 28 28 29 29 30 31 32 33 32 33 34 32 31 31 30 29 28 28 28 28 27 26 25 24 24 23 22 22 21 21 21 21 22 22 22 22 22 24 24 25 25
25 26 28 28 27 28 29 29 31 31 32 32 33 33 33 31 30 31 29 29 29 29 28 27 26 26 25 24 23 22 22 22 22 22 22 23 23 23 23 23 24 25 25 25
27 29 29 27 27 27 28 29 30 31 32 32 32 33 32 31 31 31 30 31 29 30 29 28 27 26 26 25 23 23 22 22 22 22 22 21 22 22 23 23 23 24 25 25
28 30 28 27 28 28 28 29 30 30 30 31 32 32 31 32 30 30 30 30 30 30 30 29 28 27 26 26 24 23 23 22 22 22 22 22 24 24 24 24 24 24 25 25
28 28 27 27 28 28 29 30 29 30 31 31 31 31 34 30 31 31 31 31 30 31 30 29 29 28 27 26 25 24 23 23 23 22 23 23 23 24 25 24 23 24 24 25
30 28 29 29 29 29 30 29 30 29 31 29 31 31 33 33 32 33 32 32 31 31 31 30 29 28 27 27 26 24 23 22 22 22 22 23 23 24 24 23 24 24 24 24
28 28 29 30 29 29 30 30 29 28 29 29 33 30 32 34 34 35 34 32 32 31 31 31 30 29 27 27 26 25 23 23 22 22 22 22 23 23 23 23 24 24 24 24
28 27 29 30 30 29 29 30 30 28 30 31 30 30 33 34 35 34 35 35 33 32 32 31 31 30 28 27 26 25 24 23 23 23 23 23 23 23 23 24 24 24 25 24
28 29 29 29 30 31 29 29 32 30 27 29 32 32 33 33 34 35 35 35 34 33 32 32 31 30 29 28 27 26 25 24 23 23 23 22 23 23 24 24 23 24 24 24
28 28 30 30 31 31 29 31 28 30 28 28 31 30 33 33 34 33 34 35 34 34 33 33 32 31 30 28 27 26 25 24 24 23 23 23 23 23 23 23 23 24 24 24
24 27 27 29 29 30 28 29 30 31 30 30 30 32 32 33 33 35 35 35 35 34 34 33 33 32 30 30 28 27 26 25 24 23 23 23 23 23 23 23 23 23 24 25
20 25 28 28 31 32 31 30 30 29 28 29 31 32 33 33 34 33 35 35 35 35 34 33 34 33 31 30 29 28 27 26 25 25 24 23 23 23 23 23 23 23 23 24
20 22 26 27 29 29 30 31 30 31 31 29 29 31 34 32 32 34 33 33 32 32 32 32 33 33 32 31 30 29 27 27 26 25 24 24 24 23 23 23 23 23 23 24
19 20 24 28 28 24 25 28 30 31 30 30 30 32 33 33 32 33 33 33 33 32 32 32 32 32 32 31 30 29 28 28 27 26 25 25 24 24 24 23 23 23 23 23
19 20 20 21 21 22 23 24 25 27 30 30 31 31 32 32 33 33 34 33 32 32 32 31 31 30 29 30 29 28 28 27 28 26 26 25 24 24 24 23 23 23 23 23
17 19 19 20 22 23 23 24 24 25 26 27 29 30 32 31 32 32 34 34 33 32 33 32 31 30 29 29 28 28 28 27 27 26 26 25 25 24 23 23 23 23 23 23
16 18 19 20 21 22 23 24 25 26 27 28 27 29 31 31 31 31 31 33 33 32 32 32 32 31 30 29 29 28 27 27 26 26 25 25 24 24 23 23 23 23 23 23
15 16 18 20 20 20 26 25 26 27 28 29 29 29 30 31 32 32 32 33 33 34 34 33 33 32 30 31 31 29 28 26 26 26 25 25 24 24 23 23 23 23 23 23
14 16 17 19 20 22 23 25 25 25 27 27 28 29 31 32 32 31 32 32 32 33 32 32 33 31 30 29 29 29 28 26 26 26 25 25 24 24 24 23 23 23 23 23
15 15 16 18 19 20 24 25 25 23 24 23 23 25 27 31 31 32 34 32 32 32 32 31 30 29 29 28 29 28 28 27 26 26 25 25 24 24 24 24 23 23 23 23
13 14 14 16 17 20 23 23 22 23 26 23 23 23 23 24 28 31 32 31 30 31 29 28 29 29 27 27 28 28 28 27 27 27 26 25 24 24 24 24 23 23 23 24
15 14 14 15 16 16 22 24 22 23 22 22 23 23 22 22 23 24 26 29 28 28 27 26 26 26 24 25 27 28 27 27 27 26 26 25 24 24 24 23 23 23 23 23
13 15 16 16 18 19 20 20 23 22 21 22 22 23 22 21 22 23 27 27 27 27 26 26 26 24 24 24 26 26 25 25 25 25 25 25 24 24 24 23 23 23 23 24
14 15 14 15 17 18 19 20 20 21 21 21 21 21 20 20 22 25 26 25 25 22 24 25 25 24 23 22 23 23 24 25 25 25 25 25 24 24 24 24 23 23 24 24
14 14 14 14 15 15 16 18 20 21 21 21 19 19 18 21 23 24 24 24 24 23 23 23 23 23 22 21 21 21 22 24 25 25 25 25 25 24 24 24 24 25 25 24
12 13 13 13 16 16 17 19 21 19 21 19 17 18 18 20 20 22 22 22 22 22 22 22 21 21 20 20 20 20 20 22 23 23 25 26 26 26 25 24 21 23 24 24

GFSCGP_925_temp_036.txt.gz
Temp
30 29 30 32 33 34 35 35 35 36 37 36 37 37 38 37 36 35 34 33 33 32 32 30 29 29 28 27 26 25 24 24 24 24 24 25 25 26 25 25 25 24 24 24
30 29 32 33 33 32 33 33 35 36 37 35 36 37 38 37 36 36 35 34 34 33 33 31 30 29 28 27 26 25 24 24 23 24 25 26 26 26 26 26 25 24 24 24
31 32 33 32 32 31 32 33 34 35 35 36 36 36 37 37 37 36 36 35 35 34 33 32 31 30 29 28 27 26 25 24 24 25 24 24 25 25 26 26 26 25 24 24
32 33 32 32 31 32 32 34 34 34 34 34 37 35 37 38 37 36 37 36 36 34 34 33 32 30 30 29 27 26 25 24 24 24 25 25 26 27 27 27 27 27 25 25
31 32 32 31 32 33 32 35 33 33 34 34 35 35 36 38 37 37 37 37 36 36 35 34 33 31 31 29 28 27 25 24 25 24 25 25 25 27 27 27 27 26 25 25
32 34 33 33 33 33 33 33 33 33 34 33 35 36 36 38 37 38 38 38 37 36 36 35 33 32 31 30 29 28 26 24 24 24 24 25 26 26 27 27 27 27 26 26
31 32 33 33 32 33 32 32 32 32 32 33 36 35 36 38 39 38 39 39 37 36 36 35 34 33 32 31 30 29 27 25 25 25 25 24 25 25 26 26 26 27 27 27
30 30 32 33 33 32 32 33 33 31 33 34 35 34 36 38 39 38 39 40 39 37 36 36 35 33 32 31 30 29 27 26 25 25 24 24 24 25 26 26 27 27 28 28
32 32 34 33 33 34 32 32 35 35 35 35 37 36 37 38 38 38 39 40 40 38 37 36 36 34 33 31 30 29 28 26 26 26 25 24 24 25 27 26 26 27 27 28
32 32 34 33 33 34 34 34 33 34 32 32 35 35 36 37 36 38 38 39 40 39 38 37 37 36 34 32 31 29 28 27 26 26 26 25 25 24 25 26 26 26 27 26
30 32 33 33 32 33 33 33 33 35 35 34 34 36 38 37 37 37 38 39 40 40 39 38 38 36 35 34 32 31 29 28 27 27 26 26 26 25 25 25 25 26 26 26
29 31 32 32 34 35 34 33 33 33 32 34 35 37 38 38 38 38 39 39 40 40 40 40 39 38 36 35 33 32 31 29 28 28 26 26 26 26 26 25 25 25 25 26
27 28 30 32 33 33 33 34 34 34 35 33 33 35 37 36 36 36 37 38 38 38 38 38 39 38 38 36 34 33 32 31 30 28 28 27 27 26 26 25 25 25 25 25
21 28 30 31 32 33 32 33 34 34 34 34 34 35 36 36 36 36 37 37 38 37 37 37 37 38 38 36 35 33 33 32 31 30 29 28 27 27 26 26 25 25 25 25
23 26 25 29 27 27 32 33 33 33 33 33 35 35 36 36 36 36 37 37 37 37 37 37 36 36 35 35 34 33 32 32 32 31 30 29 27 27 27 26 25 25 25 25
22 24 24 25 26 26 27 29 31 33 34 33 34 34 37 36 36 36 35 35 35 36 37 38 37 36 35 34 33 33 31 32 31 31 30 29 28 27 26 26 25 25 25 25
20 22 23 25 27 26 26 28 29 30 31 32 32 33 34 34 34 34 35 35 36 36 36 37 37 37 37 36 34 33 32 31 30 30 29 29 28 27 26 26 25 25 25 25
19 20 22 25 25 23 29 31 31 30 31 31 32 32 33 33 34 34 35 35 36 37 37 37 38 39 37 36 37 35 33 30 30 29 29 28 27 27 26 26 25 25 25 25
19 20 21 22 24 27 28 28 28 28 30 32 32 32 33 33 34 33 35 36 36 36 37 37 38 38 37 36 35 35 34 31 29 29 28 28 27 27 26 26 25 25 25 25
20 19 20 22 21 23 27 29 29 28 27 31 29 30 30 31 32 34 36 36 37 37 36 36 36 36 36 34 33 33 33 32 29 29 28 28 27 27 26 26 25 25 25 25
19 18 18 20 21 24 27 26 26 25 27 28 28 28 28 28 30 30 30 30 31 32 33 33 34 33 34 33 33 33 33 32 31 29 29 28 27 27 26 26 25 25 25 26
19 18 19 19 20 21 26 26 25 27 27 27 26 27 27 27 28 28 28 28 29 30 32 34 32 32 32 31 31 31 31 31 30 29 29 28 27 27 27 26 25 25 25 25
17 19 20 21 21 23 24 24 24 24 23 24 25 26 26 26 27 27 28 28 29 31 32 32 32 31 30 29 30 30 29 29 29 29 28 28 27 26 27 26 25 25 25 26
18 19 18 18 20 20 21 22 22 23 23 24 25 25 26 26 26 26 27 29 30 31 30 31 31 30 29 28 29 29 28 27 28 28 28 27 27 26 26 27 26 27 27 27
18 18 18 18 19 19 20 21 21 21 22 23 23 24 25 25 24 25 25 28 30 29 29 29 29 28 26 26 26 27 27 27 28 27 28 28 28 26 27 27 28 28 28 28
16 16 16 17 18 18 19 20 21 21 22 22 23 23 24 24 22 22 25 27 28 27 26 26 26 25 25 25 24 24 24 27 28 28 29 30 30 29 28 28 27 27 27 26

GFSCGP_925_temp_039.txt.gz
Temp
33 32 32 33 35 36 37 37 38 39 39 39 38 39 39 40 39 38 37 36 35 35 35 33 32 31 31 30 28 27 27 26 26 26 26 26 27 27 27 27 27 26 25 25
32 31 33 35 35 35 36 37 38 39 40 39 39 38 40 40 39 38 37 37 36 36 35 34 32 32 31 30 28 27 26 26 25 26 26 27 27 28 27 27 27 26 26 25
33 33 34 35 35 35 35 36 37 38 39 39 38 38 39 40 39 39 39 38 37 36 36 34 33 32 31 30 29 27 26 26 25 26 26 26 27 27 28 28 27 26 26 26
34 36 34 34 34 36 35 37 37 37 38 37 38 36 38 39 39 39 39 38 38 37 37 35 34 33 32 31 29 28 26 25 25 25 27 27 27 28 28 28 28 28 26 26
33 35 35 34 35 36 35 38 36 37 37 37 38 37 39 40 39 39 39 39 39 38 37 36 35 33 33 32 30 28 26 25 26 25 26 27 27 28 28 29 29 28 26 26
35 36 36 36 36 36 37 36 37 36 36 35 36 37 38 40 40 40 40 40 40 39 38 37 35 34 33 32 31 29 27 26 25 25 24 26 27 27 29 28 29 28 28 27
34 35 36 36 35 36 35 35 33 34 35 34 37 37 38 40 41 41 41 41 41 39 39 38 37 35 33 33 32 30 28 26 25 25 25 25 26 26 28 28 28 29 29 29
33 33 35 36 36 35 35 35 34 32 34 35 37 37 38 41 42 42 42 42 41 41 40 39 37 36 34 33 32 31 29 27 26 25 25 25 26 27 27 28 29 28 30 30
34 34 37 36 36 36 35 35 37 37 38 38 38 38 40 41 41 41 41 41 42 41 40 39 38 36 35 34 32 31 30 28 26 26 26 25 25 26 28 27 27 28 28 30
34 34 36 36 36 36 37 37 35 36 35 36 38 38 38 39 39 40 40 41 41 42 40 39 39 38 36 34 33 32 30 29 27 27 26 26 26 25 26 27 27 28 28 28
34 35 35 37 35 34 35 36 36 37 37 36 36 38 41 40 40 39 40 41 41 42 41 40 40 39 37 35 34 33 31 30 28 27 27 27 26 26 26 27 27 27 27 28
33 34 33 36 37 37 36 36 36 35 34 37 38 39 41 42 41 40 40 41 42 42 41 41 40 40 38 37 35 34 33 31 30 29 28 27 27 27 26 26 27 27 27 27
30 31 31 34 36 36 35 36 37 37 37 36 36 38 39 39 40 40 40 41 41 42 42 42 41 40 40 38 37 36 34 33 32 30 29 28 28 28 28 27 26 27 26 27
23 29 31 34 35 36 34 36 36 37 37 36 37 38 37 38 38 38 39 40 40 40 40 40 41 41 41 39 38 36 36 35 34 32 31 30 29 28 28 28 27 27 27 26
26 27 30 33 35 36 36 35 36 36 36 36 38 37 38 38 38 38 39 39 38 38 38 39 39 39 39 39 38 36 36 36 35 34 33 31 29 28 28 28 28 27 27 26
26 25 28 30 33 32 31 35 36 36 36 37 37 38 40 39 39 38 38 37 37 37 38 39 39 38 38 38 37 37 35 35 35 34 33 32 30 29 28 28 27 27 27 27
22 25 27 28 30 30 29 32 34 36 37 37 36 37 39 38 37 37 37 37 37 37 38 38 38 39 39 38 37 36 35 34 34 33 33 32 31 29 28 28 27 27 27 27
21 22 25 26 28 27 31 34 34 34 35 36 37 37 37 37 37 37 37 36 36 37 38 38 39 40 39 39 40 36 36 33 33 33 32 32 31 30 28 28 27 27 27 26
22 22 23 25 28 30 31 32 33 32 32 34 34 35 35 35 35 35 36 36 36 37 38 38 38 39 39 40 39 38 37 35 32 32 31 31 30 30 29 28 27 27 27 27
23 22 22 24 25 27 30 31 32 32 30 34 34 34 34 35 33 35 36 35 34 35 35 35 37 38 38 38 38 38 37 36 34 32 31 30 30 29 29 28 27 27 27 27
21 21 21 22 23 27 30 30 31 27 28 33 33 33 33 32 32 31 31 31 32 32 32 33 33 34 34 35 36 36 36 36 35 33 31 30 29 29 28 28 27 27 26 27
21 21 22 22 22 23 29 29 27 26 27 27 27 28 28 29 29 30 30 30 30 31 32 32 33 34 35 34 34 34 34 34 35 33 31 30 29 29 29 28 27 27 26 26
20 21 22 23 24 25 27 26 28 28 25 25 26 27 27 27 28 29 29 29 29 30 32 32 34 35 34 33 32 32 32 32 32 32 30 30 29 28 29 28 27 27 26 27
21 22 21 21 22 23 24 25 25 25 25 25 25 25 26 26 27 28 28 28 28 29 32 33 33 34 33 31 30 30 31 30 31 30 30 29 29 28 28 29 28 28 28 28
19 20 20 20 21 22 22 23 23 24 24 24 24 24 24 26 26 26 27 27 26 29 31 31 32 32 31 29 30 30 30 29 29 29 29 29 29 28 28 28 29 29 29 30
17 17 18 19 21 21 21 23 23 23 23 23 23 24 25 25 25 26 26 25 26 29 31 29 29 28 27 27 26 26 27 28 29 29 30 30 31 30 29 29 28 29 28 28

GFSCGP_925_temp_042.txt.gz
Temp
33 32 33 33 35 35 36 36 36 38 39 39 38 38 39 39 37 36 35 35 35 34 34 33 33 32 32 30 29 28 28 27 26 25 25 25 26 27 27 27 28 26 26 25
32 32 34 35 35 35 35 36 37 38 40 38 39 38 40 39 39 38 36 36 36 35 35 34 33 32 32 30 29 27 27 27 26 26 25 26 27 27 27 27 28 27 26 26
32 33 35 35 34 34 35 35 37 38 39 37 39 37 39 39 38 39 38 38 37 36 35 34 33 33 32 30 29 27 27 27 26 26 26 26 27 27 28 27 27 27 26 26
33 35 34 34 34 35 34 36 37 38 38 37 39 36 38 39 39 38 39 37 38 37 36 35 34 33 32 31 29 27 26 26 26 26 26 26 26 27 27 28 28 27 27 26
33 34 35 34 34 36 35 37 37 37 37 38 38 37 38 39 39 39 39 37 39 38 37 35 34 33 33 31 29 28 26 26 26 25 26 26 26 27 28 28 28 28 27 26
34 36 36 36 36 36 37 37 37 37 37 35 37 38 38 39 39 40 40 40 39 39 38 36 35 33 33 32 30 28 26 25 25 25 26 26 26 27 27 28 28 28 27 26
33 34 36 37 36 36 36 35 34 34 35 34 37 37 38 40 41 41 40 40 40 40 39 37 35 34 33 32 31 29 27 25 25 25 24 26 26 26 27 28 28 28 28 26
33 33 35 37 36 36 36 36 34 32 34 34 36 36 37 40 42 43 42 41 41 40 40 38 35 34 33 33 31 30 27 26 25 25 25 25 25 26 27 27 28 28 28 28
34 33 36 37 37 37 35 35 37 36 37 36 37 37 39 40 40 41 42 42 41 41 40 39 37 35 33 33 32 30 28 26 26 25 25 25 25 25 26 27 28 28 29 29
33 33 36 36 37 37 37 37 35 36 33 34 36 37 37 38 39 40 41 42 42 41 40 39 38 36 34 33 32 31 30 27 26 26 25 25 25 25 26 27 27 28 28 29
33 33 35 37 36 35 36 36 36 36 36 35 35 38 42 38 39 40 41 41 42 41 40 40 39 37 35 34 33 32 30 29 27 26 26 26 25 25 25 26 27 27 28 28
33 33 32 34 38 38 37 36 36 35 33 36 37 38 41 42 41 41 41 41 42 42 41 40 40 39 37 35 34 33 31 30 28 27 27 26 26 26 25 25 27 27 27 28
25 30 31 32 35 37 36 36 36 37 37 35 36 37 40 41 41 41 40 41 40 40 40 40 40 39 38 36 35 34 32 32 30 28 27 27 26 26 26 26 26 27 27 27
24 27 29 32 34 37 35 36 37 36 36 35 37 37 38 39 40 40 40 40 41 40 40 40 40 39 39 37 35 35 34 33 32 31 29 28 28 27 27 27 26 26 27 26
27 26 30 32 35 36 36 36 36 36 37 35 37 38 37 38 38 40 40 40 40 39 39 39 40 37 36 36 36 35 35 34 34 32 31 29 28 28 28 27 27 26 26 27
25 25 28 29 32 34 34 36 36 37 37 37 38 39 39 38 38 38 38 37 37 38 39 39 39 39 38 37 36 35 35 36 34 33 32 31 29 28 28 28 27 27 26 26
22 24 25 27 30 32 32 34 36 36 37 37 37 38 39 38 37 37 37 38 37 37 37 38 38 38 38 38 38 36 35 35 35 34 33 32 30 29 28 28 28 27 27 26
21 22 24 25 28 27 32 35 35 36 37 38 38 39 39 38 38 38 38 37 37 38 38 38 39 38 38 39 39 37 36 35 34 34 33 32 31 30 29 28 28 27 27 27
23 22 23 25 27 29 31 33 34 34 35 38 38 38 39 37 37 36 37 37 37 37 36 36 37 38 38 39 39 36 36 34 33 33 32 32 31 31 29 28 27 27 27 27
23 23 22 24 25 27 30 34 35 35 32 34 35 36 36 36 34 32 32 33 33 33 33 33 33 33 33 34 36 36 35 34 33 33 32 32 31 31 30 29 28 27 27 27
21 21 22 23 23 28 28 30 33 30 26 28 30 33 34 33 30 30 31 31 31 31 31 32 32 32 32 33 34 33 34 35 34 32 32 31 31 30 30 29 28 27 27 27
21 20 20 22 23 23 27 28 26 26 26 27 27 27 27 28 29 29 29 29 29 29 30 31 32 32 33 33 33 33 32 34 35 35 32 31 31 29 30 29 28 27 27 27
20 20 21 22 23 25 25 26 26 27 26 26 26 26 26 26 26 27 27 28 29 28 28 28 31 32 32 33 33 32 32 33 33 33 33 31 30 29 29 29 28 27 27 27
19 20 20 21 23 23 24 26 26 25 25 25 25 25 26 25 25 26 26 27 27 27 26 27 28 31 32 33 32 31 31 30 31 31 31 30 30 29 28 29 28 27 27 27
18 18 18 19 21 22 23 24 24 24 24 24 24 24 24 24 24 25 25 25 26 26 26 26 28 30 30 29 29 30 30 30 30 30 30 29 29 29 28 28 29 28 28 28
17 15 15 16 17 17 17 20 21 22 24 24 24 24 24 24 24 24 24 24 25 25 24 26 29 29 28 28 27 27 26 28 29 29 29 30 30 29 28 28 28 26 28 29

GFSCGP_925_temp_045.txt.gz
Temp
28 27 27 29 30 31 32 32 33 34 36 35 34 34 32 31 31 27 26 31 31 31 31 30 30 30 29 29 28 28 27 26 26 25 25 25 25 26 26 27 27 26 26 25
28 27 30 31 31 31 32 31 33 34 36 36 35 34 35 32 29 27 28 24 31 31 31 31 31 31 29 28 28 28 27 26 26 25 25 25 25 26 26 27 26 26 26 25
28 29 31 32 31 31 31 31 32 33 36 37 35 34 35 34 30 27 25 25 31 31 31 30 31 31 29 27 27 28 28 27 26 25 25 25 25 26 26 27 27 26 26 26
29 31 31 31 31 32 30 33 33 34 34 31 36 30 32 34 31 28 27 28 31 32 31 31 31 30 29 27 27 27 28 27 26 25 25 25 25 25 26 27 27 27 26 26
29 30 30 30 32 33 32 33 33 33 33 33 34 32 33 33 33 31 29 28 29 32 32 31 31 31 31 28 26 26 27 27 26 25 25 25 25 26 26 27 27 27 27 27
31 33 32 32 33 34 34 33 32 33 32 31 32 33 33 33 33 32 31 30 31 33 32 32 31 31 31 28 27 25 26 26 26 26 25 25 25 26 26 27 27 27 27 27
30 31 33 33 32 33 32 30 28 29 30 30 30 31 31 35 35 35 34 32 32 33 32 32 31 31 31 28 27 25 25 25 25 25 26 25 25 26 26 27 27 27 27 26
27 28 31 33 32 31 31 31 29 27 28 30 31 31 32 34 36 38 37 35 33 31 31 33 32 31 31 29 27 26 25 25 25 24 25 25 25 25 26 27 27 28 27 27
27 28 33 33 34 33 31 30 31 29 29 29 30 32 33 35 35 35 37 37 34 32 33 33 32 31 31 30 28 27 25 25 24 24 24 24 25 25 25 26 27 27 28 27
28 27 32 33 34 34 32 32 30 30 27 28 30 31 32 33 35 34 34 37 36 36 35 33 32 32 31 31 29 27 26 25 24 24 24 24 24 24 24 26 27 27 27 28
20 26 29 32 32 31 32 31 32 30 28 26 27 31 33 34 34 35 34 34 37 36 35 34 33 33 31 31 30 28 27 25 24 24 24 24 23 24 24 25 26 27 27 28
19 21 27 28 32 34 33 32 31 30 27 28 28 31 33 35 36 36 36 35 35 37 36 34 33 33 32 31 31 29 28 26 25 25 24 24 24 24 24 24 25 27 27 28
17 19 23 27 29 31 33 33 33 30 28 27 29 31 36 33 35 36 34 36 33 36 35 35 34 33 32 32 31 30 29 27 26 25 25 24 24 24 24 24 24 26 27 27
17 19 20 24 28 30 31 33 33 32 30 30 31 32 33 33 33 32 33 33 33 33 35 35 35 34 33 32 32 31 30 29 27 26 25 25 24 25 24 24 24 25 25 26
15 18 22 25 28 30 31 33 34 32 32 31 31 31 33 36 33 33 33 33 33 32 35 35 35 34 33 32 32 31 31 30 30 27 27 26 25 25 25 25 24 24 25 25
14 18 21 25 28 30 31 33 34 34 33 32 31 32 32 33 31 32 31 32 30 31 32 32 32 34 34 33 32 32 31 31 30 30 27 27 26 26 25 25 25 25 24 25
14 18 18 22 27 29 27 31 34 34 34 33 32 32 33 33 31 31 31 31 31 32 32 31 31 31 30 33 33 32 32 31 31 30 30 28 27 26 26 26 26 25 25 25
15 17 18 20 25 24 27 31 32 34 34 34 33 33 31 31 31 29 30 30 31 30 29 29 28 28 34 34 33 33 32 32 31 31 30 29 28 27 26 26 26 26 25 25
17 18 17 19 24 26 29 28 28 32 25 26 27 33 34 31 29 27 28 28 27 26 27 27 29 30 31 32 34 34 32 32 31 31 29 29 28 27 27 26 26 26 26 26
19 20 19 20 22 24 22 26 26 28 22 25 25 27 33 30 25 24 26 26 26 26 26 26 29 30 31 31 32 32 31 32 31 31 30 30 29 28 27 27 27 26 26 26
18 19 19 20 20 19 19 23 25 24 22 24 23 24 24 23 23 24 25 25 25 25 25 26 26 26 30 32 32 31 32 31 31 32 33 33 32 31 29 28 27 26 26 26
17 17 18 19 20 17 20 23 21 22 23 23 22 22 22 22 23 23 23 23 23 23 24 25 24 25 25 29 32 30 30 33 33 33 31 32 32 31 29 29 27 26 26 26
14 15 11 16 16 20 21 21 22 22 22 20 21 21 21 21 21 21 21 21 22 22 23 24 24 25 25 27 30 29 31 31 31 32 32 31 31 31 30 29 28 26 26 26
15 16 14 15 17 17 18 16 17 17 18 21 21 21 21 20 21 20 20 20 20 21 22 23 23 23 25 28 29 29 28 30 30 30 30 30 29 29 29 29 28 27 26 25
14 14 12 13 15 14 16 15 15 15 16 18 19 21 21 21 21 21 19 19 19 20 22 22 22 23 25 28 27 27 26 27 27 29 29 30 29 28 28 28 27 26 27 26
12 11 9 10 10 10 11 13 13 13 14 15 17 17 19 20 20 20 18 18 19 19 20 21 22 22 24 27 26 26 26 26 25 27 29 28 28 28 27 26 23 24 26 27

GFSCGP_925_temp_048.txt.gz
Temp
24 23 23 25 25 27 28 28 28 31 33 31 32 30 30 28 27 26 26 26 26 26 26 27 26 27 27 27 26 25 25 25 26 26 26 26 26 26 26 26 26 26 26 26
24 24 26 27 27 27 28 28 29 31 32 32 32 30 30 29 28 27 27 27 27 27 27 27 27 27 27 26 25 25 25 25 26 26 26 26 26 26 27 26 26 26 25 26
25 26 28 28 27 28 28 27 28 29 31 33 32 31 29 30 29 29 28 29 29 29 27 27 27 27 27 25 25 24 25 25 26 26 26 26 26 26 26 26 26 26 25 25
26 28 28 28 28 28 26 30 30 31 30 28 33 30 30 30 29 29 29 28 29 30 28 28 28 28 28 26 25 25 25 25 25 26 25 25 24 24 25 26 26 26 25 25
26 27 28 27 28 29 29 30 30 30 29 29 30 29 32 30 28 28 28 27 28 29 30 29 29 29 28 27 25 25 25 25 25 25 25 25 24 24 25 25 26 26 25 25
27 29 29 29 30 30 31 30 29 29 27 27 29 30 30 29 28 27 29 27 28 29 30 31 30 29 28 27 26 25 24 24 25 25 25 25 24 25 25 25 26 26 26 25
27 28 30 30 28 29 29 26 26 24 26 26 27 27 31 30 30 28 29 27 28 30 31 31 30 30 28 26 26 25 25 23 24 24 24 25 25 25 25 25 26 26 26 26
24 25 28 30 28 28 28 27 23 24 25 27 27 27 31 31 32 31 30 29 30 29 31 31 30 30 29 27 26 26 25 24 24 24 24 24 25 25 25 25 26 26 26 26
12 25 29 30 31 30 28 27 27 25 26 25 27 30 30 31 30 31 30 31 29 30 31 31 31 30 30 27 26 25 25 25 24 24 24 24 25 25 25 25 26 26 27 27
14 14 26 30 30 30 29 28 27 23 25 25 26 28 30 30 31 30 31 30 30 31 32 32 31 30 30 28 27 25 25 25 24 24 24 24 24 24 24 24 25 26 26 26
13 13 20 26 27 29 27 29 28 27 23 27 24 29 28 29 29 30 31 31 31 32 32 31 31 31 30 29 27 26 25 25 24 24 24 24 23 24 24 24 25 26 26 26
13 13 14 22 28 29 31 27 27 28 25 23 24 29 34 31 31 31 33 32 33 33 32 31 32 31 30 30 28 26 25 25 24 24 24 23 23 23 23 23 24 25 26 26
11 13 13 20 25 27 27 29 28 25 24 24 28 30 30 31 29 29 32 31 33 33 32 31 32 31 30 30 28 27 26 25 24 24 24 23 23 23 23 23 23 24 25 26
11 12 12 14 20 20 25 28 28 29 27 27 27 30 32 32 30 31 30 30 32 33 33 33 32 31 30 30 29 28 27 25 25 24 24 23 23 23 23 23 23 23 24 25
10 10 12 14 17 20 22 28 29 28 28 29 30 29 30 29 30 28 29 28 32 33 33 33 32 31 30 30 30 29 28 26 25 24 24 24 24 24 23 23 23 24 24 24
9 10 11 14 20 22 24 29 29 30 31 29 29 28 30 30 28 28 28 29 31 33 33 33 32 32 31 30 30 29 28 27 26 25 24 24 24 23 24 23 23 23 23 24
9 10 10 14 22 26 26 24 28 30 30 30 29 28 31 28 25 25 28 28 27 28 33 33 32 32 32 31 30 30 29 28 27 26 25 25 24 24 24 24 23 23 23 23
11 10 11 14 19 23 22 22 23 24 23 23 23 25 26 25 25 24 24 26 26 27 27 26 26 26 31 32 31 30 30 29 28 27 26 26 25 25 24 24 24 24 24 23
12 13 11 16 19 24 21 19 20 20 21 22 22 26 27 26 26 24 24 24 23 23 23 23 25 27 29 31 32 31 30 29 29 28 28 26 26 25 25 24 24 24 24 24
12 12 14 16 18 19 17 19 22 23 19 21 22 21 23 26 22 21 21 23 22 22 22 22 24 25 27 29 32 31 30 29 29 29 28 28 27 26 26 25 25 25 25 25
10 13 16 17 18 16 15 16 23 19 19 20 20 21 20 20 19 20 21 21 21 22 22 22 23 23 24 27 30 28 29 29 29 29 29 28 28 27 27 26 26 25 25 25
11 12 11 12 15 14 14 15 15 15 16 17 18 19 19 19 19 19 20 20 20 21 21 22 21 22 24 27 29 28 29 30 31 31 30 29 28 28 27 26 26 26 26 25
11 11 11 11 12 14 14 14 15 15 14 14 15 16 17 19 18 18 18 18 19 19 20 21 21 21 23 25 26 24 25 28 29 30 30 29 29 29 28 27 26 25 25 25
12 13 10 9 13 11 13 15 14 13 13 13 14 15 16 17 18 17 17 17 18 18 19 20 21 21 21 24 26 26 26 26 27 27 29 29 28 28 28 27 26 25 24 25
10 11 9 10 11 11 13 13 12 12 13 13 13 14 15 16 16 17 16 16 16 17 18 19 19 20 20 22 25 26 26 26 25 26 26 28 28 28 26 25 25 25 25 25
9 8 9 9 10 10 10 10 11 11 11 12 12 13 15 15 15 17 16 16 17 17 18 18 20 20 21 22 23 24 25 26 25 24 25 25 27 27 24 24 21 22 24 25

GFSCGP_925_temp_051.txt.gz
Temp
21 20 22 23 24 25 26 27 27 28 30 30 29 29 25 25 25 24 24 24 24 24 25 25 25 25 25 24 24 24 25 25 24 24 24 24 25 25 25 25 25 24 24 24
20 21 23 24 24 24 25 25 26 28 30 29 30 29 27 25 25 25 24 24 25 25 25 25 25 25 25 25 25 24 25 25 25 24 24 25 26 26 25 25 25 25 24 24
22 24 25 25 24 24 24 25 26 27 29 30 30 29 29 26 26 26 25 25 25 25 25 25 25 26 26 24 25 25 24 24 25 25 24 24 25 26 25 25 25 26 25 25
23 26 25 25 25 25 22 26 28 28 27 28 30 26 29 27 26 26 26 25 25 26 26 26 26 26 26 25 25 24 24 24 24 24 24 24 25 25 26 26 26 26 26 25
24 25 25 25 26 26 26 27 27 27 27 27 29 26 26 28 26 26 26 26 26 26 26 26 26 26 26 26 24 24 24 24 24 24 24 25 25 25 25 26 26 25 25 25
23 26 26 27 27 27 28 28 27 26 24 26 27 26 26 27 27 27 27 28 28 28 28 27 27 27 26 26 24 24 24 23 23 24 24 25 24 25 25 25 26 25 25 25
19 24 25 27 26 26 27 24 22 23 22 25 26 25 29 29 30 29 29 29 29 28 29 28 27 27 27 27 25 24 23 23 23 23 24 24 25 25 26 26 25 25 25 25
13 21 25 27 26 26 25 24 20 21 22 26 25 24 27 29 30 31 30 30 29 28 28 29 28 27 27 27 25 24 23 23 23 23 23 24 24 25 25 26 25 25 25 25
13 15 17 20 27 27 25 25 25 23 22 24 26 26 29 29 30 30 31 30 30 29 28 29 30 28 28 27 25 25 23 23 23 23 23 23 24 24 24 25 25 25 25 26
13 13 15 19 23 27 27 26 25 21 23 23 24 26 29 27 27 29 30 29 29 29 29 30 30 29 28 27 26 25 24 24 23 23 23 23 24 24 24 25 25 25 25 25
12 13 15 17 23 26 24 26 26 25 22 26 22 25 26 28 29 29 30 30 29 29 30 30 30 30 29 27 26 25 25 24 24 23 23 23 23 23 24 24 25 25 25 25
12 12 13 15 19 19 18 25 23 26 24 21 25 27 29 28 27 30 30 29 29 30 30 30 30 30 30 29 26 26 25 25 24 24 23 23 23 23 23 24 25 25 25 25
12 12 12 17 20 21 21 25 27 25 22 24 27 27 29 28 29 27 29 30 30 30 30 30 31 30 29 29 27 26 25 25 25 24 23 23 23 23 23 23 24 24 25 25
12 11 11 13 15 15 14 16 17 20 26 24 26 27 28 29 28 28 26 28 30 30 30 30 31 30 30 29 28 26 25 25 25 24 24 23 23 23 23 23 24 24 24 24
10 10 11 11 12 14 14 15 17 19 25 27 28 25 26 27 28 27 26 26 29 31 31 31 31 30 29 29 28 26 26 25 25 24 23 23 23 23 23 23 23 24 23 24
9 10 9 11 14 15 15 17 19 20 23 26 27 26 26 25 23 23 22 24 27 31 31 31 31 31 30 29 29 27 26 25 25 24 24 23 23 23 23 23 23 23 23 23
9 9 10 10 15 18 18 19 21 22 19 21 26 25 23 22 22 21 21 22 27 31 31 31 30 31 30 29 29 28 26 26 25 24 24 24 23 23 22 22 22 22 22 23
9 9 10 9 13 20 18 18 20 20 20 19 20 22 23 22 22 21 21 21 21 22 28 31 31 31 31 30 29 29 27 26 25 24 24 24 23 23 22 22 22 22 22 22
10 9 10 11 15 19 19 17 15 17 18 18 19 20 22 24 23 21 21 21 20 21 21 21 27 29 30 30 29 29 27 26 25 25 24 24 24 23 23 22 23 23 22 22
10 9 10 11 13 17 16 16 16 18 16 15 16 17 19 21 19 18 19 19 20 20 20 20 22 26 29 29 29 28 27 27 26 26 25 25 24 24 23 23 23 23 23 23
10 9 10 11 12 15 15 15 16 16 14 14 14 14 16 17 17 18 18 19 19 19 20 20 21 21 24 27 29 28 28 27 28 27 27 26 26 25 24 24 24 24 23 23
10 11 11 11 14 15 14 15 14 13 14 13 12 13 14 15 17 17 17 17 18 18 19 20 20 20 23 25 27 26 26 27 28 28 28 28 27 25 25 25 25 24 24 24
10 9 10 10 11 13 12 12 12 13 13 12 12 12 13 14 15 16 16 16 17 17 18 19 20 20 21 24 25 23 24 27 28 27 27 27 27 27 27 25 25 24 24 24
10 10 9 9 12 11 12 13 11 11 12 12 12 12 12 13 15 15 15 15 16 16 17 18 19 19 19 22 23 24 25 26 27 26 26 26 26 26 26 26 25 24 24 24
8 9 8 10 11 11 13 12 12 11 11 12 12 12 12 13 14 14 14 14 14 15 16 17 17 18 18 21 22 23 24 26 25 25 25 25 25 25 24 24 24 24 24 25
8 7 8 9 11 10 10 11 11 11 10 11 12 12 12 13 14 14 14 14 15 15 17 17 17 17 18 20 21 22 23 24 24 24 24 24 25 24 24 23 21 22 23 24

GFSCGP_925_temp_054.txt.gz
Temp
20 19 20 21 22 24 24 24 26 27 28 27 27 26 24 23 23 23 23 23 23 23 24 24 23 23 23 22 23 23 23 23 23 23 23 23 23 24 25 25 25 25 24 24
19 19 22 23 22 23 23 25 25 27 29 27 27 27 25 24 23 23 23 23 23 24 24 24 24 24 23 23 23 23 23 24 24 24 24 23 24 24 25 25 25 25 24 24
19 21 23 23 22 22 22 22 24 26 27 28 28 26 25 24 24 24 24 24 24 24 24 24 24 24 24 23 23 23 24 24 24 24 24 23 23 23 24 24 25 25 24 24
21 22 23 23 22 22 20 24 25 25 26 25 27 24 25 24 24 24 24 24 24 24 24 24 24 24 24 23 23 24 24 24 25 25 24 24 23 23 24 25 25 25 25 24
21 22 23 22 24 23 23 24 24 25 25 25 26 25 25 25 23 24 24 24 24 25 25 24 25 25 24 24 23 23 24 24 24 24 24 24 23 24 25 25 25 25 25 25
21 24 23 25 25 24 26 26 24 23 22 23 25 27 24 24 26 25 25 25 25 25 25 25 25 25 25 25 24 23 24 24 24 24 24 24 24 24 24 25 25 25 25 25
17 22 23 25 23 24 24 22 20 20 20 24 25 24 26 27 27 27 26 26 26 26 26 26 25 25 25 25 24 23 23 23 24 24 23 23 24 24 24 25 25 25 25 25
13 20 22 23 23 23 23 22 19 19 20 24 23 23 25 29 28 28 28 28 27 27 27 26 26 26 25 25 24 23 23 23 23 23 23 24 24 24 25 25 25 26 26 26
11 15 17 18 21 23 23 22 22 21 21 21 25 24 27 27 28 28 29 28 28 27 27 27 27 26 26 25 25 23 23 23 23 23 23 23 23 24 24 25 25 26 26 26
13 12 15 17 19 22 21 24 23 19 21 21 22 23 27 27 27 26 27 28 28 28 28 28 28 27 26 26 25 24 24 23 23 23 23 23 23 24 24 25 25 25 26 25
12 11 14 16 18 22 22 23 22 23 21 22 22 25 24 26 28 29 26 28 28 28 28 28 28 29 27 27 26 24 24 23 23 22 23 23 23 23 24 24 25 25 26 25
11 12 12 13 17 17 17 18 21 23 22 22 21 25 28 26 27 29 29 28 28 28 29 28 29 29 28 27 26 25 24 23 23 23 23 23 23 22 23 23 25 25 25 25
12 12 10 15 17 17 17 15 14 15 20 23 24 24 27 27 27 26 26 27 27 28 28 28 29 28 28 27 26 25 24 24 23 23 22 22 22 22 23 23 24 25 25 25
11 9 11 12 14 13 14 15 15 15 15 23 25 25 27 28 26 25 25 25 26 25 26 27 28 28 29 28 26 25 25 24 24 23 23 22 22 22 23 23 23 24 25 25
9 8 10 11 12 13 14 14 15 15 16 17 24 24 24 26 27 25 25 24 24 25 25 27 28 28 28 28 26 25 25 24 24 23 23 23 22 22 23 23 24 24 24 25
8 9 11 10 12 13 14 16 17 18 17 18 19 21 21 20 21 20 19 20 21 22 26 27 27 28 28 28 27 25 25 24 24 24 23 23 22 22 23 23 23 23 23 23
8 9 10 10 13 14 16 17 20 18 15 18 22 22 19 20 19 18 18 19 19 20 22 26 28 29 28 28 28 25 25 24 24 24 23 23 22 22 22 22 22 22 23 22
7 8 10 10 14 15 17 19 19 17 16 15 16 17 20 20 19 19 18 18 18 19 19 25 30 29 29 29 28 26 25 24 23 23 23 23 22 22 22 22 22 22 22 22
7 8 10 11 12 13 18 16 15 14 16 15 14 15 17 20 21 20 19 18 18 18 19 19 28 30 29 29 28 26 25 24 23 23 23 23 23 22 22 22 22 22 21 21
8 9 9 11 12 17 13 14 15 15 15 15 13 13 14 20 18 17 18 19 19 18 19 19 25 29 28 28 27 25 25 24 23 24 23 23 23 23 22 22 22 22 22 22
9 9 9 10 12 12 12 12 16 17 14 13 12 12 13 15 15 17 18 19 19 19 19 20 21 21 25 27 27 25 25 24 24 24 24 23 23 23 23 23 22 22 22 22
10 10 11 11 12 14 10 13 14 13 12 12 11 12 12 13 14 16 16 17 18 18 18 19 21 20 22 26 26 25 25 25 26 25 25 25 24 24 23 23 23 23 22 22
10 9 9 9 10 10 10 9 11 11 11 11 10 11 11 13 14 14 15 16 18 18 18 18 18 19 20 22 25 24 24 26 27 27 26 26 25 24 24 23 23 22 22 22
9 9 9 9 10 11 10 11 12 11 10 11 11 11 11 11 13 14 14 15 16 17 17 17 18 18 17 19 21 22 23 25 26 25 25 25 25 24 24 24 24 23 23 23
8 8 7 8 10 10 11 11 12 11 11 11 11 11 12 13 13 13 13 13 15 16 16 16 16 17 17 19 19 20 22 24 23 23 23 24 24 25 24 24 24 23 24 24
9 8 8 9 10 10 10 10 11 11 11 11 11 11 12 13 13 13 13 13 13 15 16 16 16 16 17 19 20 20 20 22 23 23 23 22 23 23 23 23 22 23 24 24

GFSCGP_925_temp_057.txt.gz
Temp
23 24 24 26 26 27 28 28 30 31 31 31 32 31 28 26 26 26 25 25 25 25 25 25 24 24 23 23 22 21 21 22 21 21 22 22 23 23 23 24 25 25 24 24
22 23 26 25 25 25 26 26 29 31 30 31 31 31 30 27 27 27 26 26 26 26 26 25 24 24 24 23 22 21 21 22 22 22 22 22 23 23 23 24 25 25 25 24
24 25 25 24 24 24 26 26 27 29 30 31 30 31 30 28 28 27 27 27 27 26 26 26 25 25 24 24 22 22 22 22 23 22 21 22 23 23 23 23 24 25 25 24
24 25 24 24 25 25 25 27 27 27 28 30 31 30 30 31 27 27 27 27 27 27 27 27 26 25 25 24 23 22 22 22 22 22 22 22 24 24 24 24 24 25 25 25
24 24 24 24 25 26 26 27 26 27 27 27 29 29 32 31 29 28 28 28 28 28 27 27 27 26 25 25 24 23 22 22 22 22 22 23 23 24 23 23 24 25 25 25
23 26 26 26 26 26 27 26 27 27 27 26 28 29 31 31 30 30 29 29 28 28 28 27 26 26 26 25 24 23 22 22 23 22 23 23 23 23 23 23 24 24 24 24
21 24 26 27 26 26 26 26 25 25 26 26 30 28 30 32 33 32 31 29 29 29 28 28 27 26 26 25 24 23 22 22 22 22 22 23 23 23 23 23 24 24 24 24
20 23 24 26 26 26 26 26 26 25 26 28 29 28 30 32 33 32 33 32 31 29 29 28 28 27 26 25 24 24 23 22 22 22 23 23 24 23 23 23 24 24 24 24
18 19 20 21 22 27 26 26 28 27 26 27 30 29 31 32 33 34 33 32 31 30 29 29 28 27 26 26 25 24 23 23 22 23 22 22 23 23 23 24 23 24 24 24
16 17 19 20 21 24 26 28 25 26 25 26 29 29 30 31 32 33 33 33 32 31 30 30 29 28 27 26 26 24 24 23 23 23 23 23 23 23 23 23 23 24 24 25
15 15 19 19 22 25 24 25 26 27 27 27 27 29 32 32 32 33 33 33 33 32 31 31 30 29 27 27 26 26 24 24 23 23 23 23 23 22 22 22 23 24 25 25
15 15 15 18 21 20 20 23 27 25 25 27 28 29 32 33 34 34 35 34 34 33 32 31 31 30 29 28 27 26 25 25 24 24 23 23 23 23 22 22 23 23 25 26
14 13 15 19 21 20 21 19 21 25 26 26 26 27 32 31 30 32 32 33 32 32 31 31 31 31 30 28 28 27 26 26 26 24 24 23 23 23 23 23 23 23 24 26
13 13 14 17 17 16 16 18 19 20 25 26 27 28 30 31 31 32 32 31 31 31 31 31 31 31 30 28 28 27 27 27 26 25 25 24 23 23 23 23 23 22 23 25
13 13 13 15 15 15 15 16 17 18 22 24 27 27 30 31 32 32 32 28 28 29 30 30 30 30 29 29 27 27 27 26 26 25 25 24 23 23 23 23 22 22 22 24
11 12 13 14 16 16 15 17 17 19 20 20 22 24 26 27 26 26 25 25 26 26 27 29 30 30 29 29 27 26 26 26 25 25 24 24 23 23 23 22 22 22 22 23
11 11 13 14 16 16 16 18 19 21 20 21 23 26 23 24 23 22 22 22 23 23 24 25 27 30 30 29 27 26 26 26 25 24 24 24 23 23 22 22 22 22 22 22
10 10 12 13 14 15 21 21 23 20 18 18 19 19 21 24 22 22 22 21 21 22 22 23 25 27 29 30 29 27 26 25 25 24 24 24 23 23 22 22 22 22 22 22
13 11 12 12 14 16 18 17 18 20 17 17 17 17 18 21 23 24 21 20 20 21 21 22 23 24 28 30 29 27 26 25 25 24 24 23 23 23 23 22 22 22 22 22
11 11 11 12 12 15 12 13 14 17 18 16 16 16 18 23 25 22 19 19 19 21 21 21 24 25 29 29 29 26 26 25 25 25 24 23 23 23 23 23 22 22 23 23
9 9 10 12 11 13 10 11 14 15 17 15 15 16 17 19 19 18 18 18 19 20 20 23 25 29 28 28 27 26 26 26 26 25 24 23 23 23 23 23 23 23 23 23
10 10 11 11 10 12 9 10 14 14 15 14 14 15 16 17 17 17 17 17 18 19 20 21 24 25 27 27 26 26 26 26 25 25 24 23 23 24 24 23 23 23 23 23
10 10 11 11 11 10 10 9 11 14 14 13 13 15 16 15 15 16 16 17 18 18 19 20 21 20 22 25 26 26 25 24 24 24 24 24 24 23 24 23 23 23 23 24
8 8 8 8 10 10 10 11 13 13 14 13 13 13 14 14 15 15 15 15 16 17 17 18 19 19 19 20 21 22 23 24 24 24 24 24 24 24 24 24 24 24 25 24
8 8 8 9 10 9 9 10 11 13 13 13 13 13 13 14 14 14 15 14 15 15 16 16 17 17 18 19 19 20 21 23 24 24 24 24 24 23 24 24 25 25 25 26
8 9 9 9 10 10 9 9 10 11 12 12 12 12 13 13 14 14 14 14 14 14 15 15 16 16 16 18 18 18 18 20 22 23 24 22 24 24 25 25 22 23 24 24

GFSCGP_925_temp_060.txt.gz
Temp
28 27 28 31 31 32 32 34 34 34 35 34 35 35 33 32 32 31 30 30 29 29 29 28 27 27 27 26 25 24 24 24 23 24 24 25 25 25 25 25 24 24 24 23
27 27 30 31 31 30 31 31 32 35 35 33 35 35 36 33 32 32 31 31 30 30 30 28 28 27 27 26 25 24 24 24 23 24 25 26 26 26 26 26 25 24 24 24
28 30 30 30 29 29 29 31 32 33 34 32 34 35 35 35 33 33 32 32 31 31 30 29 28 28 28 27 26 25 24 24 23 25 24 24 25 25 25 25 26 25 24 24
28 30 28 29 28 29 29 31 31 31 31 32 34 34 35 35 33 33 33 32 32 32 31 30 29 28 28 27 26 25 24 24 23 23 25 24 26 27 27 27 27 26 25 25
28 28 28 27 28 30 29 32 31 30 31 32 33 33 35 36 35 33 33 33 33 32 32 31 30 29 28 28 27 26 24 24 24 23 25 24 25 27 27 27 26 26 25 25
27 29 29 29 29 29 30 30 30 30 31 30 32 33 34 35 36 36 35 34 33 33 32 32 30 29 29 28 27 26 25 24 23 23 23 24 25 27 27 26 26 26 27 26
27 27 28 29 28 30 29 29 29 29 29 30 33 32 34 37 37 37 37 35 35 34 33 32 31 30 29 28 28 27 25 24 24 24 24 24 24 25 26 25 26 27 27 27
26 26 28 29 28 29 28 30 30 28 31 32 33 32 34 36 36 38 37 37 36 35 34 33 32 31 29 29 28 27 26 24 24 24 24 23 24 25 25 25 27 27 27 27
24 25 26 26 29 29 29 29 31 32 33 33 34 33 35 36 36 36 36 37 37 36 35 34 33 31 30 29 28 27 26 25 25 25 24 24 24 24 26 26 25 26 26 27
22 21 25 26 25 27 28 31 29 30 28 29 32 33 33 33 35 35 36 36 37 37 36 35 34 32 30 29 29 27 26 25 25 26 25 25 25 24 25 25 25 26 26 25
21 21 24 24 25 27 27 28 29 30 30 30 31 33 36 35 35 35 36 37 38 37 36 35 35 33 31 30 29 28 27 26 26 26 26 26 25 25 25 25 25 25 25 25
20 21 21 23 26 26 25 26 29 28 28 30 31 33 36 36 36 36 36 37 38 38 37 36 36 34 32 31 30 29 28 27 26 27 26 25 26 26 26 25 25 25 24 25
19 20 19 21 24 25 24 26 27 29 30 29 29 31 35 35 34 36 36 37 37 37 38 37 37 35 33 32 31 30 29 29 28 27 26 26 26 26 26 25 25 25 24 24
16 19 18 21 21 21 20 23 24 25 27 28 30 31 33 34 34 34 35 36 37 36 36 36 36 36 34 32 31 31 30 30 30 28 28 27 26 26 26 26 25 25 24 24
17 17 18 19 19 20 20 20 21 22 25 26 29 30 32 33 34 34 35 35 33 34 35 35 35 35 33 32 31 30 30 30 31 29 29 28 26 26 26 26 25 25 25 25
16 16 17 17 19 20 20 21 21 22 22 24 26 28 33 33 31 31 32 30 31 32 32 33 34 34 34 33 31 30 30 30 30 30 29 28 26 26 26 25 25 24 25 25
14 15 17 17 19 20 19 21 22 23 23 24 25 27 30 31 30 30 28 28 29 29 30 30 31 33 34 33 32 30 29 30 29 29 28 28 26 26 25 25 25 25 24 25
13 14 15 17 18 17 22 25 26 24 24 25 25 27 29 27 29 27 26 26 26 27 27 28 29 30 31 33 33 31 30 29 29 28 27 27 26 25 25 25 25 24 25 25
14 12 14 15 18 20 21 16 16 16 24 24 23 25 25 25 27 27 24 24 24 24 25 26 27 28 28 30 32 32 30 29 28 28 27 26 26 26 25 25 25 25 25 25
15 14 12 15 13 15 14 13 14 17 20 21 21 22 23 24 25 28 21 21 22 24 23 24 25 26 27 28 30 32 30 29 28 27 27 26 26 26 25 25 25 25 25 25
11 10 11 13 13 16 16 13 13 15 18 19 20 20 22 24 23 20 19 20 21 22 23 23 26 28 29 29 29 32 30 30 28 27 27 27 26 25 25 25 25 25 25 26
12 12 13 13 13 13 13 14 11 11 14 16 16 18 19 21 19 18 17 18 19 19 21 22 25 29 31 31 30 31 29 29 28 27 28 27 26 26 26 25 25 25 25 25
12 13 12 13 15 12 11 11 12 12 13 14 14 16 17 19 17 16 17 17 17 18 18 19 21 23 28 30 30 29 28 28 27 27 27 26 26 25 27 25 25 25 25 27
7 8 10 9 11 10 11 11 11 12 13 14 14 14 15 16 16 16 16 16 16 16 16 16 18 20 20 23 26 28 27 27 27 27 26 26 26 26 26 26 26 27 27 27
6 7 7 8 8 9 10 10 11 11 12 13 14 14 14 14 15 15 15 15 14 14 15 15 15 17 19 20 20 22 25 26 26 26 27 27 27 25 26 27 27 28 28 29
8 8 9 9 9 9 9 9 9 10 10 10 11 11 12 12 13 13 14 14 14 14 14 15 15 15 16 17 18 18 20 25 26 27 27 28 28 27 28 28 25 25 25 27

GFSCGP_925_temp_063.txt.gz
Temp
29 29 30 33 33 34 37 37 36 38 35 36 35 34 24 36 37 34 33 33 33 33 32 31 30 30 29 28 27 27 26 26 25 25 25 26 27 27 27 27 27 25 26 25
31 30 32 34 34 34 35 35 36 38 38 35 35 35 35 36 36 35 34 33 33 33 32 31 30 30 30 28 27 26 26 25 25 25 26 27 28 28 28 28 26 26 26 25
31 32 33 33 33 33 33 34 35 36 38 37 36 33 35 30 36 36 35 35 34 33 33 32 31 30 30 29 27 26 26 25 24 26 26 26 27 28 28 28 27 26 26 25
31 33 32 32 32 33 32 34 34 35 35 35 37 33 28 31 35 36 36 35 35 34 33 33 31 30 30 29 28 27 25 25 24 25 26 26 27 28 28 28 28 27 26 26
31 31 31 31 32 33 32 34 34 34 34 35 36 35 34 34 32 36 36 36 36 35 34 33 32 31 31 30 28 27 25 25 25 24 26 26 27 28 28 29 28 28 26 26
30 33 32 32 33 32 33 33 33 34 34 32 34 36 36 35 35 37 37 37 36 36 35 34 32 31 31 30 29 28 26 25 24 24 25 26 26 27 29 29 28 27 27 26
29 30 31 31 31 32 32 32 31 31 31 32 35 35 36 39 36 37 38 38 37 37 36 35 34 32 31 31 30 29 27 25 24 24 24 25 26 26 27 28 28 28 29 29
28 29 30 31 30 31 31 32 32 30 32 33 35 34 36 39 39 37 34 38 38 37 37 36 34 33 32 31 30 29 28 25 25 25 25 24 25 26 27 27 28 28 29 29
28 28 31 31 32 31 31 31 33 33 35 35 37 36 38 39 39 37 29 38 37 38 38 36 35 34 32 31 30 29 29 26 25 25 25 24 24 26 27 28 27 28 28 29
26 25 29 29 30 30 30 33 31 32 30 31 35 36 36 37 37 38 38 39 38 38 38 38 36 34 33 32 31 30 29 27 26 26 25 25 24 25 26 27 27 27 28 28
24 25 26 29 28 28 29 29 30 32 33 31 32 35 39 38 37 38 38 38 39 39 39 38 38 36 34 33 32 30 29 28 27 26 26 26 25 25 25 26 26 26 27 27
24 24 24 26 29 29 30 30 30 30 30 32 33 35 39 39 39 38 39 39 39 39 40 39 39 37 35 33 32 31 30 29 28 27 27 26 26 26 26 25 26 26 26 26
23 22 22 24 26 27 27 29 29 30 32 31 32 33 38 37 37 38 38 38 39 39 39 39 39 38 36 34 33 32 31 30 29 28 27 27 27 26 27 26 26 26 26 25
19 21 22 23 25 25 25 27 28 29 30 30 31 33 36 36 36 36 37 38 38 39 39 39 39 38 37 35 34 33 32 31 31 29 29 28 27 27 27 27 26 26 26 25
19 19 21 22 23 23 23 24 27 27 28 28 31 32 34 36 36 36 36 37 37 37 38 39 39 39 37 35 34 32 32 32 32 31 30 29 28 27 27 27 27 26 26 25
20 18 19 18 20 22 22 23 24 25 27 27 27 28 32 33 32 36 35 35 34 34 36 36 37 38 37 36 34 33 32 32 32 31 30 30 28 28 27 27 27 26 26 26
18 15 16 17 20 21 21 23 24 25 26 26 26 28 30 31 31 32 34 32 32 33 33 34 34 36 37 36 34 33 32 32 32 31 30 30 29 28 27 27 27 26 26 26
16 15 15 15 18 17 22 26 26 25 26 27 27 28 29 30 31 29 30 29 29 30 31 31 32 33 34 35 36 34 33 31 32 31 31 30 29 28 27 27 27 26 26 26
19 18 13 14 17 19 22 21 20 21 23 27 28 28 29 30 31 29 29 27 27 28 28 29 29 30 31 32 34 35 33 31 31 31 30 30 29 28 27 27 27 27 26 26
19 18 14 16 15 16 20 18 19 20 22 22 28 27 27 28 26 28 25 25 26 26 26 27 27 28 29 30 31 33 34 33 31 31 30 30 29 28 27 27 27 26 26 26
13 13 14 15 15 17 20 19 19 17 18 17 19 20 24 25 24 22 23 23 23 23 24 23 24 27 29 29 30 31 33 33 32 30 30 29 28 28 27 27 26 26 26 28
13 13 14 15 15 15 17 18 17 16 15 16 18 18 18 20 21 20 21 21 21 22 22 21 22 23 28 31 31 31 30 33 32 30 30 29 28 28 27 27 26 26 26 26
13 12 13 15 16 16 14 13 15 15 15 14 16 16 16 18 19 18 19 20 20 19 20 19 18 20 20 23 31 31 30 32 31 30 29 28 28 27 28 26 26 26 26 27
10 9 10 11 16 12 10 12 11 11 12 14 16 16 15 16 16 15 16 17 18 18 18 17 16 17 17 17 20 21 30 30 29 29 28 28 27 27 28 27 27 27 28 27
7 6 7 9 10 9 9 9 9 10 11 12 13 13 13 14 14 14 14 14 17 16 17 15 15 15 16 15 16 17 19 25 29 28 28 28 28 27 27 28 28 28 29 30
8 8 8 8 8 8 9 9 9 9 10 10 11 11 12 12 12 13 13 13 14 15 15 14 14 14 14 14 14 15 16 20 25 27 28 29 29 27 28 29 26 27 28 29

GFSCGP_925_temp_066.txt.gz
Temp
31 30 29 31 32 34 35 36 37 38 39 38 36 28 25 27 27 28 33 33 31 31 32 32 32 31 30 28 28 27 27 26 26 25 25 26 27 27 26 26 25 25 25 25
31 29 31 33 34 34 34 34 36 38 39 38 32 25 24 25 28 24 34 34 33 32 32 32 32 31 30 29 27 27 27 25 25 25 25 26 27 27 27 26 25 26 26 25
30 32 33 33 34 34 34 34 35 36 38 39 37 26 25 26 25 23 32 35 34 33 33 32 32 31 31 28 27 27 26 25 25 25 26 26 27 28 27 26 26 26 26 25
31 33 34 33 33 34 33 36 35 35 36 35 39 33 24 27 24 22 22 35 34 34 33 32 32 31 31 29 27 26 26 25 25 25 26 26 27 27 28 27 27 27 26 26
31 32 32 33 33 34 33 35 35 35 34 35 36 36 34 29 26 24 23 32 35 35 34 33 32 31 31 29 28 26 26 25 25 25 26 26 27 28 28 28 28 27 26 26
31 34 34 33 34 34 35 34 34 34 34 33 34 35 36 31 28 24 22 28 36 35 35 34 32 31 31 30 28 27 25 25 25 25 25 26 26 27 28 28 28 27 26 26
30 31 32 33 32 34 33 32 30 30 31 32 35 35 36 38 32 28 28 29 37 36 35 34 33 32 31 31 29 28 25 25 24 24 25 25 26 27 27 28 28 27 27 26
28 30 31 32 32 32 32 32 30 29 31 32 35 33 36 38 36 32 29 27 27 37 36 35 33 32 31 31 30 28 26 25 24 24 24 25 25 26 26 27 28 28 29 29
27 29 33 33 33 32 31 32 33 32 34 33 35 36 37 39 39 37 32 29 26 30 36 35 34 33 32 31 30 29 27 25 25 25 24 24 25 26 26 27 28 28 28 28
26 25 29 31 32 32 32 33 31 32 29 30 33 35 36 37 38 39 35 29 27 26 25 27 35 34 33 31 31 30 28 26 25 24 25 24 24 25 26 27 27 27 28 28
25 24 26 28 29 29 30 29 31 32 32 31 31 34 38 38 38 38 35 31 25 25 25 23 24 35 33 32 31 30 29 27 26 25 25 25 24 25 25 26 27 27 28 27
25 23 24 26 29 30 30 29 30 30 29 31 32 34 38 39 39 39 39 33 31 29 24 22 23 29 35 33 32 31 30 29 27 26 25 25 25 24 25 25 26 26 27 27
23 22 22 24 26 28 28 29 30 30 31 30 30 33 37 38 38 39 39 39 36 29 25 24 24 31 35 34 33 32 31 30 29 27 26 26 25 25 25 25 26 26 26 26
20 21 20 21 24 25 25 27 28 28 29 30 31 32 34 36 37 36 37 38 39 38 32 33 33 29 36 34 33 32 32 31 30 28 27 26 26 26 25 25 25 26 26 26
21 19 21 21 23 23 24 25 26 26 28 28 30 31 33 33 31 32 29 34 38 37 38 35 37 25 23 34 33 33 33 32 31 30 28 27 27 26 26 26 26 25 26 26
20 19 20 20 22 22 21 23 25 25 26 28 29 30 33 32 28 29 29 28 33 34 35 34 34 34 32 34 33 33 32 32 32 31 29 28 27 27 27 26 26 26 26 26
19 18 16 17 20 21 20 22 24 25 26 26 27 29 31 30 28 29 29 27 25 32 32 32 32 33 31 30 33 33 32 32 32 31 30 29 28 27 27 27 26 26 26 26
18 18 16 15 17 15 21 23 24 25 25 26 27 27 28 28 30 30 29 26 22 28 29 29 30 30 31 25 23 32 32 32 32 31 30 29 29 27 27 26 26 26 26 26
20 19 15 14 16 18 20 22 22 21 23 27 24 25 27 29 30 27 24 23 22 25 28 28 28 28 28 29 30 31 33 32 31 31 30 30 29 28 27 27 26 26 26 26
19 20 15 14 15 15 20 18 20 21 20 20 20 22 23 25 27 20 22 24 24 24 25 25 24 25 26 28 29 30 31 32 31 31 31 30 29 29 27 27 26 26 26 26
15 16 15 14 15 18 19 17 18 17 18 18 18 18 20 20 19 19 22 22 22 22 23 23 23 23 23 22 23 28 30 31 31 31 31 30 30 29 28 27 27 26 26 26
14 14 14 14 12 15 17 18 16 14 15 16 17 16 18 18 19 20 21 21 21 21 21 21 20 20 21 19 20 22 29 29 30 31 30 31 30 29 29 27 27 26 26 26
13 11 11 14 16 15 14 13 14 14 13 14 14 17 17 18 18 18 18 18 19 20 20 19 17 17 17 16 17 19 22 28 29 29 30 30 29 29 29 28 27 26 26 26
10 9 10 11 16 14 13 14 12 11 11 13 14 16 16 16 16 17 18 18 18 18 18 17 16 15 15 15 15 16 18 20 26 29 29 29 29 28 28 28 27 26 27 26
8 7 7 8 11 9 10 9 9 9 10 10 11 13 13 14 15 15 15 16 16 17 17 16 16 15 14 14 14 14 15 17 23 29 29 29 29 28 27 27 27 27 27 27
8 7 8 8 7 7 7 8 8 8 9 9 10 11 12 13 13 13 13 14 14 16 15 15 15 14 13 13 13 13 14 16 19 26 29 28 29 28 27 27 26 27 27 28

GFSCGP_925_temp_069.txt.gz
Temp
28 25 25 26 27 29 30 30 31 33 34 34 32 25 25 25 26 25 24 27 28 28 29 30 30 29 28 27 27 27 26 26 26 26 26 25 26 26 26 25 25 25 25 25
26 25 28 30 30 30 30 30 30 32 34 31 27 25 26 24 26 25 21 27 28 28 29 30 30 28 27 26 27 27 26 26 25 25 26 25 26 26 26 26 25 25 25 25
26 28 30 30 29 30 30 29 30 30 33 30 26 25 25 27 27 25 23 22 28 29 30 30 30 29 27 26 27 27 26 26 25 25 26 26 26 26 26 26 25 25 25 25
27 29 30 30 29 30 27 31 33 33 31 28 32 28 24 25 25 25 24 22 24 29 30 31 30 29 27 26 26 27 26 26 25 25 26 25 26 26 26 26 25 26 26 25
27 29 29 30 31 31 30 31 31 31 30 30 31 28 25 26 25 26 26 26 25 25 30 30 30 29 27 26 26 27 26 25 25 25 26 25 26 27 27 26 26 26 26 26
27 30 30 30 32 32 33 31 29 29 28 26 28 28 23 25 27 25 28 28 25 27 29 31 31 30 28 26 26 26 26 25 25 25 25 26 26 27 27 26 26 26 26 26
27 28 29 31 29 30 30 29 24 24 25 26 29 28 28 27 28 26 27 26 27 26 30 31 30 30 29 27 26 25 25 24 25 25 25 25 26 27 27 27 27 26 26 26
24 24 29 31 29 29 28 27 23 24 24 26 28 28 28 30 29 28 27 27 27 23 24 27 30 30 29 27 26 25 24 24 24 25 25 25 26 26 27 26 27 27 27 27
21 24 27 29 30 30 28 26 28 26 27 26 28 29 31 32 30 28 27 27 25 24 24 23 26 30 30 28 27 25 24 24 23 24 25 25 25 26 27 27 27 27 27 27
22 20 24 26 28 29 28 29 25 24 24 24 27 27 28 31 30 28 28 27 24 23 22 23 22 24 29 30 27 26 24 24 23 23 24 24 25 26 26 27 27 27 28 27
23 21 21 24 25 24 25 25 26 25 24 24 25 26 29 31 31 30 29 25 24 23 23 22 21 21 25 26 29 27 25 24 24 23 23 23 24 25 26 26 27 27 28 28
21 20 18 20 23 25 25 24 24 22 23 24 24 26 31 32 32 28 30 28 26 25 24 22 22 23 22 24 28 28 26 24 24 23 24 23 24 24 24 25 26 27 27 27
19 18 17 18 21 24 22 24 24 23 24 24 23 25 31 29 28 28 26 25 27 27 27 23 23 24 23 23 26 29 28 25 24 24 24 24 23 23 24 24 26 27 27 27
20 18 17 16 18 20 20 22 22 22 21 22 24 25 28 26 27 27 27 26 26 27 27 25 26 23 24 24 23 30 29 28 25 25 24 24 24 23 23 24 25 26 27 26
18 16 17 18 20 21 21 21 21 21 22 21 23 24 26 26 26 26 26 25 24 25 25 23 22 22 23 24 26 25 30 29 27 25 25 24 24 24 23 24 24 25 26 26
18 15 16 16 19 20 20 21 22 22 22 23 23 24 25 26 25 26 25 25 22 23 25 24 24 23 22 24 26 24 27 30 29 27 26 25 25 24 24 24 24 24 24 25
16 15 14 14 16 16 16 19 21 21 22 22 22 23 24 24 25 23 23 22 22 21 23 23 23 22 21 21 22 24 25 29 29 29 27 26 25 25 24 24 24 24 24 24
15 16 14 13 14 13 17 19 20 21 22 19 19 22 21 21 22 22 23 22 20 21 21 22 21 22 22 20 19 22 25 24 27 28 28 26 26 25 25 25 24 24 24 24
16 15 13 12 13 16 18 19 18 17 18 18 17 17 18 19 22 19 18 21 21 20 21 21 22 21 21 21 20 19 24 23 25 24 27 27 26 25 25 25 25 24 24 24
15 14 13 13 11 12 16 18 19 19 16 16 16 16 16 17 16 16 18 20 20 20 20 20 20 19 19 19 18 20 21 25 25 24 27 27 27 26 25 25 25 25 25 25
12 12 12 12 12 14 16 18 18 15 13 15 15 14 15 15 16 16 18 18 18 19 19 19 17 17 17 16 16 17 19 20 22 25 27 28 28 27 26 26 25 25 25 25
11 11 11 12 12 12 13 15 13 12 12 12 13 13 13 15 16 17 16 16 17 17 18 18 16 16 15 15 15 15 16 17 17 21 28 28 28 27 26 26 25 25 25 25
10 9 9 10 11 10 10 11 11 11 10 11 11 12 12 14 14 16 16 15 16 17 17 17 16 15 15 14 14 14 14 15 16 18 22 28 27 28 27 26 25 25 25 25
10 8 8 8 12 8 10 9 9 9 9 10 11 11 12 12 14 14 14 14 15 15 15 16 15 15 14 14 14 14 14 14 15 17 20 26 27 27 27 26 26 25 25 25
8 7 7 8 9 7 9 8 8 8 9 9 10 10 11 11 13 13 13 12 14 14 15 15 15 14 13 12 13 14 14 14 14 16 19 25 27 27 27 27 26 26 26 26
8 7 7 7 8 7 7 7 8 7 8 8 9 9 10 11 11 12 12 13 13 13 13 13 13 12 11 11 11 13 14 13 13 15 18 23 27 27 27 27 26 26 26 26

GFSCGP_925_temp_075.txt.gz
Temp
23 22 21 23 23 25 26 26 25 27 29 29 25 24 24 23 23 24 25 25 26 26 26 27 26 25 24 24 24 24 24 24 24 25 24 25 25 24 24 24 24 24 24 24
21 21 23 25 25 25 26 25 25 26 27 25 23 23 23 24 23 24 25 25 26 26 26 26 26 25 24 23 24 24 24 25 25 25 25 25 25 24 24 24 24 24 24 24
22 24 26 25 26 26 25 24 25 26 27 24 24 24 23 24 23 23 24 25 26 27 27 26 25 25 24 23 23 24 25 25 25 25 25 25 25 24 24 24 24 24 24 24
23 25 26 25 25 24 23 24 26 27 26 25 26 23 23 23 23 24 23 24 25 27 28 26 25 24 24 24 24 25 25 25 26 25 25 25 25 24 24 25 24 24 24 24
24 26 24 25 25 25 25 26 26 27 26 26 26 24 23 23 22 23 23 25 25 26 28 26 25 25 24 24 24 24 25 25 25 25 25 25 25 25 25 25 24 24 24 24
25 27 26 25 27 26 27 26 24 21 21 22 25 25 23 21 23 24 23 24 25 24 25 27 27 25 25 24 23 24 24 25 25 25 25 25 25 25 25 25 24 25 24 24
24 25 23 24 27 26 24 22 21 23 22 22 23 24 25 24 24 25 24 24 25 25 25 27 26 25 24 24 23 23 24 24 25 25 26 26 25 25 25 25 25 25 24 24
21 23 22 23 24 25 26 23 20 23 21 23 22 24 27 26 26 26 26 25 25 25 25 26 27 26 25 24 23 23 23 23 25 25 26 26 26 25 25 25 25 25 25 25
20 22 22 24 22 23 23 21 22 19 19 22 22 25 26 25 25 24 24 25 24 24 25 25 26 26 25 25 24 23 23 23 24 25 25 26 26 25 25 25 25 24 25 25
20 21 20 21 22 21 20 21 21 18 21 23 22 22 22 23 23 23 23 24 24 24 24 24 25 25 25 25 24 24 23 23 24 24 24 25 26 26 25 25 25 25 25 25
17 17 20 19 19 19 17 17 16 17 17 19 20 20 23 21 22 22 22 22 23 25 24 24 25 25 25 25 25 24 23 23 23 23 23 24 25 26 26 25 25 25 25 25
16 13 15 18 17 19 19 17 15 15 17 16 18 19 21 21 22 22 22 22 22 24 24 24 24 24 23 24 24 24 24 23 23 23 23 23 24 25 25 26 26 25 25 25
18 13 15 17 16 16 16 17 16 13 12 15 16 19 22 20 21 21 21 21 21 22 22 22 21 21 22 23 23 24 24 23 23 22 23 23 23 24 25 26 26 26 25 25
15 11 14 14 16 15 16 16 16 14 14 15 16 17 17 18 18 19 20 20 21 21 20 19 19 20 21 23 23 24 24 23 23 23 22 22 23 23 24 25 26 26 26 25
13 13 14 14 15 16 16 16 17 16 18 16 17 16 15 16 17 17 18 20 20 20 19 19 19 19 21 22 23 24 24 24 23 23 22 22 22 23 24 24 25 25 26 26
11 12 14 13 14 15 15 16 17 17 17 18 18 17 15 16 17 16 17 18 18 18 19 19 18 19 19 20 21 23 23 24 24 23 23 23 22 22 22 23 24 24 24 25
11 11 10 12 12 14 14 16 17 17 16 17 16 15 15 15 16 15 15 16 16 16 18 17 17 17 18 17 17 18 19 22 22 23 23 23 22 22 22 22 23 23 23 24
11 10 9 10 11 12 13 15 17 15 15 14 14 14 14 14 16 16 15 15 15 16 16 16 16 16 16 15 16 17 19 20 22 23 23 23 23 22 22 22 22 23 23 23
10 8 9 10 9 11 14 15 14 14 13 13 13 13 13 13 14 16 14 14 15 15 16 16 16 16 15 15 15 16 18 19 20 20 22 23 23 22 22 22 22 22 22 22
8 7 9 8 8 11 13 11 12 12 12 12 12 11 11 11 13 13 12 12 14 16 16 16 15 15 15 14 15 14 15 16 16 17 18 20 22 23 22 22 22 22 22 22
6 9 9 8 8 10 10 10 11 12 11 10 10 9 9 9 9 10 11 12 14 15 15 16 15 15 14 14 14 13 14 13 14 15 16 18 19 20 22 23 23 22 22 22
8 9 7 9 8 9 10 11 11 9 8 8 8 8 8 8 10 10 10 12 12 13 14 14 14 14 14 13 14 12 12 13 13 13 15 16 18 19 19 22 23 22 22 22
7 7 6 8 8 9 9 9 8 7 6 7 7 7 7 8 9 10 10 9 11 12 12 13 13 14 14 12 13 12 12 12 13 13 13 15 16 18 19 20 23 22 21 22
8 8 7 7 9 7 8 7 7 7 6 8 9 8 9 9 9 9 9 10 9 10 11 12 13 12 12 13 11 11 13 11 11 12 13 15 15 16 18 19 21 23 22 22
5 8 6 5 6 7 8 7 8 7 8 8 8 8 8 8 8 8 9 9 9 9 10 11 12 12 12 12 12 11 10 11 11 11 13 13 14 15 16 17 20 22 23 23
6 7 5 6 6 7 7 7 7 7 8 8 8 8 7 7 8 8 9 9 8 9 9 10 12 12 12 12 12 11 11 11 11 10 11 12 13 14 15 17 20 22 23 23

GFSCGP_925_temp_078.txt.gz
Temp
22 20 20 21 22 24 25 25 25 26 27 27 24 23 23 23 23 23 24 25 25 25 25 24 24 24 24 23 23 23 23 24 24 23 23 22 23 24 23 23 24 23 23 24
20 20 22 23 23 24 25 24 25 27 27 25 23 23 23 22 22 23 24 24 25 25 24 25 24 24 24 24 23 23 23 24 24 24 24 24 24 24 24 24 23 23 23 24
20 23 24 24 25 25 24 23 25 26 25 23 23 23 24 23 23 23 23 24 25 26 24 24 25 24 23 23 23 24 24 24 24 24 24 24 24 24 24 24 24 24 24 24
23 25 25 24 25 24 24 24 26 26 25 24 24 23 22 23 23 23 23 23 24 25 26 24 24 24 23 23 24 24 24 24 24 24 24 25 25 24 24 25 24 24 24 24
23 24 24 24 24 24 24 24 24 26 25 24 24 23 23 22 21 22 23 24 24 25 26 24 24 24 23 23 23 23 24 24 24 24 24 25 25 25 25 25 24 24 23 24
25 25 24 24 25 24 26 24 20 19 20 22 25 24 24 22 22 23 23 24 25 25 26 25 25 24 24 23 23 22 23 24 24 24 24 25 25 25 25 24 24 24 24 24
23 24 22 23 26 25 23 21 19 21 21 22 21 23 23 23 23 23 23 24 24 26 25 24 24 24 24 23 23 22 23 23 24 24 24 24 25 25 25 25 25 24 24 24
20 21 21 22 22 24 23 21 19 22 19 22 22 23 23 23 22 23 22 23 24 25 24 25 25 25 24 23 23 23 22 23 23 24 25 24 25 25 25 25 25 25 25 25
19 21 20 22 21 21 23 20 20 18 18 21 21 21 23 23 23 22 22 22 22 25 25 24 25 25 24 24 23 23 22 23 23 25 24 24 25 25 25 25 25 25 25 25
18 19 20 20 20 20 19 20 20 18 22 23 21 20 19 20 20 21 21 21 21 21 23 24 24 24 24 24 23 23 23 23 24 24 25 25 25 25 25 25 25 25 25 25
16 17 19 17 16 16 17 16 15 15 16 19 18 19 21 18 18 19 20 20 20 21 22 23 24 23 24 24 24 23 23 23 22 23 23 25 25 25 24 25 26 25 25 25
16 14 14 16 17 17 16 16 13 17 19 14 16 18 18 17 18 18 19 20 20 21 22 22 23 23 24 24 24 23 23 22 23 23 23 23 25 25 25 24 26 26 25 25
18 13 14 17 16 15 15 15 14 11 12 15 17 17 18 17 17 17 18 19 19 19 19 19 19 19 21 22 23 23 23 22 22 22 22 22 23 24 25 25 25 25 26 25
15 12 15 14 15 14 15 16 16 14 14 13 15 17 16 15 16 16 16 18 20 19 19 19 19 19 20 21 22 22 22 22 23 22 22 22 23 24 24 25 25 25 25 26
12 12 13 13 14 15 15 16 17 17 16 17 15 16 16 14 15 15 16 17 17 18 18 18 17 19 18 19 20 21 22 23 22 23 22 22 23 23 23 23 24 25 25 25
10 11 13 13 14 14 15 15 16 16 17 17 17 15 14 15 15 15 15 15 15 16 17 17 17 16 17 16 16 17 19 21 22 22 22 22 22 22 22 23 23 23 24 24
10 10 10 12 12 13 13 15 15 16 16 16 15 15 14 14 15 14 13 14 14 15 15 16 16 16 15 15 15 15 17 19 20 21 22 22 22 22 22 22 22 23 23 24
10 9 8 10 11 14 14 14 15 15 14 14 14 13 13 12 13 14 13 12 13 14 15 15 15 15 15 15 15 15 16 18 19 20 21 21 21 22 21 21 21 22 22 22
8 8 8 10 10 12 14 12 13 13 14 12 12 11 11 11 12 13 12 12 12 13 14 14 15 15 15 14 14 14 15 16 16 17 18 20 21 21 21 21 21 21 21 22
8 7 8 8 9 11 12 11 11 10 11 11 11 10 9 10 12 13 10 11 11 12 13 14 14 14 15 14 14 14 14 15 14 15 16 17 18 20 20 21 21 21 21 21
6 7 8 8 8 10 10 10 10 12 11 9 9 8 8 8 8 9 9 10 10 11 11 12 13 13 14 13 13 13 13 13 14 14 15 15 17 18 19 20 21 21 21 21
8 6 8 8 8 10 10 11 12 9 7 7 7 7 7 7 7 8 9 9 9 10 10 11 11 12 12 13 13 12 12 12 12 14 14 15 16 17 18 18 19 20 21 20
7 7 6 7 8 8 8 9 8 7 6 6 6 8 8 7 7 8 8 9 9 9 9 10 10 11 12 12 12 12 12 11 11 12 14 15 14 16 16 17 18 19 20 21
7 5 4 6 8 7 7 7 7 6 6 6 7 9 9 8 8 8 8 8 8 9 9 9 9 10 10 11 12 11 11 11 11 11 12 14 15 15 16 16 17 18 20 21
5 6 6 4 5 6 7 7 6 7 7 8 8 8 8 8 8 8 7 8 8 8 8 9 9 9 10 11 12 11 10 10 10 11 12 12 12 13 14 15 16 17 18 20
5 6 5 6 6 7 7 6 7 7 7 7 8 8 8 8 8 7 7 7 7 8 9 8 9 9 9 10 11 11 10 8 8 9 10 10 11 12 13 14 15 18 19 19

GFSCGP_925_temp_081.txt.gz
Temp
24 25 25 26 27 27 28 29 29 29 29 29 29 29 28 26 24 24 25 25 26 27 26 26 25 24 23 23 22 21 21 22 22 21 22 22 23 22 22 23 23 23 23 23
24 25 25 27 26 27 28 28 29 29 28 29 27 26 27 27 26 25 25 25 27 27 27 26 25 25 24 24 22 22 21 21 22 22 22 22 22 22 22 23 24 23 23 23
25 26 26 26 26 27 27 28 28 29 28 27 27 27 25 25 26 25 26 26 27 27 28 27 26 25 25 24 23 22 23 22 22 21 22 23 23 23 23 23 23 23 23 23
26 26 26 26 27 28 28 28 28 28 29 30 27 30 26 25 25 25 26 26 27 28 28 28 26 26 25 25 24 23 23 22 23 23 22 22 24 24 24 24 23 23 23 23
26 26 26 26 27 28 28 27 28 28 28 29 28 31 27 25 25 26 27 26 25 27 28 28 27 26 26 25 24 23 22 23 22 24 23 22 24 24 24 23 24 23 23 23
26 26 27 28 28 28 27 27 27 27 28 29 30 30 27 26 25 25 26 27 27 26 28 28 27 27 26 25 24 24 22 22 23 24 24 23 23 23 24 24 24 23 23 23
26 25 25 25 27 27 28 28 27 27 28 29 26 29 25 25 25 25 25 26 28 28 28 28 28 27 26 25 24 24 22 22 22 22 23 23 23 24 24 24 24 24 24 23
26 25 24 24 24 27 28 29 28 27 27 29 26 27 24 25 25 25 25 25 26 28 28 28 28 27 26 25 24 24 23 23 22 22 23 23 23 23 24 24 24 24 24 24
24 23 23 23 23 23 25 27 26 26 24 30 27 26 26 25 24 24 23 24 24 24 28 28 27 27 26 25 24 24 23 23 22 23 22 22 23 23 23 24 25 24 25 24
22 23 21 22 23 24 24 23 27 27 26 28 25 24 25 22 22 22 21 21 22 25 24 27 28 26 26 26 25 24 24 23 23 23 23 23 22 23 23 23 25 24 25 25
21 24 22 22 21 20 24 24 23 26 24 28 26 24 22 21 20 19 20 20 21 23 25 26 27 26 24 26 25 25 24 23 23 23 23 23 23 22 23 23 23 25 25 25
19 21 21 20 20 19 20 20 21 28 24 23 26 23 21 20 20 19 19 20 20 20 22 24 25 26 25 25 25 25 25 24 24 23 23 23 23 23 22 22 24 24 24 25
20 20 21 21 22 21 20 20 20 20 22 23 27 23 21 21 20 19 19 19 20 19 18 18 21 22 23 25 25 25 24 25 24 23 22 22 22 22 23 23 23 24 25 24
19 18 20 23 21 19 20 20 20 22 25 22 23 21 21 20 20 20 19 19 20 19 18 17 16 17 17 19 21 22 22 23 23 24 23 23 22 22 23 23 23 24 24 24
19 18 18 18 18 19 19 19 20 21 20 23 21 22 19 18 18 18 19 19 19 19 19 17 16 16 16 15 16 18 20 21 22 23 23 23 23 23 22 22 23 22 23 23
16 16 17 16 17 17 18 18 19 19 20 20 20 20 18 18 18 18 18 18 18 18 18 18 18 17 15 15 14 15 16 18 20 21 23 23 23 22 22 22 22 22 23 22
16 17 16 17 16 17 18 19 18 19 19 19 20 19 17 17 17 16 16 16 16 16 17 18 18 17 16 15 14 14 15 16 18 19 21 22 22 22 22 22 22 22 22 22
15 15 15 16 16 18 17 17 17 18 18 18 17 17 16 15 16 16 15 15 15 16 16 16 17 16 16 16 14 15 15 15 16 19 20 21 22 22 22 22 21 21 21 22
14 15 13 16 17 16 17 16 16 17 18 15 16 15 15 15 17 15 14 14 14 15 15 15 15 15 15 15 14 14 15 14 14 14 16 17 18 20 21 21 21 21 21 21
14 14 16 14 15 17 16 14 14 14 16 13 14 13 13 15 18 18 14 13 13 13 13 13 14 14 15 14 15 14 13 15 13 12 13 14 16 18 19 20 21 21 21 21
14 14 15 15 15 16 15 14 14 16 16 13 12 12 12 13 13 12 12 12 12 12 12 12 13 13 13 14 14 14 13 13 13 13 13 14 15 16 18 18 19 20 21 21
14 14 13 13 14 14 13 13 14 13 12 12 12 11 11 11 11 11 12 12 11 11 11 12 12 13 13 13 13 14 14 12 13 12 13 13 13 14 16 17 19 19 19 20
13 13 13 14 15 12 12 13 12 12 12 11 11 11 11 11 11 11 11 11 11 10 10 11 11 12 12 12 12 13 13 12 12 12 12 13 13 13 15 16 17 18 19 19
11 10 12 12 14 12 12 12 11 11 11 11 11 11 11 11 11 11 11 11 10 10 10 10 10 11 11 11 11 12 12 12 12 11 11 12 13 13 13 14 16 16 18 18
11 10 10 11 11 11 11 11 12 11 10 11 11 11 11 11 11 11 11 10 10 9 9 10 10 10 11 11 11 11 12 11 11 12 12 12 12 12 13 13 14 15 16 17
10 10 10 12 14 13 13 12 11 11 11 11 11 11 11 10 10 10 10 9 8 8 8 9 10 10 10 11 11 11 11 10 10 10 11 12 12 12 12 12 13 14 16 16

GFSCGP_925_temp_084.txt.gz
Temp
28 29 29 31 33 33 34 34 33 33 33 34 33 32 29 27 27 27 28 29 30 30 30 29 28 27 27 26 25 24 24 24 23 24 25 25 25 25 25 25 24 23 23 23
28 29 31 32 31 31 33 33 32 33 33 34 33 32 31 27 27 28 28 27 30 31 31 29 29 28 27 27 25 24 24 23 23 24 25 26 26 26 24 23 24 24 23 23
29 31 30 30 30 31 32 33 32 33 32 33 33 31 31 30 27 27 27 29 29 30 31 30 29 29 28 27 26 25 24 24 23 25 24 24 24 25 25 25 25 24 23 23
30 30 29 30 30 31 32 32 32 32 33 33 34 30 30 29 27 27 28 27 30 30 30 31 30 29 29 28 27 25 24 24 23 23 25 25 26 27 27 26 26 24 24 23
29 29 29 30 31 32 32 32 32 32 33 33 33 34 30 27 27 28 28 27 28 30 31 31 30 29 29 28 28 26 25 24 24 24 24 25 24 27 26 27 25 25 23 23
30 31 30 31 31 31 31 31 31 32 34 32 34 34 30 30 28 29 29 30 29 30 31 31 31 30 29 29 28 27 25 24 23 23 23 24 25 26 27 25 26 26 26 24
28 29 29 29 30 31 31 32 30 30 31 33 34 33 29 28 28 28 28 29 31 30 29 31 31 30 30 29 28 28 26 24 24 24 24 24 24 25 25 25 25 27 27 27
28 26 28 28 30 30 30 32 32 30 31 33 32 31 28 28 28 28 28 29 30 32 32 30 29 30 30 29 28 27 27 25 24 24 24 24 24 25 25 26 27 26 27 27
29 26 27 27 28 28 30 31 34 33 35 34 33 28 29 29 27 26 24 24 27 29 32 31 29 30 30 29 28 28 27 25 25 25 24 24 24 24 26 26 26 26 26 27
28 26 27 26 27 28 30 32 30 32 31 31 31 29 29 27 25 24 22 22 23 29 28 29 31 31 30 29 29 28 27 26 25 25 25 25 25 24 24 25 25 25 26 26
28 28 26 27 27 28 29 30 30 33 32 32 30 30 27 25 22 22 21 20 20 21 26 29 29 29 29 29 29 28 28 27 26 26 26 26 25 25 24 24 24 24 25 25
26 29 27 27 25 24 26 28 29 31 30 32 33 27 26 25 23 23 22 20 20 20 22 20 20 23 27 27 29 29 28 28 27 27 26 26 25 25 25 24 25 24 24 25
25 27 26 25 26 25 27 26 27 29 31 31 31 25 26 25 24 23 22 22 20 19 19 19 19 19 19 20 24 27 28 28 28 27 26 25 25 25 24 25 25 25 24 24
23 26 26 27 26 27 25 25 26 28 30 31 30 24 24 25 24 24 22 23 21 20 19 19 18 17 17 18 19 19 22 26 27 28 27 25 24 24 24 23 25 25 24 24
24 24 24 24 24 24 24 25 25 26 27 29 27 26 24 23 23 23 23 22 22 22 21 20 19 18 18 17 16 16 18 20 22 25 26 27 25 24 23 23 23 24 25 24
23 22 23 22 22 22 24 24 23 24 25 26 27 24 23 23 23 22 22 21 21 21 21 22 21 20 19 18 17 15 15 16 17 21 23 25 25 25 25 24 23 23 24 24
22 22 22 24 21 22 23 24 24 24 24 25 25 24 23 22 21 21 21 21 20 20 20 20 21 20 19 19 19 17 15 15 15 17 21 22 23 23 24 24 24 23 23 24
21 21 22 23 21 22 22 22 23 24 23 23 22 22 22 21 20 20 19 19 19 19 19 19 19 19 19 19 18 18 18 16 15 14 15 16 18 20 23 23 23 23 23 24
20 21 21 21 23 22 21 20 22 22 21 21 22 20 20 20 21 19 18 18 18 18 18 18 18 18 18 18 18 18 18 18 16 14 13 14 15 16 18 21 23 23 23 23
20 20 20 20 20 21 22 19 20 21 22 19 20 19 19 20 22 19 17 17 17 17 16 16 16 17 17 17 17 18 19 18 17 16 15 13 14 15 15 18 20 21 22 23
18 19 19 20 20 21 20 18 19 20 19 17 18 18 18 19 19 17 17 17 16 16 15 15 15 16 16 16 16 17 18 18 16 15 15 16 14 14 14 15 17 19 21 21
18 18 19 20 19 18 19 18 19 18 17 17 17 17 16 16 16 16 16 16 16 15 15 15 15 15 15 15 15 16 16 16 16 15 15 15 15 16 15 15 15 17 19 20
17 19 18 19 20 18 18 19 17 18 17 17 16 16 16 16 16 15 15 15 15 15 14 14 14 14 14 14 14 14 15 14 15 15 15 15 14 15 16 16 15 16 17 19
17 16 16 16 19 17 17 17 17 17 17 16 15 15 15 15 15 15 15 15 14 14 13 13 13 13 13 13 13 13 13 14 14 14 15 16 16 14 15 17 18 17 16 17
17 15 15 15 17 17 17 17 16 15 15 15 15 15 15 14 15 14 14 13 12 11 11 10 10 11 11 12 13 13 13 13 14 14 15 15 17 17 15 15 17 17 17 16
16 15 14 15 18 18 18 16 16 15 15 15 15 15 14 14 14 13 13 12 11 10 10 10 8 9 10 10 11 12 13 13 13 13 14 16 15 16 17 16 16 16 15 14

GFSCGP_925_temp_087.txt.gz
Temp
31 32 32 33 35 37 37 37 35 30 36 35 33 32 28 26 27 28 29 29 30 31 32 31 31 30 29 28 27 26 26 25 26 26 27 26 26 26 25 26 25 25 24 24
31 31 34 35 36 36 36 37 36 33 36 36 35 33 31 30 31 30 29 29 29 31 32 31 30 30 30 28 27 26 26 25 25 26 27 28 25 26 27 26 26 25 25 24
31 33 35 34 35 34 36 37 36 36 35 37 36 32 31 29 31 30 29 30 29 31 32 30 30 30 30 29 27 26 26 25 25 26 26 26 26 25 27 26 26 26 25 25
32 35 34 33 33 34 35 37 36 36 35 35 37 33 33 30 29 30 29 28 29 30 31 31 29 30 31 29 28 26 25 25 25 25 26 26 27 28 27 27 25 26 26 25
32 33 32 32 33 34 36 37 36 36 35 36 36 30 25 33 30 30 29 29 30 29 32 30 30 29 31 30 28 27 25 25 25 25 24 26 26 27 26 27 26 26 25 25
33 34 33 33 34 35 35 36 35 35 36 35 37 35 25 32 32 32 30 29 31 30 29 31 31 29 30 31 30 28 26 25 25 25 25 25 27 26 26 27 27 27 26 25
31 32 33 34 33 34 34 33 32 32 33 35 37 35 27 31 32 33 31 32 32 31 29 31 28 30 30 31 31 29 27 25 25 25 25 25 25 26 26 26 27 26 27 27
30 30 32 33 33 32 33 34 34 31 33 35 38 33 30 31 32 31 30 32 32 34 33 29 31 30 30 31 31 30 28 26 25 25 25 25 25 26 26 26 27 28 28 29
31 31 31 31 33 32 33 33 37 36 37 36 34 30 31 31 30 26 24 26 30 33 34 32 31 28 30 31 31 30 29 27 26 26 25 25 25 25 27 28 27 27 28 25
31 29 31 31 31 32 32 35 34 35 33 34 33 31 32 30 28 24 22 23 26 29 33 32 31 27 23 30 30 30 29 28 27 27 26 26 26 25 26 27 26 27 28 27
31 31 29 30 30 31 32 32 34 36 36 35 32 31 32 28 25 23 21 21 21 24 25 27 23 22 23 30 30 30 30 29 28 27 27 27 26 26 25 26 26 26 26 26
31 31 29 30 31 30 32 33 33 33 33 35 33 29 30 28 27 23 21 20 22 23 23 22 22 20 20 22 22 21 29 30 29 28 28 27 27 27 27 26 26 26 25 26
29 30 29 28 29 30 30 32 32 34 35 33 34 28 29 28 28 25 22 22 21 22 23 22 20 20 19 19 20 20 21 23 28 29 29 28 28 27 27 27 26 26 25 25
24 30 30 28 30 31 30 30 31 32 32 33 33 28 28 27 25 23 23 22 21 21 22 22 22 19 18 17 17 18 18 20 22 25 27 29 27 27 27 27 26 26 26 25
28 27 28 28 28 30 30 30 29 30 31 31 29 28 28 27 27 24 23 23 23 22 22 21 21 20 19 18 17 16 16 17 18 21 24 24 27 26 26 26 25 25 26 26
28 26 27 27 27 27 28 28 28 29 30 31 30 27 27 27 26 26 25 23 22 22 23 23 23 22 21 20 18 17 16 16 16 17 18 20 21 24 25 26 24 24 23 25
26 27 26 26 27 27 26 28 28 29 29 31 29 27 26 26 25 25 24 23 23 22 22 23 23 22 22 22 21 19 17 17 16 15 15 17 18 20 22 23 24 24 24 24
25 25 26 26 25 24 27 27 29 28 28 28 27 26 26 25 24 23 23 22 22 21 22 22 21 21 21 21 20 20 21 18 17 16 15 15 15 16 17 20 21 23 24 24
25 25 25 25 25 26 25 25 26 27 26 27 26 25 24 24 24 21 21 21 21 21 21 20 20 20 20 20 20 20 21 21 20 18 17 15 15 15 15 17 17 19 21 23
25 24 24 24 23 24 26 25 25 27 25 25 25 24 24 24 24 22 21 21 20 20 19 19 19 20 20 19 19 19 20 20 20 19 18 18 16 15 16 16 16 17 18 21
22 22 22 23 23 25 24 23 23 22 23 23 24 23 23 23 22 20 20 20 19 19 19 18 18 18 18 18 18 18 18 19 18 18 18 18 17 17 17 17 16 16 17 18
22 21 22 23 23 22 23 22 22 21 21 22 21 21 21 20 20 20 20 19 19 19 18 18 18 18 17 17 17 17 17 17 16 16 17 17 18 17 18 17 17 17 16 17
21 23 22 23 22 21 22 22 21 22 21 20 20 20 19 19 19 19 19 18 18 17 17 17 16 16 16 16 16 16 16 15 15 16 16 17 17 18 18 17 18 20 19 19
21 21 20 20 22 21 21 21 21 21 20 20 20 19 19 19 18 18 18 17 17 16 15 15 14 14 14 13 13 14 15 15 15 15 15 16 17 18 18 18 19 21 22 22
20 20 19 19 21 20 20 20 20 19 19 19 19 19 18 18 18 17 17 16 15 14 14 13 13 12 12 12 12 13 14 14 15 15 16 16 18 18 19 19 20 19 19 19
21 19 17 17 20 20 21 20 19 18 18 18 18 18 17 17 17 16 16 15 14 13 13 13 12 11 11 10 10 11 11 11 13 14 16 17 17 18 18 19 20 20 19 18

GFSCGP_925_temp_090.txt.gz
Temp
31 30 31 33 34 36 37 37 35 32 33 34 31 28 28 28 29 30 30 31 31 31 32 31 31 31 30 28 27 27 27 26 25 26 25 25 25 25 25 25 25 24 25 24
31 30 34 35 36 35 36 37 32 29 30 24 30 29 29 28 27 26 27 30 30 30 31 31 31 31 30 28 27 27 26 26 26 26 26 26 25 25 25 25 25 25 25 25
32 33 34 35 35 35 36 36 34 32 31 26 25 25 29 27 28 29 29 30 30 30 30 32 32 31 30 28 27 26 25 25 25 26 26 25 23 24 24 25 25 25 25 25
32 35 34 35 35 36 35 37 35 30 32 32 34 28 29 28 27 28 29 28 28 30 29 32 31 30 31 28 27 26 26 25 25 25 26 26 24 24 26 26 26 26 25 25
32 34 34 34 35 36 36 37 34 35 36 36 36 32 24 21 30 29 29 29 28 28 31 32 31 30 30 29 28 26 25 24 25 25 25 25 26 26 26 25 26 25 25 25
33 35 35 35 35 36 37 37 36 36 37 34 33 33 27 22 23 30 31 30 30 30 31 31 30 29 28 29 28 26 25 25 25 25 25 25 25 25 24 24 25 25 26 25
32 34 35 35 34 35 35 35 33 33 33 34 36 34 27 23 21 21 29 30 31 30 31 31 29 29 29 29 29 27 25 25 25 24 25 24 25 25 25 25 26 25 26 25
31 31 33 34 34 34 34 35 34 32 33 34 37 31 27 25 24 27 31 30 24 23 30 31 30 30 29 29 29 28 25 25 25 25 25 25 25 25 25 26 26 27 26 26
31 32 34 35 35 33 34 33 37 36 36 36 33 31 29 29 27 27 27 27 27 24 29 32 31 30 29 29 30 29 26 25 25 25 25 25 25 25 26 27 28 27 26 25
31 29 33 33 33 33 33 35 33 35 32 33 32 30 30 29 26 24 24 23 24 24 24 25 23 28 29 28 26 29 27 26 25 25 25 25 25 25 26 26 27 27 27 27
31 30 31 32 31 31 32 32 33 35 35 34 31 30 31 29 25 24 23 24 24 22 21 21 20 20 22 21 24 20 23 27 27 26 26 26 25 25 25 26 26 27 26 25
31 30 30 31 33 33 34 33 34 32 32 31 26 24 26 27 25 24 22 23 23 21 20 20 21 20 19 19 19 20 20 23 26 27 27 26 26 26 25 25 26 26 26 26
28 30 30 30 31 32 31 33 34 34 35 30 29 27 25 26 24 24 22 22 22 22 20 19 19 19 18 17 18 18 19 21 22 25 27 27 27 27 27 26 26 26 25 25
26 29 28 26 29 32 30 32 33 33 32 33 28 28 25 24 24 23 23 22 22 22 22 20 20 18 18 16 17 17 17 18 20 20 22 24 27 27 27 27 26 26 26 25
28 27 28 28 30 31 32 31 32 31 32 27 26 27 25 24 24 23 23 23 23 23 23 22 22 21 20 18 18 16 16 16 18 18 18 20 21 25 27 27 27 26 26 25
28 26 28 27 29 29 30 31 30 31 31 30 25 24 24 25 25 24 23 23 23 23 23 23 23 23 22 21 18 18 17 16 17 16 16 18 21 19 23 24 24 24 25 25
27 27 26 26 28 28 27 29 29 30 31 29 26 22 25 26 25 25 24 24 23 23 23 23 22 22 22 21 21 18 18 18 17 17 16 17 17 17 18 19 21 22 23 23
26 26 26 26 27 25 29 30 31 30 30 30 28 27 26 26 25 25 24 23 22 22 22 22 22 21 21 21 20 21 21 19 19 18 18 17 16 16 18 19 19 20 21 21
27 26 25 25 25 27 27 27 29 29 28 29 27 25 25 25 24 22 23 23 22 22 21 21 21 21 20 20 20 20 21 21 20 19 19 18 18 17 16 17 18 19 19 19
26 25 24 25 24 24 25 27 28 29 27 29 27 26 25 25 23 22 22 23 22 21 20 20 20 21 20 19 20 19 20 20 19 18 18 18 18 18 18 17 17 17 17 18
23 23 23 24 24 25 25 25 26 25 25 28 27 26 25 23 22 22 22 21 21 20 20 19 19 19 19 18 18 18 18 18 17 17 17 17 18 18 18 18 17 17 18 18
23 22 23 24 24 23 25 24 24 23 24 25 25 25 22 22 21 21 21 20 20 20 19 19 19 18 18 17 17 17 17 16 16 16 16 16 17 17 18 18 17 18 18 18
22 22 22 22 22 23 24 23 23 23 22 22 22 22 22 21 21 20 20 20 19 18 18 17 17 17 16 15 14 14 14 14 15 15 15 16 16 16 17 18 18 18 20 20
23 23 21 22 22 22 23 23 23 23 22 22 22 21 21 21 20 20 19 19 18 16 16 16 15 15 14 13 13 13 14 14 13 14 15 16 16 17 17 18 19 20 20 21
21 22 21 21 22 22 22 22 21 22 21 21 21 20 20 20 19 19 18 17 16 15 15 14 14 14 13 12 12 12 12 11 12 12 14 15 17 17 18 19 19 19 20 20
21 21 19 18 21 21 21 21 21 20 20 20 20 19 19 19 18 17 17 16 15 15 14 14 13 13 12 12 11 10 10 10 10 11 12 13 14 15 16 17 18 19 19 20

GFSCGP_925_temp_093.txt.gz
Temp
28 26 24 26 28 31 32 32 30 25 27 24 25 25 25 26 27 28 29 29 29 30 29 31 29 28 27 28 27 27 26 26 26 25 25 25 25 25 25 25 25 24 24 25
27 25 27 30 31 31 32 32 26 25 25 25 25 26 26 26 27 28 27 28 29 29 29 29 28 27 27 27 27 26 26 26 26 26 25 25 25 24 24 25 25 24 24 24
26 28 30 31 31 32 31 31 29 28 25 24 25 24 25 26 28 28 27 28 28 28 29 27 29 27 27 27 27 26 26 26 26 25 25 25 25 25 25 24 24 24 25 24
28 30 31 31 31 32 29 33 33 28 27 25 26 23 22 25 25 26 27 27 27 28 28 29 29 27 26 26 27 26 26 26 26 24 25 26 25 24 25 25 25 25 25 24
28 30 30 31 32 32 31 33 32 31 29 26 26 24 24 24 25 25 26 27 27 29 28 29 28 28 26 26 26 26 25 25 26 25 25 25 25 25 25 25 25 25 25 25
29 32 31 31 33 33 34 33 32 29 26 27 28 26 23 23 25 24 27 27 27 28 27 29 29 29 26 26 26 26 25 25 25 25 24 25 25 25 25 25 25 25 25 25
30 30 32 33 32 32 32 32 27 27 26 26 28 27 23 24 23 24 23 22 28 25 28 28 27 28 27 26 25 25 25 24 25 25 25 25 25 25 25 25 25 25 25 25
26 27 30 33 32 30 30 29 26 28 27 29 30 23 23 24 25 24 23 23 23 23 22 25 27 28 27 27 25 25 25 25 24 25 25 25 25 24 25 25 25 25 26 25
26 28 32 33 33 31 30 29 30 30 30 29 26 24 23 24 23 23 23 22 22 22 23 23 24 28 28 27 26 25 25 25 25 24 25 25 25 25 25 26 26 26 26 26
28 25 29 33 33 33 31 30 27 27 28 29 25 24 23 24 24 23 22 21 21 21 23 22 22 22 21 22 26 25 24 24 25 25 25 25 25 26 26 26 26 26 25 26
26 26 27 31 30 29 29 27 29 28 28 27 23 24 22 23 23 22 22 21 20 20 20 20 19 19 20 21 20 21 21 22 22 24 25 25 25 25 26 26 26 26 26 25
25 25 25 28 31 31 29 29 28 25 27 25 23 21 21 23 22 22 21 20 19 19 19 19 19 18 19 19 20 21 20 20 21 21 22 25 25 25 25 25 25 26 26 26
24 23 23 26 29 29 29 29 29 28 26 27 25 21 21 21 22 21 21 20 19 19 18 18 17 17 17 17 18 19 19 21 19 19 22 23 25 25 25 25 25 25 25 25
22 25 22 21 25 27 29 29 29 29 25 25 24 21 22 21 20 21 20 21 20 20 19 18 17 16 16 17 17 17 18 19 20 20 21 21 23 24 25 25 26 26 25 25
23 23 23 25 27 28 28 29 30 30 26 24 24 23 22 22 21 21 21 21 21 21 20 19 19 18 17 17 17 17 17 17 19 19 20 20 20 21 23 23 25 26 25 25
26 21 23 23 28 28 27 29 30 30 26 24 23 21 22 21 22 22 22 22 22 21 21 21 20 19 18 18 17 17 16 17 18 18 18 19 19 19 21 21 21 25 25 25
24 22 23 22 24 26 25 26 27 28 26 25 22 19 20 22 22 22 22 22 21 20 19 19 19 19 20 18 18 18 17 18 18 17 17 17 17 19 19 19 20 20 22 23
23 22 21 21 22 23 26 25 27 29 27 23 21 21 22 22 23 21 20 20 19 19 19 19 20 20 20 20 20 18 18 18 18 18 17 18 18 17 18 18 18 19 20 21
23 21 21 20 20 23 27 27 26 25 24 23 22 23 23 22 21 20 20 19 18 18 19 20 20 19 19 19 19 19 18 18 18 17 18 18 17 18 18 18 17 18 18 19
21 21 19 20 21 21 23 24 25 26 22 23 23 22 22 22 19 17 19 19 19 19 19 19 19 18 18 18 18 18 17 17 16 16 16 17 17 18 18 18 18 18 18 18
19 19 19 19 20 22 24 24 24 23 21 23 22 21 21 18 19 18 18 18 20 19 19 19 18 17 17 17 17 16 15 15 15 16 16 16 16 16 17 17 18 18 19 19
20 18 19 19 20 20 22 23 21 20 20 20 20 19 19 18 18 17 17 17 19 18 18 17 17 15 14 14 14 14 14 14 14 14 15 15 15 16 16 17 18 18 19 19
19 18 18 18 18 19 19 19 19 19 18 18 19 19 19 18 17 17 16 15 16 16 16 15 15 14 13 13 13 12 11 12 12 12 13 14 15 16 16 17 17 18 19 19
20 20 17 17 19 20 20 19 20 20 19 19 18 18 19 17 17 15 14 14 15 15 15 14 14 13 13 12 12 11 11 11 11 11 11 12 13 13 15 16 17 18 19 19
18 19 18 17 19 20 20 20 20 19 19 18 18 19 17 17 16 15 13 14 14 14 14 14 13 13 12 12 11 10 10 10 10 10 10 10 10 11 12 13 14 15 16 17
15 15 14 15 18 18 19 18 19 18 18 18 18 17 18 17 15 15 14 14 14 14 13 13 12 12 11 10 10 10 10 9 9 9 9 9 10 10 11 11 12 13 14 15

GFSCGP_925_temp_096.txt.gz
Temp
26 24 24 25 25 26 27 28 25 24 24 24 24 25 25 24 26 27 28 26 28 28 27 27 26 26 26 26 26 26 26 25 25 25 25 24 25 25 25 24 24 24 24 24
24 24 25 27 27 27 27 29 25 25 24 24 24 25 25 25 23 27 27 26 27 28 27 26 26 26 26 26 26 26 26 25 25 25 25 25 24 24 24 24 24 24 24 24
23 26 28 27 27 27 27 28 25 25 23 23 24 23 23 25 25 26 27 27 27 27 26 25 25 26 25 26 26 26 26 26 26 25 25 25 24 24 24 24 24 24 24 24
25 27 28 27 27 27 25 29 29 25 25 23 25 23 21 23 24 27 27 27 27 28 26 26 25 25 25 26 26 26 26 26 26 25 25 25 24 24 24 24 24 24 24 24
25 27 27 27 28 28 28 31 30 27 24 24 23 23 22 21 24 26 26 26 27 28 27 26 25 25 26 26 26 26 26 26 25 25 25 25 25 24 25 24 24 24 24 24
26 28 28 28 30 30 31 30 27 25 24 24 24 25 23 22 24 26 27 26 27 27 26 27 26 25 25 25 25 26 26 26 25 25 24 24 25 24 24 25 25 24 24 24
26 27 28 29 28 29 31 25 23 24 24 24 25 25 24 25 26 26 27 26 22 23 26 26 26 25 25 25 24 25 25 25 25 25 24 24 24 25 25 25 25 24 24 24
23 24 28 30 28 28 29 26 23 25 25 26 26 26 24 25 25 25 25 24 23 22 22 23 25 25 25 25 24 24 25 25 25 25 24 24 24 25 25 24 25 25 25 25
24 24 28 30 31 29 29 27 26 26 26 25 23 22 23 22 22 22 23 22 21 23 22 22 22 25 25 25 24 24 25 25 25 24 24 24 24 25 25 25 25 25 25 25
24 25 26 28 30 29 28 28 27 23 27 25 22 22 21 21 21 22 21 20 20 21 23 22 21 22 24 24 24 24 23 23 24 24 24 25 25 25 25 25 25 25 25 26
24 22 24 26 27 26 26 26 25 24 24 24 22 22 23 22 22 21 20 20 19 19 20 19 19 19 20 21 21 21 22 23 23 23 24 24 25 25 25 25 25 25 25 25
22 20 21 25 26 28 27 26 23 23 27 21 20 22 21 21 20 20 19 19 19 18 18 19 19 19 19 20 19 19 20 21 22 22 23 24 24 25 25 25 25 25 25 25
23 20 20 23 23 25 27 28 24 22 23 23 21 22 20 20 20 20 19 18 18 18 17 17 17 17 18 19 19 19 20 20 21 21 23 24 24 25 25 25 25 25 25 25
21 19 20 21 23 24 25 26 27 23 22 21 20 21 20 20 19 20 19 19 19 18 17 17 16 16 16 17 18 19 18 19 20 19 20 22 20 21 24 24 25 25 25 25
22 20 22 23 23 25 26 25 25 25 23 23 21 21 20 19 20 20 20 20 19 19 19 17 16 16 16 16 16 17 17 18 18 18 19 22 21 19 20 22 22 25 25 25
20 23 21 22 23 24 25 25 26 27 23 22 21 20 20 20 20 20 20 20 20 20 19 19 18 18 17 17 16 16 16 17 18 18 18 20 20 20 20 20 20 22 24 24
19 19 20 21 21 23 22 23 25 25 24 21 21 20 20 20 21 21 21 20 20 20 19 18 17 17 17 17 17 17 17 17 17 17 17 17 18 19 20 19 19 20 20 20
19 18 17 19 20 21 22 22 24 23 22 21 20 20 20 21 21 21 21 19 19 18 17 17 17 18 17 18 17 17 17 17 17 17 16 16 16 16 17 18 17 18 18 18
19 16 17 18 18 21 23 22 22 22 19 21 20 20 21 20 19 19 19 18 17 16 17 17 17 17 17 17 17 16 16 16 16 16 16 16 16 17 17 17 18 18 18 18
18 16 16 16 19 20 21 23 23 21 18 21 21 21 20 20 17 17 18 17 17 17 17 17 16 17 16 15 16 15 14 14 14 15 15 16 16 16 16 17 17 17 18 18
15 15 17 17 18 19 20 21 23 20 18 18 20 20 20 19 18 16 16 16 17 17 16 15 15 14 14 14 14 13 13 12 13 14 14 15 15 16 16 16 17 17 18 18
17 16 15 16 17 19 19 20 19 18 17 17 17 16 16 17 17 16 15 14 14 14 13 14 13 13 13 13 13 11 11 11 12 13 14 14 14 14 15 15 16 17 17 18
16 16 15 15 15 16 16 17 17 17 16 15 14 15 16 16 15 14 13 13 13 13 13 13 13 12 12 12 12 10 10 11 11 12 11 12 13 13 13 14 15 15 16 15
15 16 15 15 16 18 17 17 17 17 16 15 14 14 16 16 15 13 13 12 12 13 13 13 13 12 11 11 10 10 10 10 10 10 10 10 11 11 12 12 12 13 13 12
14 16 15 14 17 18 18 17 16 16 16 16 16 16 15 14 13 12 11 11 12 13 13 13 12 11 10 10 10 9 9 9 9 9 9 9 9 10 10 10 10 11 11 11
12 13 12 12 13 13 15 16 17 16 16 15 15 14 14 14 12 12 11 12 13 12 12 12 11 10 10 10 10 9 9 9 9 9 9 9 9 9 9 9 9 10 10 11

GFSCGP_925_temp_099.txt.gz
Temp
23 22 22 24 24 26 26 27 24 24 23 23 24 25 25 24 25 26 26 25 26 25 26 25 24 24 24 25 24 24 24 24 25 24 24 24 24 24 24 24 24 24 24 24
22 22 24 25 26 27 26 27 23 24 23 24 25 25 25 24 25 27 26 25 25 26 25 25 24 24 24 24 24 25 25 24 25 25 24 24 24 24 24 24 24 24 24 24
22 25 25 27 27 26 26 27 24 25 24 23 24 24 24 24 25 24 27 26 26 26 25 25 24 24 24 24 25 25 25 25 25 25 24 24 24 24 24 24 24 24 24 24
24 25 27 26 26 25 26 25 28 24 23 23 24 24 22 23 22 23 26 25 27 26 25 25 24 24 24 25 25 25 25 25 25 25 25 25 24 24 24 24 24 24 24 24
24 26 26 25 26 26 26 27 28 25 23 22 23 23 23 21 23 23 25 26 26 26 25 25 25 24 24 24 25 25 25 25 25 25 25 24 24 24 24 24 24 24 24 23
24 27 26 26 27 27 28 26 23 21 21 23 22 24 23 21 24 24 26 26 26 26 25 25 25 25 24 24 24 25 25 25 25 25 24 24 24 24 24 24 24 24 24 24
24 25 26 28 28 27 27 23 22 22 23 23 21 23 24 23 24 26 26 25 25 25 25 25 25 25 24 23 23 24 25 25 25 24 25 24 24 24 24 24 25 24 24 24
22 23 26 27 26 26 24 23 22 24 23 23 23 24 23 22 25 26 27 25 23 23 23 23 24 25 24 24 24 24 24 25 24 24 24 25 24 24 25 25 25 25 24 24
21 23 26 28 28 27 26 25 24 23 24 23 21 22 23 23 23 24 22 22 21 22 22 22 22 24 24 24 23 24 24 24 24 24 24 24 24 24 24 24 24 24 24 24
22 23 25 27 28 27 26 25 25 21 23 24 21 21 21 21 22 21 20 20 20 21 21 22 21 21 22 24 23 23 24 23 24 24 24 24 24 24 24 24 24 24 25 25
22 21 24 25 26 25 25 25 21 21 21 21 21 22 22 20 21 20 20 20 20 20 20 20 20 19 21 22 23 22 23 22 24 23 23 23 24 24 24 25 25 25 25 25
22 19 22 25 25 24 25 25 22 22 24 19 20 21 21 21 20 20 19 19 19 19 19 19 19 19 19 19 20 20 21 20 22 23 23 23 23 24 24 24 24 25 25 25
22 20 20 23 23 23 23 25 22 21 20 20 21 21 21 20 19 19 19 19 18 18 17 17 17 18 19 20 22 20 21 20 19 19 20 22 23 23 23 23 24 24 25 25
20 18 19 20 22 22 24 25 24 23 22 19 19 21 20 20 20 19 19 19 18 17 17 17 17 16 17 18 19 19 19 20 19 19 20 20 21 21 21 22 23 24 24 24
19 20 21 22 22 23 24 24 24 24 23 24 20 21 21 20 20 18 19 18 18 18 17 17 16 15 16 16 17 18 18 18 19 19 19 19 18 20 20 19 21 22 23 23
17 19 21 22 23 22 23 23 24 23 21 20 22 21 21 19 18 18 19 19 19 18 18 18 17 16 16 16 16 16 17 17 18 18 18 18 18 19 19 19 19 20 22 22
18 17 18 20 20 23 21 21 21 22 22 22 21 21 19 19 19 19 18 19 18 18 18 17 16 16 16 16 16 15 15 16 16 16 17 17 17 18 18 18 18 19 20 20
18 17 16 17 20 20 22 22 21 20 20 20 19 19 19 19 19 19 19 18 18 18 17 17 16 16 15 15 15 16 15 15 15 15 15 16 16 16 16 16 16 17 18 18
16 14 15 17 18 20 23 22 21 21 19 20 20 19 20 20 18 18 18 18 17 17 15 15 14 14 15 15 15 15 15 15 15 14 15 15 15 15 15 16 16 16 17 17
16 14 16 15 19 18 20 21 21 20 19 21 20 20 19 19 17 17 17 17 16 15 14 13 14 14 15 14 15 15 13 14 13 13 14 15 15 15 15 16 16 16 17 18
14 13 15 15 17 18 20 19 20 21 18 19 20 18 18 17 16 14 15 15 15 14 13 13 14 13 13 14 15 13 13 12 12 13 14 14 15 15 15 16 16 17 17 18
15 14 14 13 15 19 17 18 21 17 16 16 16 15 14 14 15 14 13 13 13 12 12 13 12 11 12 13 14 12 11 11 12 13 13 13 13 13 14 15 15 15 16 16
16 14 14 14 14 14 15 16 15 15 15 14 15 14 14 14 14 13 12 12 12 12 11 12 12 11 11 11 12 11 10 11 11 11 11 11 12 12 12 13 13 13 13 13
16 14 14 14 17 17 17 16 14 14 13 13 14 15 14 13 13 12 12 11 11 11 11 12 11 10 10 10 10 10 9 10 10 10 10 10 10 11 11 11 11 11 10 11
13 14 13 13 16 17 16 16 15 14 13 14 14 14 14 13 12 12 11 11 11 11 11 11 10 10 9 10 9 9 9 9 9 9 9 9 9 9 9 9 9 9 9 9
11 13 12 12 12 12 15 16 15 15 15 14 14 13 14 13 12 12 11 11 11 11 11 10 10 10 9 9 9 9 9 9 9 8 8 8 8 8 8 8 8 8 8 8

GFSCGP_925_temp_102.txt.gz
Temp
23 21 21 23 24 24 26 26 24 23 23 23 22 24 23 24 26 24 25 24 23 24 25 23 23 23 23 24 24 23 24 24 24 24 24 23 24 23 23 23 23 24 23 24
21 21 23 24 24 25 24 24 23 23 23 23 23 23 24 23 23 23 24 25 24 25 23 24 23 23 24 24 24 23 24 24 24 25 24 24 24 23 23 23 23 23 23 23
21 24 24 25 25 25 25 25 22 24 23 22 23 23 23 24 25 24 24 25 25 24 24 22 23 23 23 24 24 24 24 24 24 24 24 24 24 23 23 23 23 23 23 23
24 25 25 25 25 24 25 25 26 23 23 22 23 23 22 24 23 24 25 24 24 24 24 23 23 23 23 24 24 24 24 24 24 24 24 24 24 24 24 24 24 24 23 23
24 24 25 25 25 25 26 27 25 24 22 22 23 23 22 22 22 22 22 24 25 24 24 23 23 23 23 24 24 24 24 24 24 24 24 24 24 24 24 24 24 24 23 23
24 26 25 25 26 26 26 24 21 21 21 22 23 23 22 21 23 23 23 24 25 25 24 24 24 24 23 23 24 24 24 24 24 24 24 24 24 24 24 23 23 24 23 23
24 25 26 26 26 26 26 22 20 21 21 22 21 23 23 22 23 24 24 25 25 25 24 25 24 24 23 23 23 24 24 24 24 24 24 24 24 24 24 24 24 24 24 24
21 23 24 25 25 24 22 22 21 23 21 22 22 23 24 22 22 24 26 25 24 24 24 24 24 24 24 23 23 23 24 24 24 24 24 24 24 24 23 24 24 24 24 24
20 22 25 25 25 26 25 23 23 21 22 22 21 22 22 22 23 23 22 23 23 23 23 23 23 24 24 23 23 23 23 23 24 24 23 24 24 24 24 24 24 24 24 24
22 22 24 26 26 26 24 23 24 20 22 23 21 21 22 22 22 21 21 20 21 22 21 21 21 23 24 24 23 23 22 23 23 23 23 24 24 24 24 24 24 24 24 24
21 20 23 24 25 24 24 24 20 20 20 21 21 21 21 21 21 21 20 20 20 20 21 20 20 21 23 23 23 23 23 23 22 23 23 23 23 24 24 24 24 24 24 24
21 17 21 24 24 23 25 24 21 21 22 19 20 20 21 21 21 20 20 19 19 19 19 20 19 20 21 20 19 20 22 22 22 22 22 23 23 23 23 24 23 23 24 24
21 18 20 22 22 23 23 24 21 19 18 20 22 20 20 20 20 20 19 19 18 18 18 18 19 19 19 19 19 19 19 19 21 19 21 21 21 22 23 23 23 24 24 24
19 17 20 20 21 20 23 23 23 21 21 19 20 21 21 20 20 19 19 19 18 18 18 17 17 17 19 20 19 18 18 19 19 19 20 19 20 20 21 21 22 22 23 24
18 20 21 22 21 22 22 21 22 24 22 24 21 20 21 20 20 19 19 18 18 17 17 17 16 16 17 18 18 18 18 18 19 19 18 18 19 19 20 20 21 21 21 21
16 19 20 22 22 22 22 21 20 22 21 20 20 20 19 20 19 19 19 18 18 17 17 17 16 16 16 16 16 17 17 18 18 18 18 19 18 18 19 19 20 20 21 21
17 16 17 21 19 22 20 20 19 20 21 20 20 20 19 18 19 19 19 18 18 17 17 16 16 15 15 15 15 15 15 16 17 17 17 17 17 17 17 17 17 18 19 21
19 16 14 17 19 20 21 22 21 19 19 19 18 19 19 19 17 18 18 17 17 17 16 16 15 14 14 14 14 14 15 15 15 15 15 15 15 16 17 16 16 16 17 18
15 16 16 18 16 19 22 21 20 20 19 19 18 19 18 18 18 17 18 17 16 16 15 14 14 13 13 14 14 14 14 15 15 14 14 14 15 16 16 16 17 17 16 17
16 14 17 15 18 18 19 20 20 19 19 20 19 18 18 19 17 17 17 16 15 14 13 13 13 14 14 14 14 14 13 13 13 14 14 15 15 15 15 16 17 16 17 17
14 13 15 15 17 17 18 17 18 21 19 18 19 18 18 17 15 13 15 14 13 13 13 13 12 12 13 14 15 13 12 11 12 13 13 14 14 14 15 15 15 15 16 16
15 14 14 13 16 19 15 18 21 17 16 18 16 16 14 13 13 13 13 12 12 11 11 12 12 11 12 13 14 11 11 11 12 12 12 13 13 13 13 14 14 15 15 15
15 14 14 14 14 14 14 15 15 13 14 15 15 13 14 14 13 13 12 12 11 10 10 11 12 11 12 12 13 11 9 10 10 11 11 11 11 12 12 12 12 12 13 13
15 12 13 14 16 16 16 15 13 13 13 13 13 13 14 13 13 12 11 11 10 10 10 10 10 9 9 10 10 10 10 10 10 9 9 10 10 10 10 10 11 11 10 9
12 13 12 13 15 16 16 15 13 13 13 13 13 13 13 12 12 12 11 10 10 10 10 10 10 9 9 9 9 9 9 10 9 9 9 9 9 9 9 8 8 8 8 8
11 13 12 12 12 13 13 12 14 13 13 13 13 12 13 13 12 11 10 10 10 10 10 10 10 9 9 9 9 9 9 9 9 9 8 8 8 8 8 8 8 7 7 7

GFSCGP_925_temp_105.txt.gz
Temp
25 26 26 28 29 29 29 29 26 24 23 24 24 25 22 21 23 25 25 26 26 27 27 25 25 24 24 23 22 22 22 23 22 23 22 22 23 22 23 23 23 23 23 23
25 26 26 28 28 29 29 28 25 24 23 24 23 24 24 22 23 26 26 27 27 26 27 25 25 25 25 24 23 22 23 23 23 22 23 23 22 23 23 23 23 23 23 23
27 27 27 27 27 28 28 28 25 27 24 24 23 23 23 23 24 24 25 27 28 28 27 26 25 25 25 24 23 22 23 23 24 23 23 23 23 23 23 23 23 23 23 23
27 26 27 27 28 28 28 28 27 25 26 26 25 23 23 24 22 22 25 25 27 28 28 27 26 25 25 25 23 23 23 23 23 24 23 24 24 24 23 23 23 23 23 23
26 27 27 27 28 28 28 29 27 27 26 26 24 24 25 23 23 23 23 27 28 28 28 28 26 26 26 25 24 23 22 22 23 23 23 24 24 24 24 23 23 23 23 23
27 27 28 29 29 27 27 28 26 26 25 25 27 26 24 24 26 26 25 25 28 28 28 27 27 25 25 25 24 23 22 22 23 23 24 24 24 24 23 23 23 23 23 23
26 27 28 28 28 27 28 28 27 26 26 27 25 26 30 26 26 27 27 26 26 28 28 27 26 25 24 24 24 23 22 22 22 23 23 23 24 24 24 23 23 23 23 23
26 26 27 28 28 28 27 29 29 26 27 28 25 26 29 25 26 27 27 28 27 27 28 28 26 26 25 24 24 24 23 22 22 22 22 23 23 24 24 23 23 23 23 24
25 26 27 27 28 29 27 27 30 28 27 29 27 26 26 25 25 26 27 26 26 26 27 27 26 26 24 23 23 24 23 22 22 22 22 23 23 23 23 24 24 23 24 23
25 26 27 28 28 27 29 31 28 28 27 28 27 26 28 24 25 26 26 26 26 27 26 25 24 25 25 23 24 23 23 22 22 22 22 23 23 24 23 23 23 24 23 24
24 25 27 26 28 29 28 28 28 30 28 30 29 28 26 26 25 25 25 26 25 25 24 24 24 23 23 23 23 23 22 22 24 23 22 23 23 22 23 23 24 23 23 23
24 25 26 28 27 26 28 30 30 30 28 27 28 28 24 25 24 23 23 23 24 25 25 25 23 21 21 22 22 21 22 22 23 23 23 22 22 23 22 23 23 23 24 23
24 24 26 27 27 26 27 27 27 28 29 28 30 28 23 23 22 22 22 22 21 21 21 21 21 21 20 19 19 19 20 20 20 20 21 21 23 22 22 22 23 23 24 23
23 24 25 26 26 25 26 25 26 28 30 29 30 25 22 22 21 21 21 20 19 19 19 19 20 20 19 19 19 19 19 18 19 19 20 20 20 20 21 21 22 22 23 23
23 25 24 24 24 25 24 25 25 27 28 30 29 27 26 22 21 21 20 19 18 18 18 18 18 19 19 19 18 19 18 18 18 19 18 20 19 19 19 20 21 22 22 22
22 23 23 24 24 26 25 25 25 25 25 26 27 27 26 22 22 20 19 19 19 18 18 17 17 17 17 18 18 18 18 18 18 18 18 18 18 18 19 19 20 20 20 21
22 22 23 25 23 25 25 24 24 23 24 25 26 25 24 20 20 20 20 20 19 18 17 16 16 15 15 15 16 16 17 18 18 18 18 17 17 18 18 18 19 19 19 20
21 21 20 23 24 24 24 24 24 23 22 23 23 23 22 21 20 20 21 19 18 17 16 15 14 13 13 13 14 14 15 16 16 16 16 16 16 16 17 17 18 18 18 18
20 22 22 22 23 23 24 23 23 24 24 22 22 21 20 19 19 18 19 20 20 18 15 13 13 12 12 12 13 13 13 13 14 14 15 15 15 15 15 16 17 17 17 18
21 20 23 21 21 22 22 22 22 22 24 22 22 20 19 19 18 17 18 18 17 15 14 13 12 12 13 13 14 14 13 14 13 14 14 15 15 14 14 14 15 16 16 15
20 20 21 20 21 22 21 21 21 23 23 21 22 21 20 21 22 17 16 16 15 14 13 13 13 12 12 12 13 13 12 12 12 13 14 15 15 15 15 15 15 15 14 15
20 20 20 18 20 21 19 21 22 20 20 20 21 21 21 18 18 17 15 14 15 15 13 13 13 13 12 12 13 12 11 11 11 12 12 13 13 12 14 15 14 14 13 13
19 19 19 20 20 18 18 18 18 18 18 19 20 19 18 17 16 15 15 15 15 15 14 14 13 12 11 11 12 11 10 10 10 10 10 10 11 11 11 12 12 12 12 12
17 16 18 18 18 19 19 19 18 17 17 17 18 17 17 16 16 15 14 14 14 13 13 13 13 12 11 10 10 10 9 9 10 9 9 9 10 9 10 10 10 11 11 11
18 17 18 19 18 18 18 17 17 16 16 17 17 17 17 16 15 14 13 11 10 11 12 12 12 12 10 10 9 9 9 9 9 9 9 9 9 9 8 8 9 8 7 8
17 18 18 19 17 17 18 16 17 17 16 16 16 15 15 15 15 12 11 10 10 9 10 11 11 11 10 9 9 9 9 9 9 10 10 10 10 9 9 9 7 7 6 7

GFSCGP_925_temp_108.txt.gz
Temp
29 30 30 32 33 33 33 33 27 27 26 23 24 23 22 23 26 30 30 31 31 31 30 29 28 28 27 26 25 25 24 23 24 24 25 25 26 25 25 25 23 23 23 23
28 29 32 32 32 32 33 32 28 26 26 25 24 24 22 22 25 30 30 31 31 31 31 29 28 28 28 26 26 24 24 23 23 25 25 26 26 25 25 25 23 23 23 23
30 31 31 30 31 32 33 32 30 28 25 23 24 24 22 21 23 28 30 31 32 31 31 30 29 29 28 27 26 25 24 24 23 25 24 24 23 23 23 23 24 24 23 23
31 31 30 30 30 32 32 32 31 29 29 26 25 25 24 22 22 25 28 30 32 31 31 31 30 29 29 28 26 25 25 24 24 23 25 25 24 23 25 24 25 24 23 24
30 30 30 30 31 30 31 30 31 31 30 30 28 27 25 23 23 23 25 29 32 32 31 32 30 29 29 28 27 26 25 24 24 23 23 24 25 26 25 25 24 23 23 23
30 32 31 32 32 30 30 30 30 30 30 30 31 29 25 27 28 28 25 29 31 32 32 32 31 30 29 29 28 26 25 24 24 23 23 24 25 25 25 23 24 25 25 24
29 30 31 32 31 30 29 30 28 27 29 30 32 30 32 30 29 31 30 28 30 32 32 32 32 29 28 29 28 27 25 24 24 24 24 24 24 24 24 24 26 25 25 25
29 28 30 31 31 30 30 29 30 27 29 31 29 30 32 31 30 31 32 31 29 31 32 32 31 30 27 29 28 27 26 25 24 24 24 24 23 24 23 24 26 26 24 25
29 29 31 32 32 32 31 30 33 32 33 31 29 31 30 28 29 30 31 31 30 29 31 31 31 30 29 28 28 27 26 25 24 24 24 23 24 24 23 24 24 25 25 26
30 29 31 31 32 32 32 33 31 32 31 31 31 31 32 29 28 30 30 31 31 29 29 31 31 30 29 28 28 27 27 26 25 25 24 24 24 24 24 24 24 24 25 24
30 29 30 31 30 31 31 31 32 33 33 32 32 32 32 30 30 30 30 31 31 30 28 27 28 28 27 27 24 25 26 25 25 25 25 25 25 25 24 23 24 24 23 24
29 30 30 31 32 33 33 32 32 31 31 32 33 30 28 29 30 30 30 30 31 30 30 27 24 25 24 25 24 23 24 25 24 24 24 25 25 24 24 24 24 24 24 24
29 29 28 30 30 30 31 32 33 34 34 32 32 33 28 28 27 27 26 28 29 29 28 27 23 23 23 21 21 22 22 23 24 24 24 25 24 24 24 24 24 24 23 24
25 29 29 29 29 31 30 31 31 32 32 32 33 33 29 27 27 26 25 26 25 25 25 26 26 22 21 22 19 20 21 21 21 22 22 23 22 25 24 23 23 23 23 24
28 27 29 29 29 29 30 31 31 31 32 32 34 33 34 30 26 25 25 23 23 23 21 21 23 23 21 20 19 20 20 19 19 19 21 21 22 22 22 22 22 22 23 23
28 27 27 28 29 29 29 29 31 32 33 32 33 33 32 30 26 23 22 21 21 21 21 19 19 23 22 21 20 19 19 18 18 18 18 18 19 19 20 21 21 21 21 22
27 27 27 27 28 28 28 28 29 30 30 31 32 31 30 26 24 23 22 22 20 20 21 18 16 17 20 20 20 20 20 19 19 18 18 18 18 18 18 19 19 20 21 21
26 26 27 26 27 26 27 28 28 28 27 28 29 28 29 25 24 23 23 22 21 20 17 16 15 14 16 17 18 17 17 17 17 18 18 17 17 17 17 18 18 18 19 20
26 26 26 26 26 28 27 26 26 26 27 27 28 26 25 22 22 21 22 22 21 18 16 14 13 13 13 13 13 14 14 14 15 15 16 16 16 16 16 17 17 17 18 19
25 25 25 25 24 23 24 25 26 26 27 26 26 25 22 21 20 19 22 21 18 16 13 12 12 12 12 12 13 13 13 13 13 13 14 14 15 16 16 16 17 17 16 16
24 24 22 25 24 25 24 25 26 25 24 24 25 24 21 21 24 22 21 19 17 15 13 12 12 11 12 12 13 12 12 12 12 14 13 14 15 15 15 16 17 16 14 13
24 24 24 24 23 23 22 25 24 22 24 24 25 25 22 19 19 20 18 17 16 16 15 14 12 12 13 13 13 13 12 12 13 13 13 13 14 16 14 14 15 14 14 14
22 23 23 23 23 21 22 22 22 22 22 22 23 24 21 20 20 18 17 16 15 15 15 15 14 13 14 15 15 13 12 13 14 14 13 13 14 14 14 14 15 15 15 16
22 22 23 22 22 22 22 23 22 21 21 22 23 22 22 21 18 17 17 16 16 15 14 15 15 15 14 14 14 14 13 13 13 13 13 13 14 14 14 15 15 16 16 16
23 21 22 23 22 22 22 21 21 21 21 21 21 21 21 20 18 17 17 16 16 16 16 15 15 15 14 14 13 13 13 13 13 13 13 13 13 13 12 10 12 11 8 12
23 23 22 22 21 21 20 20 21 22 21 21 20 19 19 19 18 16 15 13 13 15 15 15 15 14 14 13 13 12 12 12 13 14 14 15 14 14 13 11 8 7 8 9

GFSCGP_925_temp_111.txt.gz
Temp
31 32 32 34 35 34 30 30 26 27 25 23 22 23 23 26 26 30 31 32 31 31 32 31 31 30 29 28 27 26 26 25 26 26 26 27 27 27 26 25 25 24 25 24
32 31 34 34 34 35 32 25 25 26 24 22 22 23 23 22 28 29 29 32 32 31 32 31 31 31 30 28 27 26 26 25 26 26 27 27 26 27 26 26 25 25 25 24
32 34 35 35 32 33 34 29 28 28 24 23 22 22 22 24 26 28 30 31 31 31 32 32 30 31 30 29 28 26 25 25 25 25 26 26 25 26 26 25 26 25 25 25
33 35 34 34 33 34 32 32 28 28 28 26 27 23 22 22 24 24 26 31 31 32 30 33 31 29 30 29 28 27 26 25 25 25 26 26 25 25 26 26 27 25 25 25
33 34 33 32 33 35 32 34 25 31 30 28 26 26 21 21 22 24 27 29 32 33 32 32 31 31 30 30 29 28 26 26 25 25 24 25 26 26 27 27 25 25 24 25
34 35 34 34 35 34 33 33 32 31 31 30 29 29 24 24 24 25 27 29 31 29 33 27 32 30 30 31 30 29 27 25 25 24 24 24 25 25 25 26 26 27 26 25
32 32 34 35 34 33 32 32 28 26 29 30 32 31 30 28 30 29 29 28 31 30 31 32 31 30 31 31 30 29 27 25 25 25 25 25 25 25 25 25 26 27 27 27
31 31 33 34 34 33 32 33 28 28 28 29 33 32 28 31 32 30 31 28 28 33 32 32 31 27 32 31 30 30 27 26 25 25 25 25 24 25 26 25 25 27 27 27
32 32 34 34 34 35 33 32 35 28 32 31 30 33 31 33 32 33 32 29 29 32 33 34 33 31 31 31 30 30 28 26 26 26 25 25 25 25 25 24 25 26 26 27
32 31 34 33 34 34 34 35 33 34 30 28 28 27 33 31 32 33 33 30 31 31 31 31 34 33 30 31 31 30 28 27 27 27 26 26 25 25 25 25 25 25 24 25
32 32 33 33 32 33 33 33 34 35 35 32 29 29 33 31 31 31 33 33 30 32 32 33 33 32 32 31 30 30 29 27 27 27 27 27 26 26 26 25 25 25 25 24
32 32 31 32 34 34 35 34 34 33 33 35 34 28 31 33 33 33 33 34 34 32 32 32 33 31 31 29 28 27 29 28 27 27 27 26 27 26 26 26 25 25 24 24
31 30 31 31 34 34 33 35 35 35 35 34 34 31 31 32 32 32 33 33 34 32 31 28 25 28 28 28 26 26 26 26 27 26 26 26 26 26 26 26 26 25 25 25
28 30 30 29 28 30 32 33 34 35 34 34 35 31 31 31 30 30 30 31 33 32 30 29 26 23 24 24 23 24 23 23 23 24 24 25 25 26 26 26 26 26 25 25
30 29 30 30 29 31 32 33 34 33 34 34 35 35 34 33 31 29 29 28 29 27 29 29 27 25 24 22 21 20 21 23 24 22 22 22 23 24 25 25 25 25 25 25
30 29 29 28 29 30 32 33 33 34 34 34 35 34 34 32 31 29 25 25 25 24 23 26 25 25 24 23 21 20 20 21 20 20 20 20 22 22 22 22 23 23 25 24
29 29 27 28 31 31 29 32 32 33 34 34 33 30 33 28 28 26 23 24 23 24 22 21 22 22 25 23 23 23 22 21 20 20 19 19 19 19 19 19 21 22 23 23
28 28 29 28 27 26 30 32 32 32 31 33 32 30 32 30 27 25 25 24 23 23 20 19 16 17 19 21 22 21 19 19 20 19 19 18 18 18 18 19 18 20 21 21
29 28 27 27 25 22 23 29 30 30 29 30 31 31 29 27 25 24 25 25 23 22 19 17 15 14 16 18 19 19 20 18 17 18 18 18 18 18 17 17 17 18 19 18
28 28 27 27 25 20 18 21 28 29 27 24 30 30 27 25 26 24 24 22 22 21 17 14 13 12 13 13 15 14 14 14 14 15 16 17 16 16 17 18 18 18 17 16
23 23 26 27 25 24 24 21 25 25 24 27 28 26 23 24 24 25 21 21 18 15 13 13 12 11 11 12 12 12 12 12 12 13 14 16 16 17 17 17 17 15 15 14
25 24 25 26 19 20 26 27 24 24 26 26 27 26 24 20 23 21 18 19 15 14 13 13 12 13 13 12 12 11 12 12 13 13 14 15 16 17 17 16 16 14 14 14
24 26 23 26 22 24 25 25 25 25 25 25 26 26 24 23 22 18 18 18 16 16 15 15 13 13 13 13 13 12 12 13 13 13 13 14 15 15 16 16 16 15 16 17
25 25 25 25 25 25 25 25 25 24 24 25 26 26 24 22 20 18 18 16 17 17 17 16 16 14 14 14 14 13 13 14 14 14 14 15 15 16 17 18 18 18 19 18
25 24 25 25 25 24 24 24 24 24 24 23 24 23 22 21 19 16 16 16 16 15 15 16 16 16 14 14 14 14 14 14 15 15 15 16 15 16 12 13 14 13 13 13
26 25 24 24 24 23 23 23 24 24 23 23 23 22 21 19 17 16 15 15 15 14 15 15 14 15 14 14 14 14 14 15 16 16 17 18 17 16 14 12 9 9 10 12

GFSCGP_925_temp_114.txt.gz
Temp
31 30 31 33 34 33 32 29 25 25 23 23 21 21 23 25 26 30 33 32 31 32 32 32 31 29 28 27 27 27 26 26 25 25 26 26 26 26 25 25 25 25 25 25
32 31 34 35 34 31 32 31 25 24 22 23 21 22 23 23 24 28 31 32 31 30 27 32 31 30 29 27 27 26 25 25 26 26 26 26 26 26 25 25 25 24 25 25
32 33 35 35 34 32 32 32 27 25 22 23 22 21 21 22 23 24 27 31 31 28 25 32 31 31 28 26 26 26 25 26 25 25 25 26 25 25 25 25 25 25 25 25
33 35 35 35 33 33 33 28 25 23 23 24 24 23 21 22 22 22 24 30 28 25 32 31 31 31 30 26 26 26 25 25 25 25 25 25 25 26 26 26 26 25 25 25
33 34 35 34 35 33 30 31 27 25 23 25 24 24 22 21 21 22 24 29 29 29 31 28 32 30 29 29 27 26 25 25 25 24 25 25 26 26 26 26 25 25 25 25
34 36 36 35 35 35 33 30 27 23 21 24 27 27 24 22 24 26 27 28 29 30 31 29 26 30 30 29 28 26 26 25 25 24 25 24 24 25 25 26 25 25 25 25
33 34 35 35 34 35 33 32 28 25 26 27 29 29 27 26 27 28 27 28 30 29 30 30 28 27 29 28 28 27 25 25 25 24 25 24 24 23 25 25 26 25 26 26
32 31 33 35 35 34 33 33 31 28 27 27 27 28 27 29 29 29 30 28 30 30 29 28 29 27 28 27 28 28 25 25 25 25 25 24 24 25 25 25 25 25 25 26
32 33 35 35 35 35 34 32 35 31 24 28 23 22 30 30 29 28 28 28 28 26 26 28 29 28 26 26 27 27 25 25 25 25 25 25 25 25 25 25 26 26 25 25
33 31 35 35 35 35 35 36 33 31 27 27 25 25 23 29 30 31 30 30 30 29 24 26 28 29 27 27 28 27 26 26 26 26 25 25 25 25 25 25 24 24 24 25
32 32 33 34 33 33 33 33 34 35 32 28 27 30 26 26 22 31 30 31 31 31 30 28 26 27 27 30 30 27 27 27 26 27 26 26 26 25 25 25 25 25 24 25
32 32 32 33 35 35 34 34 34 33 33 34 33 32 27 26 27 32 30 30 31 31 32 31 31 27 28 28 27 27 28 27 27 27 27 26 26 26 26 26 25 25 24 24
31 31 30 31 34 34 34 34 35 35 35 34 33 29 29 29 29 32 32 31 30 31 31 32 30 25 25 27 25 26 24 25 27 26 26 26 26 27 27 26 26 25 25 24
29 30 30 28 29 29 30 32 35 35 33 34 35 31 32 33 32 33 33 32 28 26 30 31 29 25 20 20 26 25 25 25 25 26 26 26 24 26 25 26 26 26 25 25
30 29 30 31 30 31 30 31 33 34 34 34 35 33 32 33 33 32 33 33 28 28 26 23 25 25 24 24 23 24 24 25 25 24 23 24 24 24 25 24 26 26 25 25
31 29 30 29 31 30 30 31 32 34 35 35 35 35 33 27 22 20 30 30 27 27 25 27 28 26 24 24 22 22 22 22 23 22 22 23 24 23 23 22 23 24 24 24
24 28 28 27 30 28 29 31 31 33 35 34 33 27 27 25 20 18 24 28 24 24 24 23 22 25 24 23 22 22 21 21 21 21 21 20 20 20 20 21 21 20 22 23
28 29 28 26 25 24 27 28 27 27 27 29 27 27 26 25 22 23 25 25 23 23 21 19 19 19 23 23 23 23 22 21 21 21 20 19 18 18 18 18 18 19 20 20
30 28 28 25 18 24 28 26 25 24 24 26 25 24 24 24 24 23 24 25 21 21 19 17 15 16 17 19 20 19 19 19 19 19 19 18 18 18 18 18 18 18 18 18
29 28 27 26 24 19 20 24 25 25 24 27 26 22 21 22 22 22 23 22 21 19 17 15 13 14 15 16 17 16 16 16 15 16 17 18 18 18 18 18 18 17 17 17
22 25 25 27 23 20 21 22 23 21 23 26 27 22 23 20 20 20 21 19 17 16 14 13 12 12 12 14 15 13 13 13 14 15 16 16 17 17 18 17 17 16 16 16
17 17 25 25 25 23 21 18 17 23 25 25 26 21 22 23 20 20 19 17 15 14 14 13 12 12 12 12 13 12 12 13 14 15 16 16 17 17 16 16 16 15 16 15
25 26 25 20 21 24 26 25 26 26 26 26 26 24 21 21 19 19 17 16 15 14 13 13 13 13 12 13 13 12 13 14 14 15 15 15 16 16 16 16 15 15 16 17
27 27 26 26 25 25 26 26 26 25 25 26 26 26 25 20 20 18 16 15 15 15 14 14 14 13 12 13 13 13 13 14 14 14 15 15 15 15 16 15 16 16 16 17
26 25 25 25 26 25 25 25 25 25 25 25 25 24 23 20 18 17 16 16 15 15 16 16 16 15 14 13 13 13 14 14 14 14 14 15 15 15 14 14 13 13 13 15
27 26 25 24 24 24 23 24 25 25 25 25 24 22 21 19 17 16 14 14 14 14 15 15 16 15 15 14 14 14 14 15 15 14 15 15 15 15 14 12 11 11 12 13

GFSCGP_925_temp_117.txt.gz
Temp
28 27 25 27 29 30 30 27 24 23 22 22 22 22 22 23 24 25 29 30 28 29 30 30 27 27 27 27 26 26 26 25 25 25 25 25 25 25 25 25 25 25 25 25
28 25 28 30 30 29 27 26 23 23 22 22 21 22 22 23 23 24 24 29 29 28 28 28 27 27 27 27 26 26 26 26 26 25 25 25 25 25 25 25 25 25 25 25
26 28 31 32 31 29 25 27 24 24 22 22 21 22 21 23 22 23 24 26 29 28 26 27 28 27 27 26 26 26 26 25 25 25 25 25 25 25 25 25 25 25 25 25
28 31 32 32 31 31 25 24 25 23 23 23 22 22 21 22 21 22 23 23 27 26 28 27 28 26 26 26 26 25 25 25 24 24 25 25 25 25 25 25 25 25 25 25
28 30 31 32 33 29 25 24 25 24 22 22 22 22 22 21 21 22 22 24 26 27 29 27 28 26 26 26 25 26 25 25 25 24 24 25 25 25 25 26 25 25 25 25
30 33 33 32 33 30 27 25 23 22 22 22 24 23 22 21 22 23 24 24 25 25 26 28 28 27 26 25 25 25 25 25 25 24 24 24 25 25 25 25 25 25 25 25
30 31 33 34 27 29 27 25 23 23 23 23 24 24 24 23 24 25 26 24 24 23 25 26 25 26 26 25 25 25 25 25 25 24 24 24 24 25 24 25 25 25 25 25
27 28 32 34 31 28 26 26 23 25 25 24 22 23 25 25 25 26 26 26 26 24 28 27 26 27 27 25 25 24 25 25 25 25 24 24 24 25 25 25 25 25 25 25
28 29 33 33 33 32 31 27 29 22 23 23 23 23 22 25 26 26 26 26 26 27 27 27 25 28 26 27 27 25 24 24 25 25 24 24 24 24 24 25 25 25 25 25
29 27 30 33 34 33 32 32 29 25 24 24 24 21 22 23 27 27 27 27 27 25 24 25 26 26 26 26 27 26 25 25 25 25 24 24 24 24 24 24 25 24 25 25
29 28 27 32 31 30 29 29 29 27 26 24 25 24 23 24 25 24 26 28 28 26 25 25 24 27 27 27 27 26 25 25 25 25 25 25 25 24 24 24 24 24 25 24
27 27 25 28 32 32 31 30 29 25 26 27 24 26 28 25 25 26 25 27 28 27 26 26 26 26 26 26 27 25 25 25 25 25 25 25 25 25 25 25 25 24 24 25
26 24 24 27 27 28 29 30 30 28 27 27 28 25 26 26 26 29 28 26 27 27 26 26 24 23 24 24 25 25 26 25 25 26 26 25 25 25 25 25 25 25 24 24
26 26 25 24 27 28 27 29 29 27 26 27 28 28 26 26 26 26 27 28 28 26 26 26 24 22 23 23 23 22 26 26 26 26 25 25 25 26 25 25 25 25 25 24
27 24 26 26 30 30 28 29 29 27 24 26 29 27 25 22 24 21 23 26 25 25 25 24 21 20 21 22 22 24 25 25 25 26 24 24 25 24 24 25 24 25 25 25
24 23 24 25 27 27 28 28 28 27 24 22 27 24 24 22 22 22 20 22 23 24 22 22 21 21 21 21 20 22 22 22 23 23 20 21 22 23 22 22 22 24 24 24
24 23 23 24 25 26 25 25 25 26 24 22 22 23 23 22 22 23 21 22 21 20 21 21 21 20 19 21 21 20 21 21 20 21 22 22 23 22 21 21 22 22 21 22
24 24 23 23 23 24 22 24 25 25 25 24 22 23 22 21 20 21 21 21 20 19 18 17 17 19 21 22 21 21 21 21 21 21 20 20 19 19 19 19 19 20 22 19
25 24 22 21 20 21 24 22 22 22 22 24 23 21 20 21 22 20 20 20 18 17 15 15 15 16 18 21 22 21 20 21 20 19 19 19 19 19 19 18 18 16 18 18
21 21 21 21 23 20 22 22 22 23 20 23 22 20 21 22 19 19 19 18 16 15 15 14 14 15 16 17 19 19 18 19 18 18 19 18 18 18 18 17 17 16 17 17
18 18 20 21 20 21 22 20 21 22 20 23 23 20 19 18 19 17 16 15 14 13 13 13 13 13 14 15 17 16 16 16 16 17 17 18 18 18 18 17 17 17 16 16
19 18 20 19 20 18 22 21 22 20 21 25 21 20 19 18 17 16 15 14 14 14 13 12 12 12 12 14 16 14 14 14 16 16 17 17 17 17 17 17 16 16 17 16
21 19 20 18 17 20 21 22 20 22 20 21 20 19 18 17 17 16 14 14 13 13 13 13 12 12 12 12 13 13 13 14 15 16 16 16 16 15 16 16 15 15 15 16
23 23 21 19 20 19 23 22 23 23 22 23 21 19 19 17 16 15 14 14 13 13 13 13 12 12 12 13 13 13 14 14 15 15 15 15 15 15 15 15 15 15 15 15
22 24 23 22 19 19 22 22 23 23 23 23 21 19 18 16 15 14 14 14 14 14 14 14 13 13 13 13 13 14 14 14 14 14 14 14 14 15 14 14 14 13 14 15
23 22 20 19 21 20 21 22 24 24 23 23 20 19 17 17 16 15 14 14 14 14 15 15 14 13 13 13 13 14 14 14 14 14 14 15 14 13 13 13 11 11 12 13

GFSCGP_925_temp_120.txt.gz
Temp
26 24 24 25 26 27 26 24 24 23 22 21 22 22 22 22 23 24 24 27 28 27 26 25 25 25 25 25 25 25 25 25 25 25 24 24 25 25 25 25 25 25 24 24
24 24 25 27 28 29 27 26 24 23 22 22 21 22 21 21 23 23 23 26 27 25 25 25 25 24 24 25 25 25 25 25 25 25 25 25 25 25 25 25 24 24 24 24
23 26 28 28 27 27 26 26 23 23 22 22 21 21 21 22 22 23 23 24 28 26 25 25 25 25 25 25 25 25 25 25 25 25 25 25 25 25 24 24 24 25 24 25
25 27 28 28 28 26 25 27 25 23 23 23 22 23 21 22 22 23 23 23 24 25 25 25 25 24 24 25 26 25 25 25 24 24 25 25 24 24 24 24 25 25 24 25
26 28 27 28 30 27 23 26 25 25 22 22 22 22 23 21 22 22 23 23 24 24 26 25 26 25 25 25 25 26 25 25 25 25 24 25 25 25 25 24 24 25 24 24
26 29 29 29 30 27 25 24 22 22 22 22 23 22 23 21 23 24 24 24 24 24 26 26 26 25 24 24 24 25 25 24 25 24 24 24 24 24 24 25 24 24 24 24
26 29 28 26 24 25 24 22 22 22 22 23 22 23 24 25 25 25 25 24 24 23 25 25 25 24 24 24 24 25 25 24 25 25 24 24 24 24 25 25 24 24 24 25
24 26 28 28 26 24 24 24 22 23 24 24 22 22 23 25 24 26 27 25 24 24 25 24 25 24 24 24 25 24 24 24 24 24 24 24 24 24 25 25 24 25 25 25
25 27 30 30 28 27 26 25 25 21 22 23 23 23 23 23 25 24 25 24 23 24 24 24 25 25 24 24 24 24 24 24 24 24 24 24 25 25 24 24 24 24 24 25
27 26 28 29 29 28 26 26 24 21 22 24 23 22 23 25 25 24 25 25 25 24 23 23 25 25 24 24 24 24 25 25 24 24 24 24 24 24 24 24 24 24 24 25
24 24 26 27 28 27 28 27 25 23 22 23 23 23 23 24 25 24 25 26 25 25 23 25 24 25 24 24 24 24 25 24 25 24 24 24 24 24 24 24 24 24 24 24
25 22 24 27 27 28 27 28 23 22 26 23 24 25 27 23 24 25 25 26 26 27 25 24 24 24 24 24 24 24 23 24 25 24 24 24 24 24 24 24 24 24 24 24
25 22 21 23 25 26 26 26 26 22 20 23 23 26 24 24 24 25 25 25 26 27 25 24 24 24 23 24 24 23 25 24 25 24 24 24 24 24 24 24 24 24 24 24
23 20 23 22 24 25 26 26 23 21 20 21 22 25 24 24 25 26 25 25 26 26 25 24 22 21 22 23 25 25 24 24 25 24 24 24 25 24 24 24 24 24 24 24
22 22 23 24 25 25 24 25 23 21 22 21 22 22 21 22 23 22 21 24 24 22 24 24 22 21 21 22 23 22 22 22 23 25 22 24 24 24 24 24 24 24 24 24
20 22 23 23 24 23 23 24 24 23 23 23 22 21 20 20 21 20 20 22 21 22 22 22 21 21 20 21 22 24 25 23 22 21 23 23 24 23 24 24 24 24 24 24
21 20 20 23 23 24 20 21 23 22 22 21 21 20 19 19 19 19 19 19 20 19 19 19 20 20 20 20 21 22 25 20 21 21 22 23 23 23 21 21 21 21 21 22
21 20 18 20 20 22 20 22 23 22 21 21 21 20 19 19 19 19 19 19 18 18 17 17 16 18 19 19 20 21 21 19 21 22 20 21 21 20 20 20 20 20 20 20
18 17 19 19 18 20 21 21 21 21 21 22 21 20 19 19 19 18 17 17 16 16 15 15 15 16 19 21 22 21 19 19 19 19 20 19 19 19 19 19 18 18 17 18
18 16 19 18 21 21 20 21 21 21 19 22 21 20 19 19 18 18 16 15 14 14 14 14 14 14 15 19 19 19 18 19 18 19 18 18 18 18 18 18 17 16 16 13
16 15 18 17 18 19 20 20 20 20 19 22 22 20 19 18 18 16 15 13 13 13 13 13 14 13 14 15 18 17 17 17 18 18 18 18 18 18 17 17 17 17 16 15
18 16 17 16 17 20 20 21 20 18 19 21 21 20 18 17 16 14 13 13 13 13 12 13 13 13 13 15 15 14 14 16 16 17 17 17 17 17 17 17 16 15 15 15
20 17 17 17 16 17 20 21 21 18 19 20 19 17 17 16 16 14 13 13 13 13 12 12 13 12 13 13 14 14 14 15 16 16 16 16 16 16 16 15 15 15 15 14
22 17 17 18 19 20 20 21 21 20 19 19 18 18 17 15 14 13 12 12 12 12 12 12 12 12 12 13 14 14 14 15 15 14 14 14 15 15 15 15 15 15 15 15
18 20 17 17 18 18 19 19 21 21 19 18 18 18 16 14 13 12 12 13 13 13 13 13 13 12 13 13 14 14 14 15 14 14 14 14 14 14 13 13 13 14 14 15
19 19 17 16 16 16 18 20 21 21 19 18 17 16 16 15 13 13 12 13 13 13 13 13 13 13 13 14 14 14 14 15 14 14 14 14 14 14 14 14 12 12 12 14